GFSSE_con_mlcape_000.txt.gz
CAPE
871 513 218 328 725 924 1124 1520 1801 1667 1710 1681 1390 1156 962 827 771 740 685 580 392 330 424 1052 1048 796 487 329 60 8 32 156 251 268 296 396 390 534 355 397 526 851 701
987 513 178 161 472 868 1176 1400 1953 2121 2020 2106 1784 1529 1144 1151 1007 635 346 185 300 52 8 384 518 817 794 749 490 322 239 336 617 695 662 588 458 406 296 586 271 574 635
1041 920 220 61 74 456 1104 1550 1740 2002 1394 1746 1992 1671 1517 1171 869 674 248 0 0 0 0 202 488 541 770 626 281 333 447 663 815 700 484 897 688 555 68 233 245 394 399
1160 893 472 282 305 251 575 1179 1562 1631 1550 1439 1695 1477 1429 1019 688 697 110 0 0 9 4 6 389 431 643 463 466 464 600 802 834 577 246 362 913 627 67 3 227 337 423
1260 1194 697 495 516 368 398 754 1148 1155 1286 1308 1357 1293 1161 1236 708 512 378 118 46 60 582 612 57 275 445 522 562 574 506 811 787 682 571 297 512 829 326 0 100 209 186
1535 1445 953 869 847 700 440 856 1091 914 990 1180 1141 1033 1447 1117 766 328 34 28 55 377 428 125 6 3 292 332 505 710 624 557 653 523 661 196 91 936 631 39 314 109 35
1667 1787 1305 990 1057 984 758 587 615 910 862 818 768 973 992 919 1204 889 828 687 525 277 15 5 0 0 175 45 658 794 1084 848 876 769 688 194 221 1011 864 372 563 693 84
1816 1944 1843 1233 1042 906 727 642 499 536 675 872 861 649 587 509 460 532 543 465 473 375 211 40 81 178 371 250 295 644 829 751 808 696 461 164 381 640 990 635 477 667 569
1309 1565 1937 1957 1472 1174 706 346 476 544 583 806 955 897 513 585 484 241 242 347 270 196 195 251 339 392 326 266 212 276 369 376 320 450 403 181 567 627 812 742 684 811 640
1397 1443 1431 1596 1998 1555 846 191 229 343 456 579 744 854 856 561 282 159 59 16 12 22 0 0 0 96 144 138 159 56 106 112 120 186 317 215 524 600 863 848 879 642 317
888 951 1639 1896 1854 1539 1207 366 880 631 567 592 450 330 416 1006 454 171 0 0 0 0 0 0 0 0 0 0 0 3 0 5 4 93 125 168 203 300 364 715 695 596 433
275 131 253 844 1376 1427 1114 293 1489 1416 1078 1001 990 777 679 493 275 156 32 0 0 0 0 0 0 0 0 0 0 1 0 0 0 10 231 180 157 147 136 179 525 512 363
2 0 0 297 939 1332 1091 1118 1273 1119 912 762 605 469 276 129 66 83 96 122 40 0 0 0 0 0 0 0 0 0 0 0 0 0 0 7 11 44 144 95 523 469 380
0 0 0 183 514 542 527 425 687 388 301 168 155 168 121 91 29 40 24 0 0 2 2 1 0 0 0 0 0 0 0 0 0 0 9 23 6 42 97 222 363 467 385
0 0 0 1 188 404 201 44 0 0 0 0 0 0 0 0 3 0 0 0 0 1 0 0 0 0 0 0 0 0 0 0 0 0 0 0 0 0 1 71 274 440 382
0 0 0 0 0 0 31 0 0 0 0 0 0 0 0 0 0 0 0 0 0 0 0 0 4 7 4 0 0 0 0 0 0 0 12 0 0 0 0 0 8 271 478
0 0 0 0 0 0 0 0 0 0 0 0 0 0 0 0 0 0 0 0 0 0 0 0 0 0 0 0 0 23 28 1 15 45 42 30 0 0 0 0 0 0 61
0 0 0 0 0 0 0 0 0 0 0 0 0 0 0 0 0 0 0 0 0 0 0 0 0 0 0 0 0 0 0 0 19 68 89 73 27 1 1 0 0 0 0
0 0 0 0 0 0 0 0 0 0 0 0 0 0 0 0 0 0 0 0 0 0 0 0 0 0 0 0 0 0 0 0 0 0 60 84 97 20 8 29 2 0 0
0 0 0 0 0 0 0 0 0 0 0 0 0 0 0 0 0 0 0 0 0 0 0 0 0 0 0 0 0 0 0 0 0 0 6 105 119 98 50 27 12 0 0
0 0 0 0 0 0 0 0 0 0 0 0 0 0 0 0 0 0 0 0 0 0 0 0 0 0 0 0 0 0 0 0 0 0 0 33 150 172 95 45 24 7 0
0 0 0 0 0 0 0 0 0 0 0 0 0 0 0 0 0 0 0 0 0 0 0 0 0 0 0 0 0 0 0 0 0 0 0 0 35 45 94 117 40 19 15
0 0 0 0 0 0 0 0 0 0 0 0 0 0 0 0 0 0 0 0 0 0 0 0 0 0 0 1 0 0 0 0 0 0 0 0 0 0 0 0 62 47 14
0 0 0 0 0 0 0 0 0 0 0 0 0 0 0 2 1 6 6 12 8 1 0 0 0 2 1 0 1 7 0 0 0 0 0 0 0 0 0 0 0 3 19
0 0 0 0 0 0 0 0 0 0 0 0 0 0 0 0 0 0 0 0 3 10 6 0 0 0 0 1 10 22 13 8 0 4 1 0 0 0 0 0 0 0 0
0 0 0 0 0 0 0 0 0 0 0 0 0 0 0 0 0 0 0 0 0 0 0 0 0 0 0 0 0 0 10 14 9 4 0 0 1 0 0 0 0 0 0

GFSSE_con_mlcape_003.txt.gz
CAPE
547 84 124 494 975 1140 1271 1637 1760 1971 2001 1698 1427 1187 983 1030 897 525 268 99 30 6 34 9 19 474 554 558 559 526 341 101 347 634 720 789 877 572 538 722 940 719 578
638 111 77 207 688 1134 1363 1558 1688 1566 1948 2044 1843 1492 1120 1169 823 511 230 141 151 0 5 1 0 432 571 463 461 398 449 415 262 196 396 626 512 287 167 280 391 764 535
738 263 123 72 189 643 1192 1536 1643 1467 1344 1735 1831 1674 1399 1137 780 572 475 180 0 0 0 8 13 281 380 417 340 355 394 401 547 414 364 516 569 331 130 35 366 617 288
734 482 340 210 160 400 1049 1264 1354 1389 1450 1489 1559 1619 1431 1142 952 742 268 86 0 0 0 20 404 142 134 324 331 341 369 342 621 620 430 671 940 591 368 12 434 428 314
1014 592 541 402 348 457 1011 1138 1061 1030 1014 1156 1261 1440 1332 1152 882 747 407 108 14 13 80 373 136 122 1 0 301 369 291 340 382 622 326 442 502 863 437 28 272 432 327
1180 802 791 760 633 435 556 753 806 706 798 808 965 1254 1280 1184 965 785 443 384 201 241 446 746 378 5 0 0 38 276 304 380 410 449 417 536 387 628 481 33 116 206 310
1497 1101 931 858 743 664 434 320 404 523 655 1045 1168 1020 1082 1088 846 590 242 107 256 523 355 171 101 0 0 7 98 235 378 728 814 623 488 590 299 566 812 180 94 143 107
1677 1439 1174 873 772 632 510 494 465 510 645 859 1127 958 742 1073 1148 1062 914 755 647 430 99 0 0 0 28 9 21 131 538 1035 1197 1026 756 440 168 527 897 604 229 497 234
1951 1975 1577 1294 1204 858 527 276 387 481 627 752 1006 818 635 375 244 409 485 423 381 326 351 346 270 179 296 270 322 328 535 839 862 763 566 258 301 565 583 648 401 623 280
1356 1542 2037 1682 1397 941 509 219 337 343 511 729 888 1026 503 275 180 122 60 99 159 45 110 119 123 77 50 75 72 81 138 127 172 117 51 211 653 681 719 573 467 461 709
884 1154 1440 1600 1663 1147 803 526 728 578 556 565 469 616 553 337 144 1 1 0 0 0 0 0 0 19 10 0 1 0 0 0 0 27 30 114 233 512 684 509 523 625 796
249 240 213 271 1032 1078 1108 726 1129 985 793 799 623 477 469 283 38 9 0 0 0 0 0 0 0 0 0 0 0 0 0 0 0 0 0 58 124 257 469 342 418 497 594
5 0 4 295 697 900 719 948 1091 830 877 572 343 258 77 7 0 11 0 0 0 0 0 0 0 0 0 0 0 0 0 3 6 12 1 0 30 307 408 313 228 423 552
0 0 0 1 205 372 87 470 453 684 274 294 92 151 0 0 0 0 0 0 0 0 0 0 0 0 0 0 0 0 0 0 0 0 2 5 24 149 118 334 456 297 358
0 0 0 0 30 117 1 0 0 0 0 0 0 0 0 0 0 0 0 0 0 0 0 0 0 0 0 0 0 0 0 0 0 0 0 0 1 0 62 181 236 450 513
0 0 0 0 0 0 0 0 0 0 0 0 0 0 0 0 0 0 0 0 0 0 0 0 0 0 0 0 0 1 0 0 0 0 0 0 0 6 3 3 42 189 350
0 0 0 0 0 0 0 0 0 0 0 0 0 0 0 0 0 0 0 0 0 0 0 0 0 0 0 0 0 0 0 0 0 0 0 0 0 1 1 0 0 0 26
0 0 0 0 0 0 0 0 0 0 0 0 0 0 0 0 0 0 0 0 0 0 0 0 0 0 0 0 0 0 0 0 0 0 0 34 44 27 9 13 0 0 0
0 0 0 0 0 0 0 0 0 0 0 0 0 0 0 0 0 0 0 0 0 0 0 0 0 0 0 0 0 0 0 0 0 0 0 0 10 75 24 25 34 24 12
0 0 0 0 0 0 0 0 0 0 0 0 0 0 0 0 0 0 0 0 0 0 0 0 0 0 0 0 0 0 0 0 0 0 0 0 2 6 73 55 62 51 36
0 0 0 0 0 0 0 0 0 0 0 0 0 0 0 0 0 0 0 0 0 0 0 0 0 0 0 0 0 0 0 0 0 0 0 0 0 6 60 276 162 61 7
0 0 0 0 0 0 0 0 0 0 0 0 0 0 0 0 0 0 0 0 0 0 0 0 0 0 0 0 0 0 0 0 0 0 0 0 0 0 0 0 100 231 101
0 0 0 0 0 0 0 0 0 0 0 0 0 0 0 0 0 0 0 0 0 0 0 0 0 0 0 0 0 0 0 0 0 0 0 0 0 0 0 0 0 0 0
0 0 0 0 0 0 0 0 0 0 0 0 0 0 0 0 0 0 0 0 1 0 0 0 0 0 0 0 0 0 0 0 0 0 0 0 0 0 0 0 0 0 0
0 0 0 0 0 0 0 0 0 0 0 0 0 0 0 0 0 0 0 0 0 0 0 0 0 0 0 0 0 0 0 0 0 4 0 0 0 0 0 0 0 0 0
0 0 0 0 0 0 0 0 0 0 0 0 0 0 0 0 0 0 0 0 0 0 0 0 0 0 0 0 0 0 0 0 0 0 0 0 0 0 0 0 0 0 0

GFSSE_con_mlcape_006.txt.gz
CAPE
77 155 473 881 1043 1185 1433 1391 1741 1929 1664 1481 1256 1121 1255 1122 894 631 373 241 179 105 130 26 6 17 460 678 371 151 145 426 463 624 643 519 315 694 677 538 848 1067 949
75 55 237 714 1039 1256 1514 1292 1550 1961 1981 1775 1459 1471 1281 1019 743 383 165 119 174 190 88 59 116 380 497 510 391 289 191 262 397 552 702 634 675 806 783 842 852 732 759
323 77 127 338 909 1335 1428 1543 1421 1567 1864 1866 1817 1688 1450 1199 890 578 324 310 197 156 294 210 304 607 692 340 185 323 219 172 248 334 725 656 490 520 340 344 554 806 695
492 279 224 313 742 1031 1084 1201 1327 1480 1504 1645 1804 1771 1676 1513 1333 1139 953 467 85 75 237 598 511 305 192 109 120 153 362 378 281 207 288 631 824 449 256 74 502 827 481
595 483 367 271 582 730 642 619 608 902 1302 1552 1541 1719 1772 1628 1452 1345 774 517 171 215 385 680 565 515 119 70 0 15 352 238 247 238 194 246 407 761 713 46 706 552 456
662 527 407 232 326 573 660 632 627 629 722 967 1502 1597 1621 1563 1348 1366 992 396 229 315 424 888 484 195 156 1 2 70 428 273 337 364 348 396 473 543 907 157 352 583 425
650 665 640 557 453 411 547 664 699 884 860 994 1076 1298 1514 1336 1111 812 300 558 394 520 625 669 852 555 122 6 65 179 182 1 123 575 488 433 269 915 955 338 122 435 409
916 889 799 742 654 510 466 471 524 713 890 958 883 868 937 1185 1208 1245 1206 893 775 1076 430 197 73 127 19 0 18 42 56 84 239 636 626 627 580 463 948 602 34 124 281
1358 1154 1034 1022 830 607 337 332 387 564 844 960 871 737 621 552 703 754 710 719 707 608 414 273 210 18 20 200 105 166 383 322 509 483 362 345 348 315 860 877 332 292 267
1781 1563 1282 1190 906 537 177 366 290 358 603 825 810 596 477 388 265 215 259 414 427 406 399 351 422 448 455 380 300 250 248 279 277 246 212 213 314 423 652 702 555 542 577
1675 1801 1568 1474 1172 661 255 473 465 535 558 633 749 593 415 230 102 83 11 27 28 67 1 0 50 84 55 34 10 7 0 3 17 7 8 81 184 346 740 511 578 454 488
889 858 934 1342 1394 1029 675 700 708 696 671 600 547 685 601 242 43 0 0 0 0 0 0 0 0 0 0 0 0 0 0 0 0 0 0 0 33 221 423 565 429 322 356
173 35 39 63 341 588 544 691 888 707 681 671 475 385 263 63 11 0 0 0 0 0 0 0 0 0 0 0 0 0 0 0 0 0 0 2 8 121 291 425 232 267 331
0 0 0 0 192 85 149 892 855 564 609 313 141 27 0 0 0 0 0 0 0 0 0 0 0 0 0 0 0 0 0 0 0 0 0 0 0 32 239 366 311 203 237
0 0 0 0 0 24 0 0 4 1 62 0 0 0 0 0 0 0 0 0 0 0 0 0 0 1 0 0 0 0 0 0 0 0 0 0 0 0 12 136 308 399 373
0 0 0 0 0 0 0 0 0 0 0 0 0 0 0 0 0 0 0 0 0 0 0 0 0 0 0 0 0 0 1 0 0 0 0 0 0 0 0 0 6 149 279
0 0 0 0 0 0 0 0 0 0 0 0 0 0 0 0 0 0 0 0 0 0 0 0 0 0 0 0 0 0 0 0 0 0 0 0 0 0 0 0 0 7 31
0 0 0 0 0 0 0 0 0 0 0 0 0 0 0 0 0 0 0 0 0 0 0 0 0 0 0 0 0 0 0 0 0 0 0 0 0 0 0 3 11 16 15
0 0 0 0 0 0 0 0 0 0 0 0 0 0 0 0 0 0 0 0 0 0 0 0 0 0 0 0 0 0 0 0 0 0 0 0 0 0 0 10 2 27 36
0 0 0 0 0 0 0 0 0 0 0 0 0 0 0 0 0 0 0 0 0 0 0 0 0 0 0 0 0 0 0 0 0 0 0 0 0 0 0 0 2 22 17
0 0 0 0 0 0 0 0 0 0 0 0 0 0 0 0 0 0 0 0 0 0 0 0 0 0 0 0 0 0 0 0 0 0 0 0 0 0 0 0 0 0 45
0 0 0 0 0 0 0 0 0 0 0 0 0 0 0 0 0 0 0 0 0 0 0 0 0 0 0 0 0 0 0 0 0 0 0 0 0 0 0 0 0 3 0
0 0 0 0 0 0 0 0 0 0 0 0 0 0 0 0 0 0 0 0 0 0 0 0 0 0 0 0 0 0 0 0 0 0 0 0 0 0 0 0 0 0 24
0 0 0 0 0 0 0 0 0 0 0 0 0 0 0 0 0 0 0 0 0 0 0 0 0 0 0 0 0 0 0 0 0 0 0 0 0 0 0 0 0 0 0
0 0 0 0 0 0 0 0 0 0 0 0 0 0 0 0 0 0 0 0 0 0 0 0 0 0 0 0 0 0 0 0 0 0 0 0 0 0 0 0 0 0 0
0 0 0 0 0 0 0 0 0 0 0 0 0 0 0 0 0 0 0 0 0 0 0 0 0 0 0 0 0 0 0 0 0 0 0 0 0 0 0 0 0 0 0

GFSSE_con_mlcape_009.txt.gz
CAPE
31 249 749 965 1130 1226 1348 1550 1695 1607 1488 1428 1381 1151 1230 1219 1070 997 852 751 613 513 615 606 494 712 881 499 284 47 62 216 583 617 353 438 652 619 355 803 872 882 829
70 315 732 994 1275 1380 1247 1609 1952 1870 1771 1665 1613 1391 1109 1110 1065 881 763 560 820 743 477 354 584 1033 1059 685 588 436 139 52 108 349 569 567 542 744 552 528 745 805 706
52 211 478 981 1282 1433 1399 1283 1740 1978 2048 1892 1837 1640 1451 1136 811 598 469 565 261 438 410 300 645 1211 577 365 236 206 253 331 239 280 598 422 500 512 680 806 772 702 511
148 144 356 760 987 1058 1162 1345 1478 1522 1754 1981 2079 1974 1845 1608 1257 963 879 529 277 271 868 947 685 1025 653 486 265 208 226 167 533 589 535 430 678 467 540 266 662 660 458
315 168 269 529 715 723 685 761 950 1269 1483 1675 2071 2178 2070 1994 1818 1682 1074 817 528 358 742 866 925 810 411 145 128 32 81 175 312 557 521 457 622 772 478 341 264 510 771
328 249 196 414 428 297 247 274 374 481 763 1130 1409 1695 1926 1956 1867 1689 1236 740 367 426 726 999 865 515 284 192 158 1 116 425 242 260 339 551 566 550 806 693 249 707 672
442 452 301 232 259 311 338 362 365 668 859 996 1316 1177 1362 1518 1419 1185 828 778 823 583 747 857 1292 1032 722 310 108 78 286 264 18 41 343 385 421 382 679 786 154 415 553
494 528 511 438 359 250 378 483 605 753 838 864 858 975 1193 1261 1293 1334 1164 686 687 946 1173 516 380 245 404 171 26 29 62 16 32 121 248 301 495 656 655 847 275 360 590
855 802 765 762 672 512 348 357 521 648 768 796 608 636 715 734 810 917 942 1011 1082 962 774 409 562 233 47 111 211 298 300 390 332 212 285 337 338 383 533 824 570 248 423
984 932 929 921 799 423 217 342 358 523 711 774 657 618 538 480 443 454 491 626 520 509 406 297 308 390 470 397 260 119 44 49 41 50 50 124 189 374 460 463 782 380 196
1308 1085 1041 1036 812 375 93 227 331 433 520 699 714 592 400 281 131 74 86 109 170 103 41 17 16 9 0 0 0 0 0 0 0 0 0 0 1 199 440 335 659 440 331
1587 1427 1188 1154 972 588 246 376 426 470 508 515 597 453 400 193 83 37 6 0 0 0 0 0 0 0 0 0 0 0 0 0 0 0 0 0 0 114 374 493 395 394 358
1367 1434 1030 1061 1071 869 679 403 526 495 464 390 332 398 299 163 13 0 0 0 0 0 0 0 0 0 0 0 0 0 0 0 0 0 0 0 0 0 78 347 363 265 242
544 54 20 46 136 44 292 409 667 588 422 417 261 91 13 0 0 0 0 0 0 0 0 0 0 0 0 0 0 0 0 0 0 0 0 0 0 0 0 66 354 475 305
2 0 0 0 6 0 14 133 407 238 380 195 24 0 0 0 0 0 0 0 0 0 0 0 0 0 0 0 0 0 0 0 0 0 0 0 0 0 1 3 64 215 334
0 0 0 0 0 0 0 0 0 0 5 0 0 0 0 0 0 0 0 0 0 0 0 0 0 0 0 0 0 0 0 0 0 0 0 0 0 0 0 0 9 2 6
0 0 0 0 0 0 0 0 0 0 0 0 0 0 0 0 0 0 0 0 0 0 0 0 0 0 0 0 0 0 0 0 0 0 0 0 0 0 0 0 0 37 32
0 0 0 0 0 0 0 0 0 0 0 0 0 0 0 0 0 0 0 0 0 0 0 0 0 0 0 0 0 0 0 0 0 0 0 0 0 0 0 0 0 0 0
0 0 0 0 0 0 0 0 0 0 0 0 0 0 0 0 0 0 0 0 0 0 0 0 0 0 0 0 0 0 0 0 0 0 0 0 0 0 0 0 0 0 0
0 0 0 0 0 0 0 0 0 0 0 0 0 0 0 0 0 0 0 0 0 0 0 0 0 0 0 0 0 0 0 0 0 0 0 0 0 0 0 0 0 0 0
0 0 0 0 0 0 0 0 0 0 0 0 0 0 0 0 0 0 0 0 0 0 0 0 0 0 0 0 0 0 0 0 0 0 0 0 0 0 0 0 0 0 0
0 0 0 0 0 0 0 0 0 0 0 0 0 0 0 0 0 0 0 0 0 0 0 0 0 0 0 0 0 0 0 0 0 0 0 0 0 0 0 0 0 0 0
0 0 0 0 0 0 0 0 0 0 0 0 0 0 0 0 0 0 0 0 0 0 0 0 0 0 0 0 0 0 0 0 0 0 0 0 0 0 0 0 0 0 0
0 0 0 0 0 0 0 0 0 0 0 0 0 0 0 0 0 0 0 0 0 0 0 0 0 0 0 0 0 0 0 0 0 0 0 0 0 0 0 0 0 0 0
0 0 0 0 0 0 0 0 0 0 0 0 0 0 0 0 0 0 0 0 0 0 0 0 0 0 0 0 0 0 0 0 0 0 0 0 0 0 0 0 0 0 0
0 0 0 0 0 0 0 0 0 0 0 0 0 0 0 0 0 0 0 0 0 0 0 0 0 0 0 0 0 0 0 0 0 0 0 0 0 0 0 0 0 0 0

GFSSE_con_mlcape_012.txt.gz
CAPE
78 488 775 926 1065 1198 1284 1471 1379 1285 1279 1119 1101 1190 1284 1435 1340 1203 1041 840 930 1033 996 949 952 1020 964 713 280 214 591 680 613 342 236 483 684 589 582 593 843 849 788
105 518 843 1084 1201 1187 1451 1565 1655 1593 1558 1533 1222 1104 1270 1279 1208 1106 1011 886 1079 816 636 627 773 1137 1189 799 387 174 70 168 324 420 239 302 679 901 604 585 623 632 641
174 462 779 1076 1268 1253 1314 1735 1977 1899 1877 1793 1699 1403 1211 1294 1244 1194 1068 653 545 506 614 457 846 1359 915 652 459 387 438 374 293 486 696 486 379 889 781 534 724 770 622
114 300 673 917 971 1131 1214 1267 1446 1726 1948 2164 2107 1971 1719 1378 981 1059 861 589 510 651 985 1139 1020 1623 1162 889 588 600 524 532 559 841 804 675 455 668 1008 628 961 872 552
149 252 598 671 656 660 761 917 1146 1410 1659 1976 2154 2182 2146 2014 1850 1663 1137 1000 771 540 786 795 1066 1158 914 372 312 91 161 496 471 506 518 667 637 902 792 640 401 852 582
138 138 307 254 270 225 155 140 243 480 888 1326 1609 1987 2141 2103 1962 1802 1426 958 608 630 817 1004 1148 1014 613 633 244 241 160 196 107 65 184 338 602 614 671 574 380 266 708
93 100 230 270 271 259 230 196 290 555 741 867 1073 1288 1579 1576 1404 1180 859 694 829 745 952 1230 1100 1027 893 812 242 34 98 223 139 48 72 189 235 391 750 745 573 279 430
173 223 242 298 275 387 438 407 483 561 703 755 932 1189 1444 1369 1328 1283 1149 908 851 1059 1228 707 417 402 163 125 263 108 112 75 93 163 156 194 155 451 593 707 531 343 199
408 428 379 432 405 372 304 326 424 595 634 666 620 682 681 772 819 797 808 875 808 792 772 714 605 612 525 481 336 190 136 193 122 71 75 79 199 374 354 730 594 534 233
542 538 569 569 508 286 178 279 287 413 600 670 580 496 389 352 333 326 273 376 309 258 232 204 222 203 128 23 0 0 0 0 0 0 0 0 0 109 396 497 491 465 438
774 703 673 661 543 124 4 110 231 337 448 616 540 394 205 106 29 19 49 67 70 48 42 25 16 12 11 1 0 0 0 0 0 0 0 0 0 37 338 520 424 516 533
1113 1027 809 787 683 358 63 111 138 232 325 385 465 211 113 60 5 0 0 0 0 0 0 0 0 0 0 0 0 0 0 0 0 0 0 0 0 0 27 153 313 320 411
1227 1289 1008 879 780 576 405 112 123 183 202 194 222 231 137 81 1 0 0 0 0 0 0 0 0 0 0 0 0 0 0 0 0 0 0 0 0 0 0 0 85 282 215
1209 1320 1070 609 363 243 311 302 176 304 206 209 160 98 42 4 0 0 0 0 0 0 0 0 0 0 0 0 0 0 0 0 0 0 0 0 0 0 0 0 12 42 212
858 904 198 7 0 0 18 81 133 324 322 200 132 11 0 0 0 0 0 0 0 0 0 0 0 0 0 0 0 0 0 0 0 0 0 0 0 0 0 0 0 49 25
220 119 0 0 0 0 0 0 5 43 15 15 3 0 0 0 0 0 0 0 0 0 0 0 0 0 0 0 0 0 0 0 0 0 0 0 0 0 0 0 0 0 32
0 0 0 0 0 0 0 0 0 0 0 0 0 0 0 0 0 0 0 0 0 0 0 0 0 0 0 0 0 0 0 0 0 0 0 0 0 0 0 0 0 0 1
0 0 0 0 0 0 0 0 0 0 0 0 0 0 0 0 0 0 0 0 0 0 0 0 0 0 0 0 0 0 0 0 0 0 0 0 0 0 0 0 0 0 0
0 0 0 0 0 0 0 0 0 0 0 0 0 0 0 0 0 0 0 0 0 0 0 0 0 0 0 0 0 0 0 0 0 0 0 0 0 0 0 0 0 0 0
0 0 0 0 0 0 0 0 0 0 0 0 0 0 0 0 0 0 0 0 0 0 0 0 0 0 0 0 0 0 0 0 0 0 0 0 0 0 0 0 0 0 0
0 0 0 0 0 0 0 0 0 0 0 0 0 0 0 0 0 0 0 0 0 0 0 0 0 0 0 0 0 0 0 0 0 0 0 0 0 0 0 0 0 0 0
0 0 0 0 0 0 0 0 0 0 0 0 0 0 0 0 0 0 0 0 0 0 0 0 0 0 0 0 0 0 0 0 0 0 0 0 0 0 0 0 0 0 0
0 0 0 0 0 0 0 0 0 0 0 0 0 0 0 0 0 0 0 0 0 0 0 0 0 0 0 0 0 0 0 0 0 0 0 0 0 0 0 0 0 0 0
0 0 0 0 0 0 0 0 0 0 0 0 0 0 0 0 0 0 0 0 0 0 0 0 0 0 0 0 0 0 0 0 0 0 0 0 0 0 0 0 0 0 0
0 0 0 0 0 0 0 0 0 0 0 0 0 0 0 0 0 0 0 0 0 0 0 0 0 0 0 0 0 0 0 0 0 0 0 0 0 0 0 0 0 0 0
0 0 0 0 0 0 0 0 0 0 0 0 0 0 0 0 0 0 0 0 0 0 0 0 0 0 0 0 0 0 0 0 0 0 0 0 0 0 0 0 0 0 0

GFSSE_con_mlcape_015.txt.gz
CAPE
126 544 713 894 971 1138 1279 1270 1150 977 843 1007 1263 1247 1221 1330 1381 1207 1126 981 1030 1167 1108 993 1068 1171 965 783 351 769 1031 808 570 532 695 927 956 895 956 1214 1035 1070 734
183 616 768 978 977 1218 1344 1454 1360 1259 1191 993 1187 1243 1287 1395 1414 1246 1066 1153 1073 762 563 444 856 1079 1074 781 407 342 468 784 862 897 908 883 921 964 922 838 824 967 790
185 586 824 995 982 1096 1521 1743 1711 1546 1623 1507 1223 1147 1326 1323 1301 1304 886 683 529 805 1049 692 880 1261 996 960 841 849 683 656 656 800 1106 590 702 1234 936 725 833 878 803
191 516 833 895 998 1017 1082 1423 1722 1946 1977 1968 1785 1611 1389 1254 1275 1237 889 672 645 781 1014 1344 1372 1649 1185 759 658 337 596 684 663 859 1016 1001 782 1080 1303 780 863 1043 843
78 382 719 790 785 846 976 1135 1318 1557 1967 2166 2169 2134 1995 1782 1528 1328 1003 979 905 775 653 1062 1272 1303 1074 662 425 342 185 272 366 559 844 945 813 1003 1196 819 441 756 774
64 318 524 488 412 299 331 394 548 809 1181 1454 1745 1930 2063 2077 1963 1679 1496 1039 633 740 1077 1181 1189 1258 1027 897 577 192 186 362 325 363 381 454 825 846 854 884 612 319 409
43 240 422 289 267 300 268 277 362 414 490 624 775 945 1354 1392 1240 1020 668 586 879 825 1168 1081 562 507 287 350 290 161 82 96 241 260 236 437 442 400 906 783 573 683 403
7 92 251 306 351 316 328 321 378 474 531 528 602 813 1040 1067 1074 1003 951 956 999 1001 948 648 701 663 339 544 532 437 444 407 588 571 441 470 446 483 689 557 472 483 407
104 115 246 349 323 261 152 167 289 392 508 442 433 433 473 536 509 521 599 615 598 434 407 371 339 406 324 190 61 8 33 31 219 98 35 104 56 250 520 552 492 472 416
281 336 358 480 426 269 214 139 185 305 434 431 352 248 177 147 127 82 76 139 136 131 134 105 102 90 38 9 0 0 0 0 22 21 0 0 1 205 462 576 647 465 452
464 514 568 583 493 202 43 149 190 256 368 463 374 196 122 182 81 43 2 1 0 1 0 0 0 0 0 0 0 0 0 0 0 0 0 0 0 2 120 229 326 366 441
792 785 733 715 679 358 17 162 214 276 457 559 621 355 209 149 80 2 0 0 0 0 0 0 0 0 0 0 0 0 0 0 0 0 0 0 0 0 3 41 83 275 327
987 1023 883 869 820 544 329 161 202 263 351 361 409 382 268 192 102 40 0 0 0 0 0 0 0 0 0 0 0 0 0 0 0 0 0 0 0 0 0 0 48 62 199
1177 1280 1280 1013 825 735 601 505 263 323 391 430 377 246 242 125 29 0 0 0 0 0 0 0 0 0 0 0 0 0 0 0 0 0 0 0 0 0 0 0 0 19 48
1161 1361 1446 1141 619 227 29 174 255 298 465 529 399 295 180 67 0 0 0 0 0 0 0 0 0 0 0 0 0 0 0 0 0 0 0 0 0 0 0 0 0 0 0
800 1000 1045 463 7 0 0 5 69 185 359 307 255 252 111 28 0 0 0 0 0 0 0 0 0 0 0 0 0 0 0 0 0 0 0 0 0 0 0 0 0 0 1
205 307 488 1 0 0 0 0 0 0 0 0 0 9 15 1 0 0 0 0 0 0 0 0 0 0 0 0 0 0 0 0 0 0 0 0 0 0 0 0 0 0 0
0 0 4 0 0 0 0 0 0 0 0 0 0 0 0 0 0 0 0 0 0 0 0 0 0 0 0 0 0 0 0 0 0 0 0 0 0 0 0 0 0 0 0
0 0 0 0 0 0 0 0 0 0 0 0 0 0 0 0 0 0 0 0 0 0 0 0 0 0 0 0 0 0 0 0 0 0 0 0 0 0 0 0 0 0 0
0 0 0 0 0 0 0 0 0 0 0 0 0 0 0 0 0 0 0 0 0 0 0 0 0 0 0 0 0 0 0 0 0 0 0 0 0 0 0 0 0 0 0
0 0 0 0 0 0 0 0 0 0 0 0 0 0 0 0 0 0 0 0 0 0 0 0 0 0 0 0 0 0 0 0 0 0 0 0 0 0 0 0 0 0 0
0 0 0 0 0 0 0 0 0 0 0 0 0 0 0 0 0 0 0 0 0 0 0 0 0 0 0 0 0 0 0 0 0 0 0 0 0 0 0 0 0 0 0
0 0 0 0 0 0 0 0 0 0 0 0 0 0 0 0 0 0 0 0 0 0 0 0 0 0 0 0 0 0 0 0 0 0 0 0 0 0 0 0 0 0 0
0 0 0 0 0 0 0 0 0 0 0 0 0 0 0 0 0 0 0 0 0 0 0 0 0 0 0 0 0 0 0 0 0 0 0 0 0 0 0 0 0 0 0
0 0 0 0 0 0 0 0 0 0 0 0 0 0 0 0 0 0 0 0 0 0 0 0 0 0 0 0 0 0 0 0 0 0 0 0 0 0 0 0 0 0 0
0 0 0 0 0 0 0 0 0 0 0 0 0 0 0 0 0 0 0 0 0 0 0 0 1 3 4 1 2 2 1 0 0 1 0 0 0 0 0 0 0 0 0

GFSSE_con_mlcape_018.txt.gz
CAPE
221 615 596 695 837 951 1086 959 821 729 1008 1243 1245 1117 1082 1110 1191 1203 1099 1153 1288 1266 1171 1084 1090 1060 946 873 473 915 1245 1146 1000 806 910 1175 1288 1280 1312 1152 1053 1034 932
303 694 622 737 906 1108 1223 1173 1065 946 984 1205 1321 1397 1442 1489 1413 1257 1282 1114 906 828 770 623 991 1357 1443 1131 1027 871 751 893 958 963 941 878 487 1278 1219 978 783 1122 979
230 671 885 896 958 1359 1532 1483 1416 1449 1338 1159 1204 1370 1370 1504 1412 1175 874 722 684 883 972 1129 1073 1605 1343 1132 779 856 888 810 786 797 438 822 642 1032 1344 999 849 1041 1015
271 585 862 887 892 975 1345 1575 1789 1928 1763 1714 1577 1402 1416 1454 1401 1223 878 664 704 807 1132 1418 1574 1578 1319 843 706 474 545 660 649 601 1100 977 738 886 1386 1276 1168 1169 1030
271 549 773 740 737 736 861 991 1133 1400 1650 1729 1829 1683 1503 1401 1256 1135 1150 1056 917 881 983 1326 1545 1362 1022 780 468 429 453 337 378 520 946 1048 1091 976 1057 1254 910 707 703
81 246 396 455 249 170 169 254 519 886 1116 1318 1469 1667 1894 1837 1619 1375 1287 977 757 881 1019 1206 1043 896 757 893 659 300 236 363 246 743 657 791 773 1014 728 884 652 499 537
51 199 221 187 170 150 200 329 405 441 456 581 746 994 1155 1146 1052 856 591 497 680 792 1116 821 568 353 193 222 320 339 311 183 444 951 913 858 978 678 702 565 703 572 747
46 238 163 91 129 138 188 250 288 320 313 380 482 632 710 727 707 734 853 899 885 788 712 547 618 608 605 553 422 324 365 387 742 989 907 906 583 424 659 640 607 518 630
62 153 359 406 275 80 91 125 259 358 311 285 268 271 297 278 301 346 423 430 322 256 264 252 218 211 168 72 7 4 18 52 754 712 517 555 156 541 735 398 493 478 525
272 340 629 717 649 585 457 9 118 237 292 265 203 127 85 79 52 6 48 52 56 47 31 12 0 5 2 0 0 0 0 0 400 559 535 200 1 232 464 446 552 424 380
599 851 941 928 923 686 361 317 76 111 234 293 342 90 233 435 400 257 0 0 0 0 0 0 0 0 0 0 0 0 0 25 63 82 87 0 0 34 120 199 257 454 390
864 1095 1232 1345 1280 933 142 500 534 490 541 738 863 847 453 646 537 87 4 0 0 0 0 0 0 0 0 0 0 0 0 0 0 2 7 0 0 0 51 87 103 176 405
893 1067 1369 1594 1628 1245 498 307 186 183 373 568 996 1003 785 723 519 419 216 8 0 0 0 0 0 0 0 0 0 0 0 0 0 0 0 0 0 0 0 0 3 118 147
595 1205 1611 1708 1712 1548 670 339 218 206 273 403 521 1056 716 414 348 306 0 0 0 0 0 0 0 0 0 0 0 0 0 0 0 0 0 0 0 0 0 0 0 0 47
836 1274 1804 2001 1876 1130 743 339 446 461 299 498 375 310 580 234 82 24 0 0 0 0 0 0 0 0 0 0 0 0 0 0 0 0 0 0 0 0 0 0 0 0 0
948 1361 1935 2140 1799 541 134 320 203 273 201 233 62 33 340 270 20 0 0 0 0 0 0 0 0 0 0 0 0 0 0 0 0 0 0 0 0 0 0 0 0 0 0
746 1083 1686 1890 904 217 121 31 2 1 16 0 0 20 53 85 25 11 0 0 0 0 0 0 0 0 0 0 0 0 0 0 0 0 0 0 0 0 0 0 0 0 0
251 500 1030 917 290 184 36 4 0 0 0 0 0 0 0 0 0 0 0 0 0 0 0 0 0 0 0 0 0 0 0 0 0 0 0 0 0 0 0 0 0 0 0
11 68 438 632 175 60 20 3 7 9 7 0 0 0 0 0 0 0 0 0 0 0 0 0 0 0 0 0 0 0 0 0 0 0 0 0 0 0 0 0 0 0 0
0 38 315 277 54 18 0 0 0 0 0 0 0 0 0 0 0 0 0 0 0 2 0 0 0 0 0 0 0 0 0 0 0 0 0 0 0 0 0 0 0 0 0
0 10 14 4 0 0 0 0 0 0 0 0 0 0 0 0 0 0 0 0 0 0 0 0 0 0 0 0 0 0 0 0 0 0 0 0 0 0 0 0 0 0 0
0 0 0 0 0 0 0 0 0 0 0 0 0 0 0 0 0 0 0 0 0 0 0 0 0 0 0 0 0 0 0 0 0 0 0 0 0 0 0 0 0 0 0
0 0 0 0 0 0 0 0 0 0 0 0 0 0 0 0 0 0 0 0 0 0 0 0 0 0 0 0 5 2 0 7 26 22 0 0 0 0 0 0 0 0 0
0 0 0 0 0 0 0 0 0 0 0 0 0 0 0 0 0 0 0 0 0 0 0 0 0 0 3 5 13 13 7 0 2 14 1 0 0 0 0 0 0 0 0
0 0 0 0 0 0 0 0 0 0 0 0 0 0 0 0 0 0 0 0 0 0 0 0 0 0 2 4 4 2 0 0 4 4 1 2 0 0 0 0 0 0 0
0 0 0 0 0 0 0 0 0 0 0 0 0 0 0 0 0 0 0 0 0 0 1 3 1 0 1 0 1 3 3 3 0 0 0 0 0 0 0 1 0 0 0

GFSSE_con_mlcape_021.txt.gz
CAPE
447 511 520 681 788 868 951 792 700 753 1033 1152 1085 1043 1123 1215 1193 1200 1242 1270 1264 1126 897 959 1103 1329 1494 1185 933 937 1245 1211 1030 793 784 758 789 995 1265 1144 1267 1112 931
506 658 615 788 1000 1096 1065 991 923 887 1068 1185 1247 1297 1372 1324 1346 1349 1056 849 975 1070 1084 942 1245 1603 1444 1286 1002 856 773 787 814 703 394 415 938 825 871 817 931 1086 914
556 625 747 735 1074 1234 1291 1363 1388 1391 1280 1209 1311 1287 1420 1382 1262 1058 888 773 890 981 1139 1381 1544 1755 1271 1036 784 870 853 753 726 598 281 204 980 1127 776 731 1063 1269 1155
426 653 810 646 811 1143 1301 1462 1643 1615 1459 1406 1297 1306 1446 1477 1276 1048 830 739 789 821 965 1338 1489 1406 1129 829 694 616 520 622 607 582 566 1363 907 872 986 1144 914 1192 1237
312 543 594 572 558 651 803 969 1150 1454 1559 1590 1545 1558 1395 1350 1303 1242 1166 1037 891 1004 1274 1350 1285 1304 967 820 614 398 492 509 365 434 870 1175 1342 986 954 1290 890 478 600
172 290 333 182 56 98 168 309 492 665 965 1250 1501 1740 1756 1671 1484 1281 1148 882 908 1035 1281 977 772 549 495 656 566 467 268 232 308 735 999 882 838 1110 991 1078 926 739 692
0 21 35 0 34 151 223 253 260 294 399 517 818 1007 1087 1084 924 730 544 542 706 982 938 740 593 334 228 295 309 331 392 377 360 728 972 866 840 939 881 841 962 769 633
9 22 7 0 50 90 127 178 193 215 271 402 580 694 677 575 564 620 657 677 558 483 377 374 465 467 416 325 238 215 238 263 590 923 958 863 640 569 744 792 638 686 629
1 48 82 156 125 0 4 44 121 162 152 137 122 160 147 131 137 173 183 173 140 114 97 85 71 72 54 12 2 2 4 48 269 329 385 536 329 557 1010 863 678 584 573
8 214 288 320 255 363 352 1 29 126 143 115 59 20 11 101 72 7 176 13 0 0 0 0 0 0 0 0 0 0 0 0 144 171 422 174 33 137 441 591 611 468 174
227 478 440 334 251 117 39 52 56 68 97 317 316 120 266 465 337 265 1 0 0 0 0 0 0 0 0 0 0 0 0 0 0 2 63 1 0 13 246 243 211 339 335
354 374 628 927 519 154 0 94 125 56 342 353 473 506 346 410 413 63 16 0 0 0 0 0 0 0 0 0 0 0 0 0 0 0 17 0 0 0 17 85 121 154 293
280 307 582 1479 1060 516 102 4 41 47 93 275 534 560 304 368 390 212 123 112 99 2 3 0 0 0 0 0 0 0 0 0 0 0 0 0 0 0 0 0 0 37 159
130 161 596 1675 1479 731 192 58 23 32 136 165 359 340 166 114 83 31 1 0 0 1 0 0 0 0 1 0 0 0 0 0 0 0 0 0 0 0 0 0 0 0 20
118 201 516 1407 2128 868 485 92 83 104 155 278 195 73 75 24 0 0 0 0 0 0 0 0 0 0 0 0 0 0 0 0 0 0 0 0 0 0 0 0 0 0 0
199 310 570 1239 2182 1134 76 157 52 140 108 92 7 0 12 45 42 12 6 1 0 0 0 0 0 0 0 0 0 0 0 0 0 0 0 0 0 0 0 0 0 0 0
198 331 726 1359 1915 1107 154 86 1 0 1 0 0 1 10 23 8 17 1 0 0 0 0 0 0 1 2 1 0 0 0 0 0 0 0 0 0 0 0 0 0 0 0
201 258 523 1274 1680 928 118 31 1 0 0 0 1 3 0 0 0 0 0 0 0 0 0 0 0 0 1 3 2 0 0 0 0 0 0 0 0 0 0 0 0 0 0
21 101 411 1171 1228 617 122 44 25 18 1 6 11 0 0 0 0 0 0 2 6 1 11 9 0 0 0 0 1 3 0 0 0 0 0 0 0 0 0 0 0 0 0
11 87 353 955 874 301 88 27 0 0 0 0 0 0 0 0 0 0 0 0 0 0 0 0 0 0 6 2 0 1 0 0 0 0 0 0 0 0 0 0 0 0 0
38 190 403 384 50 13 1 0 0 0 0 0 0 0 0 0 0 0 0 0 0 0 0 0 0 0 0 36 46 31 15 0 0 0 0 0 0 0 0 0 0 0 0
0 0 0 0 0 0 0 0 0 0 0 0 0 0 0 0 0 0 0 0 0 0 0 0 0 0 0 14 53 80 24 2 15 26 4 0 0 0 0 0 0 0 0
0 0 0 0 0 0 0 0 0 0 0 0 0 0 0 0 0 0 0 0 0 0 0 0 0 0 0 0 12 61 30 15 57 38 110 59 32 32 0 0 0 0 0
0 0 0 0 0 0 0 0 0 0 0 0 0 0 0 0 0 0 0 0 0 0 0 0 0 0 1 1 2 9 42 51 21 16 25 73 40 19 30 17 6 0 0
0 0 0 0 0 0 0 0 0 0 0 0 0 0 0 0 0 0 0 0 0 0 0 2 8 2 0 0 0 0 0 0 7 0 0 27 53 22 13 6 4 0 2
0 0 0 0 0 0 0 0 0 0 0 0 0 0 0 0 0 0 0 0 0 2 10 2 0 1 2 0 0 1 2 1 2 1 1 0 0 0 0 0 0 0 0

GFSSE_con_mlcape_024.txt.gz
CAPE
428 443 523 670 834 810 689 628 672 894 1011 1068 1004 1085 1174 1249 1181 1172 1140 1094 957 904 870 975 1322 1525 1308 1126 892 723 796 926 859 655 392 277 727 758 621 725 994 876 892
527 550 648 770 917 911 836 868 835 868 1009 1048 1112 1205 1143 1215 1119 984 898 1027 1140 1173 1333 1318 1489 1450 1276 834 725 757 693 567 491 393 253 168 1005 669 637 453 1072 1053 996
544 575 692 887 999 1031 1080 1144 1184 1091 1009 1074 1195 1343 1318 1198 1041 931 895 936 954 1011 1225 1495 1553 1510 1081 828 662 514 533 547 443 332 240 149 917 505 410 683 1042 1293 1101
716 583 559 748 950 1066 1179 1313 1382 1385 1384 1203 1114 1297 1317 1182 1036 886 791 733 796 955 1077 1369 1508 1183 873 668 525 493 473 358 299 311 249 522 1111 688 206 515 821 1075 1045
525 466 380 410 517 611 704 836 1041 1171 1226 1300 1401 1328 1282 1258 1241 1196 1007 916 955 1084 1165 1141 945 862 744 675 566 433 278 270 344 304 337 784 958 520 491 814 1210 800 592
261 210 40 1 11 20 86 293 536 722 899 1089 1311 1533 1526 1429 1216 982 760 700 726 972 952 757 387 177 141 175 243 315 323 302 198 187 451 785 585 576 681 802 896 869 825
12 0 0 0 0 40 77 128 134 160 281 444 571 700 752 669 622 523 523 675 769 729 534 361 303 258 274 258 231 193 176 151 161 415 747 912 649 0 315 901 768 821 676
0 0 0 0 0 4 37 63 76 80 107 198 282 295 284 280 296 290 292 225 182 150 120 126 135 115 86 44 16 7 7 14 55 393 746 737 695 679 734 870 788 631 629
0 0 20 0 0 0 8 23 30 31 21 29 36 38 39 33 42 72 93 50 8 1 0 0 0 0 0 0 0 0 0 0 0 41 372 346 438 473 575 792 772 785 578
0 61 152 259 286 169 6 0 3 3 3 5 0 0 34 52 27 85 136 0 0 0 0 0 0 0 0 0 0 0 0 0 0 34 226 134 176 206 253 362 465 502 523
61 266 185 92 73 491 106 2 16 4 134 182 176 87 110 346 244 275 0 0 0 0 0 0 0 0 0 0 0 0 0 0 0 0 7 13 0 2 61 191 167 152 313
203 286 465 209 62 7 1 82 419 269 465 530 536 438 461 247 318 92 66 0 0 0 0 0 0 0 0 0 0 0 0 0 0 0 0 0 0 0 0 12 40 56 78
157 106 684 801 384 455 40 1 165 215 226 585 708 336 401 199 295 184 146 79 0 0 6 0 0 0 6 0 0 0 0 0 0 0 0 0 0 0 0 0 0 0 47
197 240 1112 1210 891 401 320 108 26 144 153 336 205 285 101 97 69 0 0 0 0 0 0 0 0 0 0 0 0 0 0 0 0 0 0 0 0 0 0 0 0 0 0
119 161 502 1248 1743 881 289 191 123 103 314 166 190 115 71 60 10 4 0 0 0 0 0 0 0 0 0 0 0 0 0 0 0 0 0 0 0 0 0 0 0 0 0
85 202 635 1052 1919 1360 353 190 86 217 250 209 25 2 22 41 60 22 1 0 0 0 0 0 0 0 0 0 0 0 0 0 0 0 0 0 0 0 0 0 0 0 0
121 303 477 412 1595 1481 358 135 33 62 5 4 3 0 9 6 3 0 0 0 6 12 4 0 0 0 0 0 0 1 0 0 0 0 0 0 0 0 0 0 0 0 0
158 208 147 855 1671 1649 582 123 12 15 4 0 0 4 0 0 16 8 32 23 28 31 18 27 14 2 0 0 0 0 0 0 0 0 0 0 0 0 0 0 0 0 0
84 85 138 769 1425 1286 580 148 39 33 19 10 23 7 1 0 1 0 0 1 8 4 15 26 25 15 8 0 0 0 1 10 1 0 0 0 0 0 0 0 0 0 0
29 97 246 916 799 375 162 61 10 2 1 0 0 0 0 0 0 0 0 0 0 0 0 0 0 0 0 0 4 0 1 1 0 0 0 0 0 0 0 0 0 0 0
110 204 185 84 11 0 0 0 0 0 0 0 0 0 0 0 0 0 0 0 0 0 0 0 0 0 0 0 0 0 0 19 41 23 0 0 0 0 0 0 0 0 0
0 0 0 0 0 0 0 0 0 0 0 0 0 0 0 0 0 0 0 0 0 0 0 0 0 0 0 0 5 4 1 0 0 5 21 8 4 1 0 0 0 0 0
0 0 0 0 0 0 0 0 0 0 0 0 0 0 0 0 0 0 0 0 0 0 0 0 0 0 0 0 1 15 14 1 0 0 0 6 27 38 29 1 0 0 0
0 0 0 0 0 0 0 0 0 0 0 0 0 0 0 0 0 0 0 0 0 0 0 0 6 0 0 0 0 0 0 0 2 0 0 0 0 0 0 0 0 0 1
0 0 0 0 0 0 0 0 0 0 0 0 0 0 0 0 0 0 0 0 0 0 0 4 0 0 0 0 0 0 0 0 0 0 0 0 0 0 0 0 0 0 0
0 0 0 0 0 0 0 0 0 0 0 0 0 0 0 0 0 0 0 0 0 2 3 0 0 0 0 0 0 0 0 0 0 0 0 0 1 0 0 0 0 0 0

GFSSE_con_mlcape_027.txt.gz
CAPE
270 496 571 632 601 485 492 597 679 763 814 823 927 1105 1039 960 914 940 899 928 1086 1126 1190 1398 1533 1443 1131 920 780 673 515 522 462 370 465 894 1070 918 805 1373 1259 1132 1034
402 528 592 718 690 693 713 672 736 809 882 984 949 1033 968 879 781 735 817 807 860 1030 1267 1269 1291 1276 1133 873 690 671 629 492 281 184 153 83 1003 664 686 972 952 1138 983
413 613 716 783 875 940 995 941 855 805 891 1047 1083 1077 988 909 816 844 770 751 761 900 1078 1370 1500 1312 978 685 561 549 499 393 325 292 288 196 712 715 316 446 734 950 1015
394 574 722 795 860 969 1051 1073 1094 1076 959 988 1054 1006 938 882 841 750 632 606 824 1067 1145 1141 1083 966 797 677 557 430 307 232 256 292 135 270 980 572 177 449 591 1024 1016
246 325 424 476 530 617 762 829 900 976 1090 1111 1108 1081 1056 1100 1096 857 752 713 742 916 718 628 343 201 164 208 219 255 271 268 225 92 60 632 963 163 46 390 435 552 834
74 52 4 2 20 112 216 349 488 648 812 984 1121 1153 1136 966 763 472 355 419 587 635 531 286 91 26 33 65 88 81 69 54 62 76 262 635 781 715 762 829 746 671 828
0 0 0 0 5 10 2 4 14 54 132 216 311 408 446 389 349 373 429 466 405 186 121 106 86 57 20 5 0 0 0 0 2 20 226 650 370 79 291 759 673 683 646
0 0 0 0 0 0 0 0 0 10 40 101 110 99 74 46 73 103 82 36 10 0 0 0 0 0 0 0 0 0 0 0 0 0 482 582 533 529 570 479 415 523 558
0 0 0 0 0 0 0 0 0 0 0 0 0 0 1 35 38 17 0 0 0 0 0 0 0 0 0 0 0 0 0 0 0 0 28 338 584 673 633 471 619 720 672
0 0 0 0 0 0 0 0 0 0 0 0 0 0 12 21 51 55 0 0 0 0 0 0 0 0 0 0 0 0 0 0 0 0 0 92 214 307 226 170 238 362 448
0 11 59 31 8 0 0 0 0 7 15 31 20 25 75 97 98 137 44 0 0 0 0 0 0 0 0 0 0 0 0 0 0 0 0 9 50 15 7 7 22 38 136
119 114 93 81 127 15 0 2 0 64 192 175 219 168 132 191 166 169 25 30 0 0 0 0 0 0 0 0 0 0 0 0 0 0 0 0 0 0 0 0 0 8 36
159 267 126 5 5 49 48 22 84 88 261 348 302 93 48 136 137 43 36 3 0 0 0 0 0 0 0 0 0 0 0 0 0 0 0 0 0 0 0 0 0 0 0
183 404 281 4 68 37 0 0 0 151 239 433 224 50 13 43 0 0 0 0 0 0 0 0 0 0 0 0 0 0 0 0 0 0 0 0 0 0 0 0 0 0 0
170 507 513 277 19 27 0 0 10 77 84 53 75 18 3 28 0 0 0 0 0 0 0 0 0 0 0 0 0 0 0 0 0 0 0 0 0 0 0 0 0 0 0
156 578 856 937 791 678 175 40 60 77 74 64 12 0 0 4 17 10 0 0 0 0 0 0 0 0 0 0 0 0 0 0 0 0 0 0 0 0 0 0 0 0 0
34 467 1107 1187 616 687 190 80 18 153 3 2 0 0 0 0 0 0 0 3 0 4 3 0 0 0 0 0 0 0 0 0 0 0 0 0 0 0 0 0 0 0 0
235 267 1038 896 119 316 120 42 3 2 0 0 0 0 0 0 0 0 0 0 0 0 0 0 0 0 0 0 0 0 0 0 0 0 0 0 0 0 0 0 0 0 0
7 27 212 499 815 483 84 32 0 0 0 0 0 0 0 0 0 0 0 0 0 0 0 0 0 0 0 0 0 0 0 0 0 0 0 0 0 0 0 0 0 0 0
58 104 18 0 12 49 1 2 0 0 0 0 0 0 0 0 0 0 0 0 0 0 0 0 0 0 0 0 0 0 0 0 0 0 0 0 0 0 0 0 0 0 0
0 0 0 0 0 0 0 0 0 0 0 0 0 0 0 0 0 0 0 0 0 0 0 0 0 0 0 0 0 0 0 0 0 0 0 0 0 0 0 0 0 0 0
0 0 0 0 0 0 0 0 0 0 0 0 0 0 0 0 0 0 0 0 0 0 0 0 0 0 0 0 0 0 0 0 0 0 0 0 0 0 0 0 0 0 0
0 0 0 0 0 0 0 0 0 0 0 0 0 0 0 0 0 0 0 0 0 0 0 0 0 0 0 0 0 0 0 0 0 0 0 0 0 0 0 0 0 0 0
0 0 0 0 0 0 0 0 0 0 0 0 0 0 0 0 0 0 0 0 0 0 0 0 0 0 0 0 0 0 0 0 0 0 0 0 0 0 0 0 0 0 2
0 0 0 0 0 0 0 0 0 0 0 0 0 0 0 0 0 0 0 0 0 0 0 0 0 0 0 0 0 0 0 0 0 0 0 0 0 0 0 0 0 0 0
0 0 0 0 0 0 0 0 0 0 0 0 0 0 0 0 0 0 0 0 0 0 0 1 1 0 0 0 0 0 0 1 0 0 0 0 0 0 0 0 0 0 0

GFSSE_con_mlcape_030.txt.gz
CAPE
353 621 492 364 367 440 505 580 644 647 712 853 840 815 785 809 775 794 831 949 1037 1110 1153 1186 1070 1057 930 797 768 727 612 460 365 510 453 614 1233 604 995 1327 1532 1128 1004
464 625 498 487 480 476 542 589 662 732 791 894 853 787 739 691 741 777 782 753 903 1088 1181 1221 1232 1093 919 715 635 559 497 400 284 255 228 376 1362 641 259 716 967 1008 918
494 652 636 690 740 680 636 665 761 901 929 946 912 873 779 757 731 622 556 601 849 983 1339 1285 1119 906 670 514 419 347 325 311 258 247 176 261 981 625 436 763 893 859 1072
538 646 696 795 876 893 878 836 783 906 967 970 910 831 773 733 619 561 581 746 834 835 880 775 639 457 355 351 279 261 243 221 158 121 82 412 970 502 188 308 406 549 711
449 575 643 709 807 804 785 795 856 825 832 880 876 800 873 803 685 594 402 421 553 524 493 229 69 17 8 13 21 16 12 12 18 21 78 704 836 700 391 231 271 360 578
268 304 324 338 378 405 468 613 718 840 860 935 965 980 826 596 270 186 203 357 365 209 56 5 0 0 0 0 0 0 0 0 0 0 38 500 740 133 551 575 592 677 508
0 0 0 0 0 0 56 132 242 362 399 446 396 337 269 196 123 68 32 9 0 0 0 0 0 0 0 0 0 0 0 0 0 0 201 437 665 914 484 773 741 645 590
0 0 0 0 0 0 0 0 3 9 34 48 51 34 24 1 0 0 0 0 0 0 0 0 0 0 0 0 0 0 0 0 0 0 31 388 337 386 793 701 538 588 537
0 0 0 0 0 0 0 0 0 0 0 0 0 7 0 6 0 0 0 0 0 0 0 0 0 0 0 0 0 0 0 0 0 0 0 78 553 609 400 435 520 409 603
0 0 0 0 0 0 0 0 0 0 0 0 0 9 12 18 16 0 0 0 0 0 0 0 0 0 0 0 0 0 0 0 0 0 0 20 348 443 478 286 248 313 335
0 0 0 0 0 0 0 0 0 0 0 0 28 45 50 45 61 71 3 0 0 0 0 0 0 0 0 0 0 0 0 0 0 0 0 0 65 350 316 98 5 8 49
0 0 0 0 0 0 0 0 7 57 43 42 70 85 87 118 75 133 81 1 0 0 0 0 0 0 0 0 0 0 0 0 0 0 0 0 0 18 7 0 0 0 0
16 23 23 11 0 0 5 0 0 108 191 182 177 196 144 195 221 128 2 0 0 0 0 0 0 0 0 0 0 0 0 0 0 0 0 0 0 0 0 0 0 0 0
105 88 18 6 90 38 12 12 70 76 243 345 271 116 5 114 0 0 0 0 0 0 0 0 0 0 0 0 0 0 0 0 0 0 0 0 0 0 0 0 0 0 0
163 78 0 0 18 0 1 0 24 172 264 445 121 0 2 0 0 0 0 0 0 0 0 0 0 0 0 0 0 0 0 0 0 0 0 0 0 0 0 0 0 0 0
246 251 84 10 27 7 13 1 0 26 161 75 74 12 0 8 0 0 0 0 0 0 0 0 0 0 0 0 0 0 0 0 0 0 0 0 0 0 0 0 0 0 0
247 517 410 360 559 447 300 31 2 59 30 81 46 5 0 0 0 0 0 0 0 0 0 0 0 0 0 0 0 0 0 0 0 0 0 0 0 0 0 0 0 0 0
364 732 724 430 118 76 217 154 18 2 0 1 0 0 0 0 0 0 0 0 0 0 0 0 0 0 0 0 0 0 0 0 0 0 0 0 0 0 0 0 0 0 0
409 918 721 403 213 0 191 154 0 0 0 0 0 0 0 0 0 0 0 0 0 0 0 0 0 0 0 0 0 0 0 0 0 0 0 0 0 0 0 0 0 0 0
44 255 205 384 106 57 39 0 0 0 0 0 0 0 0 0 0 0 0 0 0 0 0 0 0 0 0 0 0 0 0 0 0 0 0 0 0 0 0 0 0 0 0
0 0 0 0 0 0 0 0 0 0 0 0 0 0 0 0 0 0 0 0 0 0 0 0 0 0 0 0 0 0 0 0 0 0 0 0 0 0 0 0 0 0 0
0 0 0 0 0 0 0 0 0 0 0 0 0 0 0 0 0 0 0 0 0 0 0 0 0 0 0 0 0 0 0 0 0 0 0 0 0 0 0 0 0 0 0
0 0 0 0 0 0 0 0 0 0 0 0 0 0 0 0 0 0 0 0 0 0 0 0 0 0 0 0 0 0 0 0 0 0 0 0 0 0 0 0 0 0 0
0 0 0 0 0 0 0 0 0 0 0 0 0 0 0 0 0 0 0 0 0 0 0 0 0 0 2 1 0 1 0 0 0 0 0 0 0 0 0 0 0 0 0
0 0 0 0 0 0 0 0 0 0 0 0 0 0 0 0 0 0 0 0 0 0 0 0 0 0 0 0 0 0 0 0 0 0 0 0 0 0 0 0 0 0 0
0 0 0 0 0 0 0 0 0 0 0 0 0 0 0 0 0 0 0 0 0 0 0 0 0 0 0 0 0 0 0 0 0 1 1 0 0 0 0 0 0 0 0

GFSSE_con_mlcape_033.txt.gz
CAPE
380 444 308 302 335 384 439 464 453 527 661 694 653 649 602 585 584 632 706 824 969 993 1031 975 903 823 739 626 557 514 461 393 306 283 409 558 1211 368 912 1582 1686 1238 877
443 433 319 347 388 460 538 555 620 773 793 715 652 635 597 606 602 593 561 629 827 1003 1113 1100 978 739 471 312 290 268 299 254 252 318 421 307 1173 638 437 674 1195 1179 1027
521 434 415 411 483 560 640 707 721 794 804 761 710 641 668 614 536 453 505 724 961 1055 840 766 710 561 330 200 195 202 229 198 146 128 70 376 772 698 510 215 374 978 1242
529 566 625 597 595 579 633 763 838 892 891 824 758 720 676 594 561 580 605 568 444 586 578 325 117 12 0 0 0 0 7 9 30 46 16 365 779 690 269 413 277 360 578
565 666 755 731 725 691 658 684 792 794 784 783 765 788 752 660 509 230 146 221 251 186 63 8 0 0 0 0 0 0 0 0 0 0 15 335 643 688 652 221 194 313 428
452 564 665 674 632 594 640 654 656 705 731 753 805 782 635 284 62 38 68 57 1 0 0 0 0 0 0 0 0 0 0 0 0 0 14 139 580 355 182 391 430 531 568
314 334 330 305 347 432 543 614 626 623 651 652 516 286 39 25 20 27 9 0 0 0 0 0 0 0 0 0 0 0 0 0 0 0 0 149 492 657 611 495 597 607 627
0 0 0 12 37 62 74 94 147 181 173 85 22 2 5 11 0 0 0 0 0 0 0 0 0 0 0 0 0 0 0 0 0 0 0 0 262 269 508 437 317 445 482
0 0 0 0 0 0 0 0 0 0 0 0 0 0 10 0 0 0 0 0 0 0 0 0 0 0 0 0 0 0 0 0 0 0 0 0 33 231 240 164 101 105 304
0 0 0 0 0 0 0 0 0 0 0 0 0 0 0 0 13 0 0 0 0 0 0 0 0 0 0 0 0 0 0 0 0 0 0 0 0 147 192 10 0 27 129
0 0 0 0 0 0 0 0 0 0 0 0 0 15 19 31 59 74 5 0 0 0 0 0 0 0 0 0 0 0 0 0 0 0 0 0 0 6 380 214 39 0 0
0 0 0 0 0 0 0 0 0 0 0 0 28 55 51 74 48 127 96 53 11 0 0 0 0 0 0 0 0 0 0 0 0 0 0 0 0 0 33 3 0 0 0
0 0 0 0 0 0 0 0 0 23 25 42 95 58 71 113 127 94 75 0 0 0 0 0 0 0 0 0 0 0 0 0 0 0 0 0 0 0 0 0 0 0 0
0 0 0 0 0 0 0 0 30 70 141 170 166 182 91 67 71 5 0 0 0 0 0 0 0 0 0 0 0 0 0 0 0 0 0 0 0 0 0 0 0 0 0
20 6 0 3 10 0 11 15 21 55 198 307 315 75 0 4 0 0 0 0 0 0 0 0 0 0 0 0 0 0 0 0 0 0 0 0 0 0 0 0 0 0 0
21 68 0 17 83 20 0 12 52 100 173 221 279 21 0 0 0 0 0 0 0 0 0 0 0 0 0 0 0 0 0 0 0 0 0 0 0 0 0 0 0 0 0
113 93 6 39 2 4 0 0 0 0 51 212 89 0 0 0 0 0 0 0 0 0 0 0 0 0 0 0 0 0 0 0 0 0 0 0 0 0 0 0 0 0 0
168 142 8 134 0 10 83 2 0 0 0 0 1 0 0 0 0 0 0 0 0 0 0 0 0 0 0 0 0 0 0 0 0 0 0 0 0 0 0 0 0 0 0
260 256 25 4 0 0 2 0 0 0 0 0 0 0 0 0 0 0 0 0 0 0 0 0 0 0 0 0 0 0 0 0 0 0 0 0 0 0 0 0 0 0 0
126 125 3 0 0 0 0 0 0 0 0 0 0 0 0 0 0 0 0 0 0 0 0 0 0 0 0 0 0 0 0 0 0 0 0 0 0 0 0 0 0 0 0
0 0 0 0 0 0 0 0 0 0 0 0 0 0 0 0 0 0 0 0 0 0 0 0 0 0 0 0 0 0 0 0 0 0 0 0 0 0 0 0 0 0 0
0 0 0 0 0 0 0 0 0 0 0 0 0 0 0 0 0 0 0 0 0 0 0 0 0 0 0 0 0 0 0 0 0 0 0 0 0 0 0 0 0 0 0
0 0 0 0 0 0 0 0 0 0 0 0 0 0 0 0 0 0 0 0 0 0 0 0 0 0 0 0 0 0 0 0 0 0 0 0 0 0 0 0 0 0 0
0 0 0 0 0 0 0 0 0 0 0 0 0 0 0 0 0 0 0 0 0 0 0 0 0 0 0 0 0 0 0 0 0 0 0 0 0 0 0 0 0 0 0
0 0 0 0 0 0 0 0 0 0 0 0 0 0 0 0 0 0 0 0 0 0 0 0 0 0 0 0 0 0 0 0 0 0 1 0 0 0 0 0 0 0 0
0 0 0 0 0 0 0 0 0 0 0 0 0 0 0 0 0 0 0 0 0 0 0 0 0 0 0 0 0 0 0 0 0 0 3 0 1 0 0 0 0 0 0

GFSSE_con_mlcape_036.txt.gz
CAPE
253 277 302 350 423 424 338 325 420 504 531 549 537 538 529 513 514 517 604 793 835 849 846 822 788 656 543 450 369 300 281 182 167 263 324 383 1101 587 972 1161 1168 1062 1016
328 296 292 360 461 477 461 506 622 591 573 562 499 482 451 457 438 423 499 608 823 810 581 613 508 377 281 188 144 144 171 116 106 141 105 219 922 646 592 724 1055 1034 1021
370 310 361 417 516 553 607 695 727 704 623 572 522 539 506 452 398 440 592 759 687 503 486 302 104 31 3 0 0 7 20 12 23 28 32 181 511 713 482 316 479 827 969
395 401 412 503 572 680 725 715 764 738 705 650 631 582 484 456 495 524 366 218 409 368 169 31 3 0 0 0 0 0 0 0 0 0 0 90 433 723 530 355 260 465 762
473 542 560 545 561 674 734 756 792 752 699 640 610 588 554 474 245 79 83 147 111 28 20 1 0 0 0 0 0 0 0 0 0 0 0 24 385 509 960 371 165 253 374
504 626 664 596 546 554 640 723 673 637 589 559 629 520 369 116 41 42 41 6 0 0 0 0 0 0 0 0 0 0 0 0 0 0 0 58 235 650 662 841 628 558 477
494 597 612 583 563 559 546 535 560 543 504 562 428 246 68 29 11 0 0 0 0 0 0 0 0 0 0 0 0 0 0 0 0 0 0 0 77 419 517 514 286 357 422
450 449 436 394 397 446 526 482 427 407 393 337 83 32 4 0 0 0 0 0 0 0 0 0 0 0 0 0 0 0 0 0 0 0 0 0 0 269 409 133 170 109 146
107 61 80 103 117 169 164 120 156 165 89 39 7 0 0 0 0 0 0 0 0 0 0 0 0 0 0 0 0 0 0 0 0 0 0 0 0 15 210 106 87 43 32
0 0 0 0 0 0 0 0 0 0 0 0 0 4 0 0 0 0 0 0 0 0 0 0 0 0 0 0 0 0 0 0 0 0 0 0 0 0 29 310 32 0 0
0 0 0 0 0 0 0 0 0 0 0 0 15 5 7 0 0 2 0 0 0 0 0 0 0 0 0 0 0 0 0 0 0 0 0 0 0 0 0 132 106 0 0
0 0 0 0 0 0 0 0 0 0 0 0 7 22 10 10 5 62 69 38 12 0 0 0 0 0 0 0 0 0 0 0 0 0 0 0 0 0 0 0 0 0 0
0 0 0 0 0 0 0 0 0 0 0 1 18 31 51 54 49 55 25 0 0 0 0 0 0 0 0 0 0 0 0 0 0 0 0 0 0 0 0 0 0 0 0
0 0 0 0 0 0 0 0 0 1 11 31 110 106 80 92 73 36 0 0 0 0 0 0 0 0 0 0 0 0 0 0 0 0 0 0 0 0 0 0 0 0 0
0 0 0 0 0 0 0 0 3 39 108 125 177 197 97 24 11 0 0 0 0 0 0 0 0 0 0 0 0 0 0 0 0 0 0 0 0 0 0 0 0 0 0
0 0 0 0 0 0 0 0 0 6 51 140 189 76 2 0 0 0 0 0 0 0 0 0 0 0 0 0 0 0 0 0 0 0 0 0 0 0 0 0 0 0 0
0 0 0 0 2 0 0 0 0 11 22 57 4 0 0 0 0 0 0 0 0 0 0 0 0 0 0 0 0 0 0 0 0 0 0 0 0 0 0 0 0 0 0
0 3 0 0 0 0 0 0 0 0 0 0 0 0 0 0 0 0 0 0 0 0 0 0 0 0 0 0 0 0 0 0 0 0 0 0 0 0 0 0 0 0 0
1 11 0 0 0 0 0 0 0 0 0 0 0 0 0 0 0 0 0 0 0 0 0 0 0 0 0 0 0 0 0 0 0 0 0 0 0 0 0 0 0 0 0
1 11 1 0 0 0 0 0 0 0 0 0 0 0 0 0 0 0 0 0 0 0 0 0 0 0 0 0 0 0 0 0 0 0 0 0 0 0 0 0 0 0 0
11 41 20 17 0 0 0 0 0 0 0 0 0 0 0 0 0 0 0 0 0 0 0 0 0 0 0 0 0 0 0 0 0 0 0 0 0 0 0 0 0 0 0
0 0 0 0 0 0 0 0 0 0 0 0 0 0 0 0 0 0 0 0 0 0 0 0 0 0 0 0 0 0 0 0 0 0 0 0 0 0 0 0 0 0 0
0 0 0 0 0 0 0 0 0 0 0 0 0 0 0 0 0 0 0 0 0 0 0 0 0 0 0 0 0 0 0 0 0 0 0 0 0 0 0 0 0 0 0
0 0 0 0 0 0 0 0 0 0 0 0 0 0 0 0 0 0 0 0 0 0 0 0 0 0 0 0 0 0 0 0 0 0 0 0 0 0 0 0 0 0 0
0 0 0 0 0 0 0 0 0 0 0 0 0 0 0 0 0 0 0 0 0 0 0 0 0 0 0 0 0 0 0 0 0 0 0 1 0 0 0 0 0 0 0
0 0 0 0 0 0 0 0 0 0 0 0 0 0 0 0 0 0 0 0 0 0 0 0 0 0 0 0 0 0 0 0 1 10 8 1 1 0 0 0 0 0 0

GFSSE_con_mlcape_039.txt.gz
CAPE
260 447 377 368 311 288 305 347 391 472 552 546 549 566 549 524 533 593 658 681 682 586 646 578 486 442 396 262 212 172 150 92 65 72 99 239 810 745 697 957 977 981 1013
356 461 392 433 387 303 408 474 485 574 584 553 489 433 430 402 406 446 520 717 526 461 463 391 278 179 77 42 45 41 25 25 29 31 39 227 605 785 499 455 516 669 983
386 427 525 496 471 438 546 549 545 610 557 518 499 487 435 352 346 458 598 472 374 351 100 15 15 8 0 0 0 0 0 0 0 0 8 330 753 701 405 356 366 526 645
439 501 618 595 610 626 737 662 626 651 600 575 533 416 324 364 458 404 211 313 234 39 2 0 0 0 0 0 0 0 0 0 0 0 91 256 543 593 535 351 231 395 444
488 567 686 656 718 738 813 780 753 706 610 562 482 425 512 442 236 216 205 65 11 5 0 0 0 0 0 0 0 0 0 0 0 0 45 378 668 667 611 568 328 448 418
482 618 602 624 753 787 839 809 723 620 553 497 506 568 393 131 140 116 5 0 0 0 0 0 0 0 0 0 0 0 0 0 0 0 0 4 438 575 646 581 253 231 305
529 668 658 578 671 754 789 686 613 551 489 565 509 318 113 101 43 0 0 0 0 0 0 0 0 0 0 0 0 0 0 0 0 0 0 0 78 327 489 256 101 133 91
650 709 748 632 582 575 541 498 507 483 487 422 188 53 36 8 0 0 0 0 0 0 0 0 0 0 0 0 0 0 0 0 0 0 0 0 0 16 287 262 59 1 0
559 619 573 557 493 461 461 446 437 457 337 105 11 24 0 0 0 0 0 0 0 0 0 0 0 0 0 0 0 0 0 0 0 0 0 0 0 0 0 252 212 24 0
333 271 216 264 363 359 430 330 275 177 51 3 0 0 0 0 0 0 0 0 0 0 0 0 0 0 0 0 0 0 0 0 0 0 0 0 0 0 0 0 47 33 0
4 0 0 1 0 6 47 49 18 8 0 4 3 8 8 60 52 43 0 0 0 0 0 0 0 0 0 0 0 0 0 0 0 0 0 0 0 0 0 0 0 0 0
0 0 0 0 0 0 0 3 7 15 14 68 74 73 82 78 109 109 57 3 0 0 0 0 0 0 0 0 0 0 0 0 0 0 0 0 0 0 0 0 0 0 0
0 0 0 0 0 0 0 0 0 14 17 33 82 121 116 120 135 141 165 72 1 0 0 0 0 0 0 0 0 0 0 0 0 0 0 0 0 0 0 0 0 0 0
0 0 0 0 0 0 0 0 0 5 29 100 153 165 221 220 226 189 82 0 0 0 0 0 0 0 0 0 0 0 0 0 0 0 0 0 0 0 0 0 0 0 0
0 0 0 0 0 0 0 0 0 20 113 185 244 294 222 138 29 0 0 0 0 0 0 0 0 0 0 0 0 0 0 0 0 0 0 0 0 0 0 0 0 0 0
0 0 0 0 0 0 0 0 0 12 53 77 139 28 2 0 0 0 0 0 0 0 0 0 0 0 0 0 0 0 0 0 0 0 0 0 0 0 0 0 0 0 0
0 0 0 10 0 0 0 0 0 0 0 4 0 0 0 0 0 0 0 0 0 0 0 0 0 0 0 0 0 0 0 0 0 0 0 0 0 0 0 0 0 0 0
0 2 10 4 0 0 0 0 0 0 0 0 0 0 0 0 0 0 0 0 0 0 0 0 0 0 0 0 0 0 0 0 0 0 0 0 0 0 0 0 0 0 0
0 1 0 0 0 0 0 0 0 0 0 0 0 0 0 0 0 0 0 0 0 0 0 0 0 0 0 0 0 0 0 0 0 0 0 0 0 0 0 0 0 0 0
3 0 0 0 0 0 0 0 0 0 0 0 0 0 0 0 0 0 0 0 0 0 0 0 0 0 0 0 0 0 0 0 0 0 0 0 0 0 0 0 0 0 0
105 120 20 3 0 0 0 0 0 0 0 0 0 0 0 0 0 0 0 0 0 0 0 0 0 0 0 0 0 0 0 0 0 0 0 0 0 0 0 0 0 0 0
110 104 94 0 0 0 0 0 0 0 0 0 0 0 0 0 0 0 0 0 0 0 0 0 0 0 0 0 0 0 0 0 0 0 0 0 0 0 0 0 0 0 0
0 0 0 0 0 0 0 0 0 0 0 0 0 0 0 0 0 0 0 0 0 0 0 0 0 0 0 0 0 0 0 0 0 0 0 0 0 0 0 0 0 0 0
0 0 0 0 0 0 0 0 0 0 0 0 0 0 0 0 0 0 0 0 0 0 0 0 0 0 0 0 0 2 7 20 9 6 9 10 1 0 0 0 0 0 0
0 0 0 0 0 0 0 0 0 0 0 0 0 0 0 0 0 0 0 0 0 0 0 0 0 0 2 5 8 8 12 12 20 18 8 2 5 10 9 0 0 0 0
0 0 0 0 0 0 0 0 0 0 0 0 0 0 0 0 0 0 0 0 0 0 0 0 0 2 3 1 0 5 2 5 5 16 10 7 3 1 10 6 0 0 0

GFSSE_con_mlcape_042.txt.gz
CAPE
420 454 442 213 228 263 325 346 355 401 453 474 516 523 528 533 618 595 630 567 500 540 389 362 312 261 165 105 63 35 23 11 9 18 70 449 834 759 360 376 464 740 901
551 493 472 331 321 335 323 404 498 492 461 496 498 447 417 440 485 538 627 433 405 276 185 105 66 52 20 1 0 0 0 0 0 0 34 349 603 643 378 233 197 467 953
576 552 546 442 416 425 457 555 597 565 573 509 469 417 404 462 534 643 434 315 192 19 9 9 1 0 0 0 0 0 0 0 0 2 66 174 571 713 347 307 234 340 433
508 595 610 503 477 626 643 669 685 671 601 561 530 442 427 529 424 210 176 57 5 0 0 0 0 0 0 0 0 0 0 0 0 0 109 286 439 514 603 346 383 501 255
639 732 761 597 572 664 723 656 745 705 629 601 487 448 498 332 188 199 51 0 0 0 0 0 0 0 0 0 0 0 0 0 0 0 7 378 446 494 578 153 105 185 289
801 852 696 660 625 839 734 798 761 657 601 491 476 489 237 190 211 32 0 0 0 0 0 0 0 0 0 0 0 0 0 0 0 0 0 24 331 556 546 260 28 45 43
833 951 889 755 708 834 890 882 748 620 543 510 492 214 183 201 6 0 0 0 0 0 0 0 0 0 0 0 0 0 0 0 0 0 0 0 0 28 320 361 42 3 3
923 913 860 826 906 915 917 745 617 569 609 485 200 149 160 12 0 0 0 0 0 0 0 0 0 0 0 0 0 0 0 0 0 0 0 0 0 0 0 161 263 5 0
1166 1097 973 830 779 736 616 567 529 558 452 166 60 66 0 0 0 0 0 0 0 0 0 0 0 0 0 0 0 0 0 0 0 0 0 0 0 0 0 0 9 206 14
1018 725 498 457 486 466 509 477 437 345 113 22 28 6 0 0 0 0 0 0 0 0 0 0 0 0 0 0 0 0 0 0 0 0 0 0 0 0 0 0 0 0 0
523 415 315 299 297 226 187 353 173 108 29 16 18 8 41 100 100 56 0 6 0 0 0 0 0 0 0 0 0 0 0 0 0 0 0 0 0 0 0 0 0 0 0
61 66 116 104 92 66 0 88 132 30 125 296 279 322 328 424 354 209 90 0 0 0 0 0 0 0 0 0 0 0 0 0 0 0 0 0 0 0 0 0 0 0 0
0 0 0 26 66 24 25 25 2 121 302 476 609 637 643 580 654 534 428 173 36 0 0 0 0 0 0 0 0 0 0 0 0 0 0 0 0 0 0 0 0 0 0
0 0 0 0 36 33 0 52 203 299 457 532 688 825 791 750 865 841 481 81 16 2 0 0 0 0 0 0 0 0 0 0 0 0 0 0 0 0 0 0 0 0 0
0 1 2 0 0 14 124 247 353 453 565 779 818 994 878 845 649 325 139 56 8 0 0 0 0 0 0 0 0 0 0 0 0 0 0 0 0 0 0 0 0 0 0
42 72 147 119 83 111 142 199 134 88 255 513 737 361 144 132 191 166 42 0 0 0 0 0 0 0 0 0 0 0 0 0 0 0 0 0 0 0 0 0 0 0 0
114 288 325 311 166 93 57 1 0 0 5 78 183 85 72 153 115 3 0 0 0 0 0 0 0 0 0 0 0 0 0 0 0 0 0 0 0 0 0 0 0 0 0
79 382 369 160 78 23 0 0 0 0 0 1 19 24 0 0 0 0 0 0 0 0 0 0 0 0 0 0 0 0 0 0 0 0 0 0 0 0 0 0 0 0 0
201 420 302 178 27 0 0 0 0 0 0 0 0 0 0 0 0 0 0 0 0 0 0 0 0 0 0 0 0 0 0 0 0 0 0 0 0 0 0 0 0 0 0
450 502 360 291 0 0 0 0 0 0 0 0 0 0 0 0 0 0 0 0 0 0 0 0 0 0 0 0 0 0 0 0 0 0 0 0 0 0 0 0 0 0 0
332 329 276 1 0 9 18 0 0 0 0 0 0 0 0 0 0 0 0 0 0 0 0 0 0 0 0 0 0 0 0 0 10 4 0 0 0 0 0 0 0 0 0
449 506 306 428 366 89 15 0 0 0 0 0 0 0 0 0 0 0 0 0 0 0 0 0 0 0 0 0 0 0 0 0 0 8 1 0 0 0 0 0 2 2 1
619 617 438 202 23 0 0 0 0 0 0 0 0 0 0 0 0 0 0 0 0 0 0 0 0 0 0 0 3 6 0 0 0 0 4 4 1 0 1 3 6 7 7
118 41 0 0 0 0 0 0 0 4 6 0 0 0 0 0 0 0 0 0 0 0 0 0 0 1 2 7 4 12 24 24 12 4 5 4 0 0 0 0 6 4 10
0 0 0 0 0 0 0 0 0 0 0 0 0 0 0 0 0 0 0 0 0 0 8 15 24 29 28 30 28 11 11 6 3 7 16 8 1 6 9 6 10 4 8
0 0 0 0 0 0 0 0 0 0 0 0 0 0 0 0 0 0 1 0 9 22 28 31 37 19 15 15 16 10 4 2 5 4 14 18 10 2 9 3 4 12 17

GFSSE_con_mlcape_048.txt.gz
CAPE
39 14 145 518 632 600 484 473 420 368 368 357 382 469 463 458 451 404 322 271 224 125 49 15 0 0 0 0 0 0 0 0 0 25 476 562 386 168 45 24 125 308 709
59 62 176 508 595 577 519 425 386 350 376 359 383 414 415 458 429 364 212 137 44 1 0 0 0 0 0 0 0 0 0 0 0 6 378 423 549 277 130 28 135 441 584
126 110 148 451 584 534 420 399 398 426 419 411 432 441 485 446 327 174 40 3 0 0 0 0 0 0 0 0 0 0 0 0 0 0 24 276 274 243 116 350 47 241 544
174 132 177 285 461 385 425 420 491 481 460 453 463 510 379 295 151 21 0 0 0 0 0 0 0 0 0 0 0 0 0 0 0 0 157 277 247 467 100 70 103 0 84
275 235 234 292 348 409 405 472 503 503 448 397 438 331 216 150 3 0 0 0 0 0 0 0 0 0 0 0 0 0 0 0 0 7 5 1 1 219 279 75 0 8 0
461 415 289 325 383 467 469 505 507 467 382 377 243 160 142 20 12 0 0 0 0 0 0 0 0 0 0 0 0 0 0 0 0 5 0 0 0 0 0 151 93 27 3
314 247 302 361 457 532 570 532 479 397 350 238 119 122 0 0 0 0 0 0 0 0 0 0 0 0 0 0 0 0 0 0 0 1 0 0 0 0 0 0 0 58 37
18 277 358 447 541 511 520 498 420 335 255 118 77 34 0 0 0 0 0 0 0 0 0 0 0 0 0 0 0 0 0 0 0 4 4 0 0 0 3 0 0 0 0
237 368 603 652 563 571 537 443 377 250 68 41 34 0 0 0 0 0 0 0 0 0 0 0 0 0 0 0 0 0 0 0 0 4 3 0 0 0 0 0 0 0 0
233 291 604 672 628 486 451 394 269 96 33 22 0 0 0 0 0 0 0 0 0 0 0 0 0 0 0 0 0 0 0 0 0 0 0 0 0 0 0 0 0 0 0
170 471 510 436 473 388 372 299 161 39 19 1 0 0 0 0 3 43 7 0 0 0 0 0 0 0 0 0 0 0 0 0 0 0 0 0 0 0 0 0 0 0 0
137 184 245 326 284 339 228 197 29 0 7 16 1 7 92 323 121 108 0 0 0 0 0 0 0 0 0 0 0 0 0 0 0 0 0 0 0 0 0 0 0 1 6
73 99 168 182 200 139 12 187 16 45 247 330 357 483 401 456 160 45 125 76 44 0 8 0 9 3 0 0 0 0 0 0 0 0 0 0 0 0 0 0 0 0 2
17 62 122 108 106 88 31 26 7 300 469 397 552 641 570 571 564 591 387 226 173 9 19 3 5 0 0 0 0 0 0 0 0 0 0 0 0 0 0 0 0 0 0
0 28 79 106 97 20 243 255 364 463 462 447 553 511 643 671 648 347 340 208 7 0 0 0 0 0 0 0 0 0 0 0 0 0 0 0 0 0 0 0 0 0 0
0 2 26 78 213 558 349 327 210 151 261 438 476 406 480 517 400 371 75 0 0 0 0 0 0 0 0 0 0 0 0 0 0 0 0 0 0 0 0 0 0 0 0
41 30 92 203 512 331 53 4 5 3 10 40 88 113 76 34 0 0 0 0 0 0 0 0 0 0 0 0 0 0 0 0 0 0 0 0 0 0 0 0 0 0 0
163 152 258 452 290 20 0 0 0 0 0 0 1 0 0 0 0 0 0 0 0 0 0 0 0 0 0 0 0 0 0 0 0 0 0 0 0 0 0 0 0 0 0
374 408 423 469 118 3 0 0 0 0 0 0 0 0 0 0 0 0 0 0 0 0 0 0 0 0 0 0 0 0 0 0 0 0 0 0 0 0 0 0 0 0 0
677 563 536 404 135 0 0 0 0 0 0 0 0 0 0 0 0 0 0 0 0 0 0 0 0 0 0 0 0 0 0 0 0 0 0 6 14 0 0 0 0 0 11
850 726 521 283 94 0 125 8 0 0 0 0 0 0 0 0 0 0 0 0 0 0 0 0 0 0 0 0 0 0 0 0 0 0 0 0 0 0 0 0 0 0 0
836 698 497 382 126 208 364 3 0 0 0 0 0 0 0 0 0 0 0 0 0 0 0 0 0 0 0 0 0 0 0 0 0 0 0 0 0 0 0 0 0 0 0
928 625 474 438 222 440 163 0 0 0 0 0 0 0 0 0 0 0 0 0 0 0 0 0 0 0 0 0 0 0 0 0 0 0 0 0 0 0 0 0 1 0 0
652 504 440 460 486 226 0 0 0 0 0 0 0 0 0 0 0 0 0 0 0 0 0 0 0 0 0 0 0 0 0 0 0 0 0 0 0 0 0 0 0 0 0
513 459 651 598 18 0 0 0 0 9 2 1 0 0 0 0 0 0 0 0 0 0 0 0 0 0 0 1 3 2 1 0 0 0 0 0 0 0 0 0 0 0 0
868 681 40 0 0 0 0 0 0 6 0 0 0 0 0 1 1 0 0 0 0 0 0 0 0 0 0 6 3 7 9 4 0 1 0 0 0 0 0 2 0 0 0

GFSSE_con_mlcape_051.txt.gz
CAPE
5 445 736 716 611 522 481 363 284 253 277 298 318 305 315 259 178 140 96 33 6 0 0 0 0 0 0 0 0 0 0 0 0 196 127 202 369 218 107 85 275 409 521
58 604 860 842 637 583 453 322 281 267 287 273 280 316 273 179 64 5 0 0 0 0 0 0 0 0 0 0 0 0 0 0 0 25 185 107 117 328 238 59 270 404 502
2 597 817 750 634 602 450 398 325 302 298 249 319 250 169 38 0 0 0 0 0 0 0 0 0 0 0 0 0 0 0 0 0 1 207 210 181 173 165 111 4 277 223
131 568 692 565 587 486 465 482 383 387 330 299 200 121 56 0 0 0 0 0 0 0 0 0 0 0 0 0 0 0 0 0 13 119 75 40 75 216 126 73 82 4 0
89 437 593 483 412 374 512 540 422 362 318 203 86 63 7 0 0 0 0 0 0 0 0 0 0 0 0 0 0 0 0 0 1 1 0 0 0 0 5 54 30 0 0
93 306 261 263 351 425 519 444 355 305 215 107 62 2 0 0 0 0 0 0 0 0 0 0 0 0 0 0 0 0 0 0 0 0 0 0 0 0 0 0 0 0 0
77 151 154 295 414 496 479 392 282 217 125 90 7 0 0 0 0 0 0 0 0 0 0 0 0 0 0 0 0 0 0 0 0 0 0 0 10 28 25 36 31 5 0
99 144 194 288 379 427 411 304 221 135 63 31 0 0 0 0 0 0 0 0 0 0 0 0 0 0 0 0 0 0 0 0 0 0 0 0 0 1 11 0 0 4 47
71 155 257 363 397 412 317 225 147 69 44 9 0 0 0 0 0 0 0 0 0 0 0 0 0 0 0 0 0 0 0 0 0 0 0 0 0 0 0 0 0 0 1
68 100 302 325 480 402 307 163 98 48 20 0 0 0 0 0 0 0 0 0 0 0 0 0 0 0 0 0 0 0 0 0 0 0 0 0 0 0 0 0 0 0 2
57 101 183 376 397 315 213 128 61 31 2 0 0 0 0 0 0 0 0 0 0 0 0 0 0 0 0 0 0 0 0 0 0 0 0 0 0 0 0 0 0 0 1
84 171 172 358 285 225 131 8 0 2 0 0 0 0 0 0 0 0 0 0 0 0 0 0 0 0 0 0 0 0 0 0 0 0 0 0 0 0 0 0 0 0 1
102 157 277 267 188 28 2 0 0 0 0 0 0 5 1 133 3 16 2 0 0 0 0 0 0 0 0 0 0 0 0 0 0 0 0 0 0 0 0 0 0 0 0
115 163 157 141 64 1 2 0 0 51 123 85 319 372 401 342 275 157 71 56 7 0 0 0 0 0 0 0 0 0 0 0 0 0 0 0 0 0 0 0 0 0 0
50 38 6 7 0 7 93 108 186 323 347 339 345 261 331 397 181 60 4 0 0 0 0 0 0 0 0 0 0 0 0 0 0 0 0 0 0 0 0 0 0 0 0
0 2 0 0 0 158 106 53 150 212 268 230 228 195 183 197 59 0 0 0 0 0 0 0 0 0 0 0 0 0 0 0 0 0 0 0 0 0 0 0 0 0 0
0 0 0 86 154 40 19 51 62 97 93 60 22 14 7 3 0 0 0 0 0 0 0 0 0 0 0 0 0 0 0 0 0 0 0 0 0 0 0 0 0 0 0
0 0 4 276 19 0 0 0 0 0 0 0 0 0 0 0 0 0 0 0 0 0 0 0 0 0 0 0 0 0 0 0 0 0 0 0 0 0 0 0 0 0 0
3 61 312 96 38 11 0 0 0 0 0 0 0 0 0 0 0 0 0 0 0 0 0 0 0 0 0 0 0 0 0 0 0 0 0 0 0 0 0 0 0 0 0
85 281 264 71 10 0 0 0 0 0 0 0 0 0 0 0 0 0 0 0 0 0 0 0 0 0 0 0 0 0 0 0 0 0 0 0 0 0 0 0 0 0 0
284 321 246 80 0 0 0 0 0 0 0 0 0 0 0 0 0 0 0 0 0 0 0 0 0 0 0 0 0 0 0 0 0 0 0 0 0 0 0 0 0 0 0
404 347 211 92 9 0 0 0 0 0 0 0 0 0 0 0 0 0 0 0 0 0 0 0 0 0 0 0 0 0 0 0 0 0 0 0 0 0 0 0 0 0 0
483 360 304 224 112 8 110 3 0 0 0 0 0 0 0 0 0 0 0 0 0 0 0 0 0 0 0 0 0 0 0 0 0 0 0 0 0 0 0 0 0 0 0
537 425 385 267 161 33 215 0 0 0 0 0 0 0 0 0 0 0 0 0 0 0 0 0 0 0 0 0 0 0 0 0 0 0 0 0 0 0 0 0 0 0 0
585 503 376 289 135 180 34 0 0 0 0 0 0 0 0 0 0 0 0 0 0 0 0 0 0 0 0 0 0 0 0 0 0 0 0 0 0 0 0 0 0 0 0
506 386 314 314 301 17 0 0 0 0 0 0 0 0 0 0 0 0 0 0 0 0 0 0 0 0 0 0 0 0 0 1 8 2 0 0 0 0 0 0 0 0 0

GFSSE_con_mlcape_054.txt.gz
CAPE
557 697 638 449 428 355 223 175 226 287 295 280 233 148 91 26 0 0 0 0 0 0 0 0 0 0 0 0 0 0 0 0 89 75 93 198 223 74 65 244 167 349 440
652 784 592 491 448 400 289 263 309 314 313 280 208 106 1 0 0 0 0 0 0 0 0 0 0 0 0 0 0 0 0 0 55 24 10 154 161 98 46 69 125 109 281
744 844 630 513 400 422 277 342 336 332 358 256 182 35 0 0 0 0 0 0 0 0 0 0 0 0 0 0 0 0 0 0 22 175 99 42 59 58 8 53 0 0 0
743 838 702 579 544 365 375 396 341 396 335 220 106 10 0 0 0 0 0 0 0 0 0 0 0 0 0 0 0 0 26 30 85 2 0 0 0 0 0 0 0 7 0
740 779 676 487 415 428 407 396 425 334 231 131 53 5 0 0 0 0 0 0 0 0 0 0 0 0 0 0 0 0 0 0 0 0 0 0 0 7 0 0 0 0 0
776 720 613 447 401 452 418 410 365 224 137 72 36 8 0 0 6 0 0 0 0 0 0 0 0 0 0 0 0 0 0 0 0 0 0 4 14 22 22 19 26 24 0
609 546 347 321 466 445 363 368 234 145 89 51 31 4 5 11 7 0 0 0 0 0 0 0 0 0 0 0 0 0 0 0 0 0 0 0 25 26 20 0 0 15 55
67 70 95 175 294 355 393 290 172 133 66 20 7 0 1 0 0 0 0 0 0 0 0 0 0 0 0 0 0 0 0 0 0 0 0 0 0 0 0 0 0 0 0
37 75 93 160 199 395 335 212 136 77 20 4 0 0 0 0 0 0 0 0 0 0 0 0 0 0 0 0 0 0 0 0 0 0 0 0 0 0 0 0 0 0 1
8 6 35 152 295 326 261 138 57 31 1 0 0 0 0 0 0 0 0 0 0 0 0 0 0 0 0 0 0 0 0 0 0 0 0 0 0 0 0 0 0 0 0
12 0 10 96 199 311 176 87 46 17 0 0 0 0 0 0 0 0 0 0 0 0 0 0 0 0 0 0 0 0 0 0 0 0 0 0 0 0 0 0 0 0 0
7 33 98 143 288 242 157 63 25 0 0 0 0 0 0 0 0 0 0 0 0 0 0 0 0 0 0 0 0 0 0 0 0 0 0 0 0 0 0 0 0 0 0
11 21 114 239 233 133 32 0 0 0 0 0 0 0 0 0 0 0 0 0 0 0 0 0 0 0 0 0 0 0 0 0 0 0 0 0 0 0 0 0 0 0 0
78 111 212 218 115 49 0 0 0 0 0 0 0 1 3 43 1 3 5 0 0 0 0 0 0 0 0 0 0 0 0 0 0 0 0 0 0 0 0 0 0 0 0
95 162 243 146 16 0 0 0 0 18 58 238 270 271 192 108 26 0 0 0 0 0 0 0 0 0 0 0 0 0 0 0 0 0 0 0 0 0 0 0 0 0 0
72 133 216 95 1 36 21 21 59 188 243 163 114 138 81 0 0 0 0 0 0 0 0 0 0 0 0 0 0 0 0 0 0 0 0 0 0 0 0 0 0 0 0
35 39 49 76 37 42 28 96 153 153 67 21 1 0 0 0 0 0 0 0 0 0 0 0 0 0 0 0 0 0 0 0 0 0 0 0 0 0 0 0 0 0 0
44 30 57 54 75 50 67 59 74 29 0 0 0 0 0 0 0 0 0 0 0 0 0 0 0 0 0 0 0 0 0 0 0 0 0 0 0 0 0 0 0 0 0
36 32 97 53 38 2 0 0 0 0 0 0 0 0 0 0 0 0 0 0 0 0 0 0 0 0 0 0 0 0 0 0 0 0 0 0 0 0 0 0 0 0 0
0 46 47 40 3 0 0 0 0 0 0 0 0 0 0 0 0 0 0 0 0 0 0 0 0 0 0 0 0 0 0 0 0 0 0 0 0 0 0 0 0 0 0
18 13 92 75 0 0 0 0 0 0 0 0 0 0 0 0 0 0 0 0 0 0 0 0 0 0 0 0 0 0 0 0 0 0 0 0 0 0 0 0 0 0 0
121 109 96 87 1 0 0 0 0 0 0 0 0 0 0 0 0 0 0 0 0 0 0 0 0 0 0 0 0 0 0 0 0 0 0 0 0 0 0 0 0 0 0
212 206 143 68 3 0 0 0 0 0 0 0 0 0 0 0 0 0 0 0 0 0 0 0 0 0 0 0 0 0 0 0 0 0 0 0 0 0 0 0 0 0 0
268 207 169 95 44 0 0 0 0 0 0 0 0 0 0 0 0 0 0 0 0 0 0 0 0 0 0 0 0 0 0 0 0 0 0 0 0 0 0 0 0 0 0
248 217 169 124 95 19 0 0 0 0 0 0 0 0 0 0 0 0 0 0 0 0 0 0 0 0 0 0 0 0 0 0 0 0 0 0 0 0 0 0 0 0 0
387 314 312 255 151 55 17 11 0 0 0 0 0 0 0 0 0 0 0 0 0 0 0 0 0 0 0 0 0 0 0 0 0 0 1 0 1 0 0 0 0 0 0

GFSSE_con_mlcape_057.txt.gz
CAPE
686 950 542 470 204 72 66 172 304 360 322 257 211 133 40 6 0 0 0 0 0 0 0 0 0 0 0 0 0 0 27 23 5 18 49 73 33 41 13 9 18 98 275
871 889 533 443 199 113 114 184 325 365 266 173 57 9 0 0 0 0 0 0 0 0 0 0 0 0 0 0 0 0 12 16 22 14 30 29 19 17 0 0 0 0 0
939 890 669 543 323 201 217 263 316 387 288 131 17 0 0 0 0 0 0 0 0 0 0 0 0 0 0 0 0 0 21 109 18 21 9 0 0 0 0 0 0 0 0
996 921 737 668 501 368 379 407 439 461 308 91 11 0 0 0 0 0 0 0 0 0 0 0 0 0 0 0 0 65 35 0 0 0 0 0 0 0 0 0 0 0 0
990 786 781 580 454 467 515 416 476 392 197 68 12 3 1 0 0 26 14 2 0 0 0 0 0 0 0 0 0 0 0 0 0 0 0 0 0 0 0 0 0 0 0
894 936 689 370 316 410 526 536 379 267 121 70 42 23 31 21 34 28 0 0 0 0 0 0 0 0 0 0 0 0 0 0 0 0 0 0 0 0 0 0 0 0 1
820 844 420 216 294 469 533 479 242 176 124 110 55 46 61 40 32 1 0 0 0 0 0 0 0 0 0 0 0 0 0 0 0 0 0 0 0 0 0 0 0 0 0
470 380 216 124 191 296 402 373 223 154 124 102 46 38 45 30 1 0 0 0 0 0 0 0 0 0 0 0 0 0 0 0 0 0 0 0 0 0 0 0 0 0 0
97 15 31 79 95 140 187 276 171 94 96 54 24 37 13 0 0 0 0 0 0 0 0 0 0 0 0 0 0 0 0 0 0 0 0 0 0 0 0 0 0 0 0
7 21 38 13 35 118 242 225 96 65 53 21 5 2 0 0 0 0 0 0 0 0 0 0 0 0 0 0 0 0 0 0 0 0 0 0 0 0 0 0 0 0 0
22 1 1 0 62 149 235 122 48 30 12 0 0 0 0 0 0 0 0 0 0 0 0 0 0 0 0 0 0 0 0 0 0 0 0 0 0 0 0 0 0 0 0
2 1 0 33 20 222 210 141 67 35 2 0 0 0 0 0 0 0 0 0 0 0 0 0 0 0 0 0 0 0 0 0 0 0 0 0 0 0 0 0 0 0 0
0 16 89 44 129 215 151 73 28 1 1 0 0 0 0 2 1 0 0 0 0 0 0 0 0 0 0 0 0 0 0 0 0 0 0 0 0 0 0 0 0 0 0
32 29 63 130 193 137 40 18 6 0 0 0 0 0 0 0 0 0 0 0 0 0 0 0 0 0 0 0 0 0 0 0 0 0 0 0 0 0 0 0 0 0 0
45 31 53 178 194 50 0 0 0 0 0 0 8 11 68 1 9 3 0 0 0 0 0 0 0 0 0 0 0 0 0 0 0 0 0 0 0 0 0 0 0 0 0
89 118 169 208 82 3 0 0 0 4 108 224 256 184 93 7 0 0 0 0 0 0 0 0 0 0 0 0 0 0 0 0 0 0 0 0 0 0 0 0 0 0 0
118 174 265 205 65 19 0 3 31 147 193 121 96 56 0 0 0 0 0 0 0 0 0 0 0 0 0 0 0 0 0 0 0 0 0 0 0 0 0 0 0 0 0
96 108 176 81 25 10 4 11 67 143 57 16 0 0 0 0 0 0 0 0 0 0 0 0 0 0 0 0 0 0 0 0 0 0 0 0 0 0 0 0 0 0 0
71 106 228 103 17 22 9 24 75 33 0 0 0 0 0 0 0 0 0 0 0 0 0 0 0 0 0 0 0 0 0 0 0 0 0 0 0 0 0 0 0 0 0
55 79 65 68 10 14 7 2 0 0 0 0 0 0 0 0 0 0 0 0 0 0 0 0 0 0 0 0 0 0 0 0 0 0 0 0 0 0 0 0 0 0 0
2 14 0 7 0 2 0 0 0 0 0 0 0 0 0 0 0 0 0 0 0 0 0 0 0 0 0 0 0 0 0 0 0 0 0 0 0 0 0 0 0 0 0
32 7 6 12 4 0 0 0 0 0 0 0 0 0 0 0 0 0 0 0 0 0 0 0 0 0 0 0 0 0 0 0 0 0 0 0 0 0 0 0 0 0 0
31 4 10 17 1 0 0 0 0 0 0 0 0 0 0 0 0 0 0 0 0 0 0 0 0 0 0 0 0 0 0 0 0 0 0 0 0 0 0 0 0 0 0
40 23 21 27 6 0 0 0 0 0 0 0 0 0 0 0 0 0 0 0 0 0 0 0 0 0 0 0 0 0 0 0 0 0 0 0 0 0 0 0 0 0 0
33 29 11 7 0 0 0 0 0 0 0 0 0 0 0 0 0 0 0 0 0 0 0 0 0 0 0 0 0 0 0 0 0 0 0 0 0 0 0 0 0 0 0
8 12 0 9 44 10 0 0 0 0 0 0 0 0 0 0 0 0 0 0 0 0 0 0 0 0 0 0 0 0 0 0 0 0 0 0 0 0 0 0 0 0 0

GFSSE_con_mlcape_060.txt.gz
CAPE
789 713 457 457 469 376 268 197 177 168 186 210 181 125 78 2 0 0 0 0 0 0 0 0 0 0 0 0 146 26 9 73 113 51 26 21 1 0 0 0 0 0 0
999 769 506 468 468 444 412 332 349 329 284 205 148 81 0 0 0 0 0 0 0 0 0 0 0 0 0 0 22 38 21 2 1 2 0 0 0 0 0 0 0 0 0
1116 809 627 468 482 433 442 444 370 299 177 73 29 0 0 0 0 0 0 0 0 0 0 24 166 117 0 0 116 112 0 0 0 0 0 0 0 0 0 0 0 0 0
1129 838 687 617 580 590 560 480 348 200 60 38 20 0 0 6 9 0 0 0 0 0 0 0 9 77 9 130 58 0 0 0 0 0 0 0 0 0 0 0 0 0 0
1127 908 694 613 636 598 560 497 352 133 65 39 27 13 17 29 36 4 0 0 0 0 0 0 0 0 0 0 0 0 0 0 0 0 0 0 0 0 0 0 0 0 1
1078 805 687 524 447 593 686 512 255 139 62 53 66 54 43 76 34 14 1 2 0 0 0 0 0 0 0 0 0 0 0 0 0 0 0 0 0 0 0 0 0 0 1
958 717 524 335 373 813 709 461 184 170 94 85 114 103 100 88 37 12 3 0 0 0 0 0 0 0 0 0 0 0 0 0 0 0 0 0 0 0 0 0 0 0 0
736 456 338 173 261 231 154 290 233 204 105 154 135 165 132 67 10 0 0 0 0 0 0 0 0 0 0 0 0 0 0 0 0 0 0 0 0 0 0 0 0 0 0
310 149 100 102 61 49 55 220 191 126 148 75 134 147 96 31 4 0 0 0 0 0 0 0 0 0 0 0 0 0 0 0 0 0 0 0 0 0 0 0 0 0 0
78 0 22 41 28 33 76 148 176 100 41 33 85 64 20 6 0 0 0 0 0 0 0 0 0 0 0 0 0 0 0 0 0 0 0 0 0 1 0 0 0 0 0
2 2 1 4 18 0 11 184 167 70 24 57 53 19 3 0 0 0 0 0 0 0 0 0 0 0 0 0 0 0 0 0 0 0 0 0 0 5 2 0 0 0 0
1 2 0 0 0 17 160 135 73 46 30 30 10 0 0 0 0 0 0 0 0 0 0 0 0 0 0 0 0 0 0 0 0 0 0 0 0 0 1 0 0 0 0
0 0 0 0 0 120 213 122 51 16 10 11 0 0 0 0 0 0 0 0 0 0 0 0 0 0 0 0 0 0 0 0 0 0 0 0 0 0 4 0 0 0 0
1 0 0 2 56 211 138 60 20 0 0 0 0 0 0 0 0 0 0 0 0 0 0 0 0 0 0 0 0 0 0 0 0 0 0 0 0 0 2 0 3 4 1
0 14 3 70 161 178 67 20 4 0 0 0 0 0 16 6 0 0 0 0 0 0 0 0 0 0 0 0 0 0 0 0 0 0 0 0 0 0 0 2 1 6 3
34 27 21 68 167 151 8 0 0 0 0 0 0 1 15 2 0 0 0 0 0 0 0 0 0 0 0 0 0 0 0 0 0 0 0 0 0 0 0 0 0 0 0
57 94 52 145 153 102 0 0 0 0 10 120 225 109 4 0 0 0 0 0 0 0 0 0 0 0 0 0 0 0 0 0 0 0 0 0 0 0 0 0 0 0 0
28 78 165 180 144 50 0 0 0 4 98 144 66 1 0 0 0 0 0 0 0 0 0 0 0 0 0 0 0 0 0 0 0 0 0 0 0 0 0 0 0 0 0
66 103 151 187 166 11 0 0 0 27 24 0 0 0 0 0 0 0 0 0 0 0 0 0 0 0 0 0 0 0 0 0 0 0 0 0 0 0 0 0 0 0 0
32 91 137 153 15 0 0 0 0 0 0 0 0 0 0 0 0 0 0 0 0 0 0 0 0 0 0 0 0 0 0 0 0 0 0 0 0 0 0 0 0 0 0
4 68 84 138 0 0 0 0 0 0 0 0 0 0 0 0 0 0 0 0 0 0 0 0 0 0 0 0 0 0 0 0 0 0 0 0 0 0 0 0 0 0 0
13 104 79 94 26 1 13 1 0 0 0 0 0 0 0 0 0 0 0 0 0 0 0 0 0 0 0 0 0 0 0 0 0 0 0 0 0 0 0 0 0 0 0
110 135 95 54 38 1 0 0 0 0 0 0 0 0 0 0 0 0 0 0 0 0 0 0 0 0 0 0 0 0 0 0 0 0 0 0 0 0 0 0 0 0 0
60 44 26 1 0 0 0 0 0 0 0 0 0 0 0 0 0 0 0 0 0 0 0 0 0 0 0 0 0 0 0 0 0 0 0 0 0 0 0 0 0 0 0
42 43 27 5 0 0 0 0 0 0 0 0 0 0 0 0 0 0 0 0 0 0 0 0 0 0 0 0 0 0 0 0 0 0 0 0 0 0 0 0 0 0 0
3 12 9 0 0 0 0 0 0 0 0 0 0 0 0 0 0 0 0 0 0 0 0 0 0 0 0 0 0 0 0 0 0 0 0 0 0 0 0 0 0 0 0

GFSSE_con_mlcape_063.txt.gz
CAPE
728 526 391 339 344 444 502 465 395 345 323 295 183 83 3 0 0 0 0 0 0 0 0 0 0 189 251 89 88 0 0 0 0 0 0 0 0 0 0 0 0 0 0
823 564 501 347 281 216 171 217 263 284 258 185 70 5 0 0 0 0 0 0 0 0 0 0 0 4 210 85 0 0 0 0 0 0 0 0 0 0 0 0 0 0 0
800 560 581 492 376 322 342 322 350 261 175 86 18 2 7 6 0 0 0 0 0 63 203 216 66 2 214 120 0 0 0 0 0 0 0 0 0 0 0 0 0 0 0
893 653 642 614 636 644 578 437 297 224 137 47 29 45 54 27 0 0 0 0 108 234 354 310 133 122 245 0 0 0 0 0 0 0 0 0 0 0 0 0 1 2 1
981 746 695 621 648 637 542 429 298 184 94 44 61 90 56 32 0 0 0 0 8 45 175 308 312 258 3 0 0 0 0 0 0 0 0 0 0 0 0 0 0 0 2
987 735 570 526 618 653 615 430 186 112 68 53 76 91 68 36 25 0 0 0 0 0 3 127 52 0 0 0 0 0 0 0 0 0 0 0 1 3 0 0 0 0 1
936 731 521 372 525 800 636 292 97 67 91 86 99 132 75 78 79 65 23 0 0 0 0 0 0 0 0 0 0 0 0 0 0 0 0 0 3 1 0 0 0 0 0
890 484 357 232 415 400 133 66 53 96 65 105 102 153 114 119 81 48 14 0 0 0 0 0 0 0 0 0 0 0 0 0 0 0 0 2 0 0 0 0 0 0 0
508 298 282 236 119 9 6 63 40 65 33 78 127 154 86 45 21 5 2 0 0 0 0 0 0 0 0 0 0 0 0 0 0 0 0 5 4 1 0 0 0 0 0
236 124 99 17 0 43 35 86 137 124 75 104 81 58 29 25 2 0 0 0 0 0 0 0 0 0 0 0 0 0 0 0 0 0 0 2 7 12 1 0 0 0 0
41 12 5 0 7 4 61 55 140 101 78 24 20 16 23 33 14 4 0 0 0 0 0 0 0 0 0 0 0 0 0 0 0 0 0 0 0 1 2 0 0 0 0
0 2 4 0 0 0 0 48 143 135 55 24 16 5 11 14 17 9 0 0 0 0 0 0 0 0 0 0 0 0 0 0 0 0 0 0 0 0 0 0 0 0 0
1 0 0 0 8 1 25 180 67 49 36 13 0 1 6 12 21 0 0 0 0 0 0 0 0 0 0 0 0 0 0 0 0 0 0 0 0 0 2 0 2 1 0
2 0 0 0 0 4 114 88 33 5 1 6 5 2 0 0 0 0 0 0 0 0 0 0 0 0 0 0 0 0 0 0 0 0 0 0 0 0 6 2 4 0 2
2 0 0 0 8 147 124 61 17 0 0 0 0 0 1 0 0 0 0 0 0 0 0 0 0 0 0 0 0 0 0 0 0 0 0 0 0 0 4 3 2 7 0
0 3 0 18 143 202 148 33 0 0 0 0 0 2 70 15 0 0 0 0 0 0 0 0 0 0 0 0 0 0 0 0 0 0 0 0 0 0 0 0 0 0 0
2 0 0 89 214 204 67 2 0 0 0 0 0 19 53 7 0 0 0 0 0 0 0 0 0 0 0 0 0 0 0 0 0 0 0 0 0 0 0 0 0 0 0
1 11 31 96 223 209 36 0 0 0 0 46 114 58 16 0 0 0 0 0 0 0 0 0 0 0 0 0 0 0 0 0 0 0 0 0 0 0 0 0 0 0 0
32 39 87 114 178 215 29 0 0 0 44 170 83 28 0 0 0 0 0 0 0 0 0 0 0 0 0 0 0 0 0 0 0 0 0 0 0 0 0 0 0 0 0
74 77 148 238 250 160 5 0 0 0 26 22 25 0 0 0 0 0 0 0 0 0 0 0 0 0 0 0 0 0 0 0 0 0 0 0 0 0 0 0 0 0 0
69 125 193 209 201 105 0 0 0 7 25 3 0 0 0 0 0 0 0 0 0 0 0 0 0 0 0 0 0 0 0 0 0 0 0 0 0 0 0 0 0 0 0
12 132 178 225 175 60 11 0 1 15 0 0 0 0 0 0 0 0 0 0 0 0 0 0 0 0 0 0 0 0 0 0 0 0 0 0 0 0 0 0 0 0 0
28 43 116 233 224 97 31 0 0 0 0 0 0 0 0 0 0 0 0 0 0 0 0 0 0 0 0 0 0 0 0 0 0 0 0 0 0 0 0 0 0 0 0
88 39 64 164 133 90 10 15 14 30 6 0 0 0 0 0 0 0 0 0 0 0 0 0 0 0 0 0 0 0 0 0 0 0 0 0 0 0 0 0 0 0 0
100 82 68 130 70 31 16 12 8 7 0 0 0 0 0 0 0 0 0 0 0 0 0 0 0 0 0 0 0 0 0 0 0 0 0 0 0 0 2 4 0 0 0
57 72 89 84 49 5 5 0 0 0 0 0 0 0 0 0 0 0 0 0 0 0 0 0 0 0 0 0 0 0 0 0 0 0 0 0 0 0 0 2 4 0 0

GFSSE_con_mlcape_066.txt.gz
CAPE
1062 497 640 913 934 971 891 691 629 556 442 351 160 27 1 0 0 0 0 0 0 94 232 290 274 180 129 154 30 0 0 0 0 0 0 0 0 0 0 0 0 0 0
1072 546 664 905 945 899 830 756 672 542 451 211 23 0 0 0 0 0 0 0 0 31 89 288 298 139 52 0 0 0 0 0 0 0 0 0 0 0 0 0 0 0 1
995 430 624 762 874 857 802 717 566 508 270 44 0 0 0 0 0 0 0 0 40 71 50 161 297 174 0 0 0 0 0 0 0 0 0 0 0 1 0 0 0 2 2
970 372 368 700 776 754 697 614 499 299 65 0 2 0 0 0 0 0 29 219 350 331 130 168 335 55 0 0 0 0 0 0 0 0 1 1 0 0 0 0 0 0 9
870 314 409 566 670 692 654 463 338 85 14 20 35 12 6 4 10 19 151 318 513 360 225 340 298 0 0 0 0 0 0 0 0 1 2 5 2 0 0 0 0 0 0
1037 426 491 438 536 643 475 355 124 23 31 62 74 35 20 22 20 6 56 160 394 441 444 409 12 0 0 0 0 0 0 0 0 3 10 3 2 0 0 0 0 0 4
741 600 544 495 541 603 487 272 38 39 67 80 78 62 63 47 23 4 7 81 162 362 276 16 0 0 0 0 0 0 0 0 0 0 4 8 5 0 0 0 0 0 1
118 531 743 393 499 520 366 153 66 66 95 120 106 102 120 81 62 25 25 24 31 28 0 0 0 0 0 0 0 0 0 0 0 0 2 6 1 1 0 0 0 0 0
327 445 299 293 326 294 130 129 68 101 127 183 138 112 83 75 48 28 18 0 0 0 0 0 0 0 0 0 0 0 0 0 0 0 0 3 5 1 0 0 0 0 0
475 275 62 1 2 0 5 129 211 127 178 162 76 30 34 36 39 0 1 0 0 0 0 0 0 0 0 0 0 0 0 0 0 0 0 0 5 4 0 0 0 0 0
165 7 2 1 11 3 0 23 230 217 183 149 63 15 2 1 4 12 25 6 0 0 0 0 0 0 0 0 0 0 0 0 0 0 0 0 3 8 1 0 0 0 0
5 4 4 9 1 6 1 8 165 204 114 66 17 13 11 17 14 13 13 0 0 0 0 0 0 0 0 0 0 0 0 0 0 0 0 0 0 3 1 0 1 0 0
4 5 3 6 5 0 0 0 38 58 129 47 39 18 46 50 16 15 0 0 0 0 0 0 0 0 0 0 0 0 0 0 0 0 0 0 0 1 3 2 1 0 0
2 2 9 5 0 0 0 6 59 167 144 63 32 47 59 33 32 18 0 0 0 0 0 0 0 0 0 0 0 0 0 0 0 0 0 0 0 0 4 3 1 0 0
2 0 1 7 0 0 0 23 22 59 62 29 42 28 17 16 11 16 0 0 0 0 0 0 0 0 0 0 0 0 0 0 0 0 0 0 0 0 10 0 0 0 0
2 2 1 0 0 0 94 104 33 19 59 25 20 50 77 16 58 3 0 0 0 0 0 0 0 0 0 0 0 0 0 0 0 0 0 0 0 0 0 0 0 0 0
11 23 0 9 62 85 217 119 1 0 0 0 0 115 227 203 93 1 0 0 0 0 0 0 0 0 0 0 0 0 0 0 0 0 0 0 0 0 0 0 0 0 0
0 0 0 56 163 288 318 84 0 0 2 16 98 290 389 328 47 0 0 0 0 0 0 0 0 0 0 0 0 0 0 0 0 0 0 0 0 0 0 0 0 0 0
0 0 5 200 365 473 317 82 32 26 30 162 399 414 372 287 29 0 0 0 0 0 0 0 0 0 0 0 0 0 0 0 0 0 0 0 0 0 0 0 0 0 0
3 74 144 249 381 413 466 174 27 15 31 408 528 508 217 105 2 0 0 0 0 0 0 0 0 0 0 0 0 0 0 0 0 0 0 0 0 0 0 0 0 0 0
61 102 164 239 390 510 439 106 13 41 186 436 507 489 208 51 0 0 0 0 0 0 0 0 0 0 0 0 0 0 0 0 0 0 0 0 0 0 0 0 0 0 0
252 257 250 364 586 597 320 72 10 23 78 302 357 224 66 0 0 0 0 0 0 0 0 0 0 0 0 0 0 0 0 0 0 0 0 0 0 0 0 0 0 0 0
217 285 359 516 546 583 324 107 69 213 280 277 156 92 22 0 0 0 0 0 0 0 0 0 0 0 0 0 0 0 0 0 0 0 0 0 0 0 0 0 0 0 0
242 195 390 548 593 612 413 196 56 83 156 233 235 128 0 0 0 0 0 0 0 0 0 0 0 0 0 0 0 0 0 0 0 0 0 0 0 0 0 0 0 0 0
312 321 244 387 528 655 645 449 293 246 336 429 189 22 0 0 0 0 0 0 0 0 0 0 0 0 0 0 0 0 0 0 0 0 0 0 0 0 0 0 0 0 0
600 570 466 362 386 533 697 624 558 502 551 170 42 0 0 0 0 0 0 0 0 0 0 0 0 0 0 0 0 0 0 0 0 0 0 0 0 0 0 0 0 0 2

GFSSE_con_mlcape_069.txt.gz
CAPE
907 775 1049 1331 1212 1046 837 714 628 491 492 356 137 9 0 0 0 0 0 48 189 305 332 239 219 125 5 0 0 0 0 0 0 0 0 0 0 0 0 0 0 0 1
809 821 1143 1416 1250 1081 920 742 665 628 517 273 27 0 0 0 0 0 0 173 284 321 308 231 164 0 0 0 0 0 0 0 0 0 0 0 0 0 1 0 0 2 3
959 821 1295 1325 1241 1135 962 853 777 654 408 88 4 0 0 0 0 2 70 157 228 381 303 178 0 0 0 0 0 0 0 0 0 10 8 0 0 0 0 0 12 8 4
1049 900 1354 1239 1231 1099 963 891 723 511 183 25 0 0 0 0 18 38 80 135 161 316 324 152 0 0 0 0 0 0 0 0 0 14 17 3 0 0 0 0 0 0 5
1036 731 1244 1178 1094 1016 930 782 565 258 50 13 10 5 5 39 67 158 253 367 253 313 383 54 0 0 0 0 0 0 0 0 1 1 3 0 0 0 0 0 0 0 0
603 648 744 977 1010 923 748 560 289 67 36 45 47 30 72 85 272 425 583 551 417 443 380 5 0 0 0 0 0 0 0 0 0 11 14 0 0 0 0 0 1 2 2
405 673 616 839 910 778 596 332 87 67 77 74 67 84 104 103 167 232 444 552 565 523 175 6 0 0 0 0 0 0 0 0 0 11 5 0 0 0 0 0 0 0 1
385 520 579 647 717 661 412 123 79 111 115 104 118 107 107 95 113 160 272 367 310 151 8 0 0 0 0 0 0 0 0 0 0 3 7 0 0 0 0 0 0 0 0
374 337 149 273 372 272 113 93 104 131 148 174 175 154 100 64 77 77 114 158 93 14 1 0 0 0 0 0 0 0 0 0 0 2 5 0 0 0 0 0 0 0 0
234 232 16 5 45 24 33 47 117 137 130 152 116 89 80 52 38 39 49 55 16 0 3 0 0 0 0 0 0 0 0 0 0 2 0 0 1 2 0 0 0 0 0
52 4 3 2 3 0 0 46 179 195 127 105 68 52 29 24 7 15 61 21 13 3 0 0 0 0 0 0 0 0 0 0 0 0 0 0 8 9 1 0 0 0 0
3 4 1 0 0 0 0 0 47 131 81 72 51 29 37 46 46 38 28 4 1 0 0 0 0 0 0 0 0 0 0 0 0 0 0 0 3 7 0 0 0 0 0
4 3 5 1 0 2 8 38 30 52 37 114 95 63 45 122 113 76 18 0 0 0 0 0 0 0 0 0 0 0 0 0 0 0 0 0 0 3 0 0 0 0 0
2 4 6 6 16 18 20 10 0 0 30 115 105 136 189 177 122 53 10 1 0 0 0 0 0 0 0 0 0 0 0 0 0 0 0 0 0 0 6 6 0 0 0
3 4 8 6 12 4 10 0 0 54 86 115 134 164 197 187 201 82 49 2 0 0 0 0 0 0 0 0 0 0 0 0 0 0 0 0 0 0 5 0 1 0 0
1 1 4 1 0 0 0 0 0 18 31 42 121 137 190 158 185 144 77 3 0 0 0 0 0 0 0 0 0 0 0 0 0 0 0 0 0 0 0 0 0 0 0
2 7 0 2 0 0 0 12 77 96 32 29 35 137 175 110 181 129 48 0 0 0 0 0 0 0 0 0 0 0 0 0 0 0 0 0 0 0 0 0 0 0 0
0 0 0 0 0 1 32 79 121 47 61 23 19 111 178 352 363 175 16 0 0 0 0 0 0 0 0 0 0 0 0 0 0 0 0 0 0 0 0 0 0 0 0
2 0 0 0 21 71 141 133 25 36 15 7 61 302 521 520 362 172 51 11 0 0 0 0 0 0 0 0 0 0 0 0 0 0 0 0 0 0 0 0 0 0 0
0 0 8 81 172 267 250 150 19 23 23 30 182 373 546 565 380 176 81 6 0 0 0 0 0 0 0 0 0 0 0 0 0 0 0 0 0 0 0 0 0 0 0
0 0 7 134 224 260 250 109 13 0 15 72 360 488 568 488 343 243 36 0 0 0 0 0 0 0 0 0 0 0 0 0 0 0 0 0 0 0 0 0 0 0 0
9 64 82 111 260 315 218 96 4 0 4 65 513 555 523 421 255 142 1 0 0 0 0 0 0 0 0 0 0 0 0 0 0 0 0 0 0 0 0 0 0 0 0
109 159 169 194 194 351 289 148 33 21 25 95 446 386 366 352 260 124 4 0 0 0 0 0 0 0 0 0 0 0 0 0 0 0 0 0 0 0 0 0 0 0 0
291 306 348 328 329 479 412 237 67 30 42 116 316 342 208 235 121 3 0 0 0 0 0 0 0 0 0 0 0 0 0 0 0 0 0 0 0 0 0 0 0 0 0
296 341 428 412 516 520 647 425 209 133 149 267 396 380 324 84 1 0 0 0 0 0 0 0 0 0 0 0 0 0 0 0 0 0 0 0 0 0 0 0 0 0 0
473 468 391 454 562 578 672 699 543 374 287 278 502 434 265 28 1 0 0 0 0 0 0 0 0 0 0 0 0 0 0 0 0 0 0 0 0 0 0 0 0 0 0

GFSSE_con_mlcape_072.txt.gz
CAPE
1079 1187 1564 1451 1050 822 634 536 373 284 258 75 9 0 0 0 35 43 124 177 270 223 189 72 0 0 0 0 0 0 0 0 0 0 0 1 0 0 0 0 0 2 4
923 1475 1544 1487 1197 950 736 586 483 461 274 73 10 0 0 0 0 43 236 266 255 255 120 0 0 0 0 0 0 0 0 0 0 0 0 0 4 4 18 15 6 8 8
0 1612 1707 1521 1268 1097 887 700 708 677 369 66 10 0 0 0 32 227 279 283 247 127 1 0 0 0 0 0 0 0 0 5 24 34 0 0 0 4 1 2 10 12 7
732 1623 1809 1623 1345 1154 975 892 883 672 267 38 0 0 0 48 189 342 306 424 282 102 0 0 0 0 0 0 0 0 0 1 14 10 0 0 0 0 1 0 0 4 10
963 1547 1715 1471 1298 1072 1050 920 732 451 113 19 0 0 35 118 237 276 263 392 326 111 0 0 0 0 0 0 0 0 0 0 0 0 0 0 0 0 0 0 1 2 4
800 1284 1247 1306 1170 1038 997 786 540 238 61 10 15 61 132 303 439 436 321 475 424 98 9 0 0 0 0 0 0 0 0 0 3 0 0 0 0 0 0 0 1 1 3
577 783 839 1001 1098 962 814 588 344 165 66 68 92 173 407 537 570 599 497 556 307 73 25 0 0 0 0 0 0 0 0 0 0 0 0 0 0 0 0 0 0 1 2
307 222 256 660 708 575 551 326 217 95 64 112 152 186 292 435 542 584 560 459 173 49 10 0 0 0 0 0 0 0 0 0 5 0 0 0 0 0 0 0 0 0 1
125 3 0 0 184 191 152 142 159 77 100 135 131 109 140 289 430 375 337 264 69 28 11 0 0 0 0 0 0 0 0 0 0 0 0 0 0 0 0 0 0 0 1
193 107 0 14 24 5 38 123 143 159 169 121 61 71 98 136 227 233 173 73 19 14 3 0 0 0 0 0 0 0 0 0 0 0 0 0 0 0 0 0 0 0 4
54 19 4 5 2 1 10 53 122 131 102 96 53 34 53 56 59 87 83 22 11 3 0 0 0 0 0 0 0 0 0 0 0 0 0 0 1 2 0 0 0 0 1
2 1 2 1 1 1 0 2 132 152 82 81 32 27 23 60 86 69 49 15 0 0 0 0 0 0 0 0 0 0 0 0 0 0 0 0 7 6 1 0 0 0 0
4 4 4 2 2 0 0 0 0 0 66 66 46 56 87 107 101 24 2 0 0 0 0 0 0 0 0 0 0 0 0 0 0 0 0 0 0 8 3 0 0 0 0
4 4 2 3 3 5 0 0 0 7 78 42 82 70 226 194 142 19 13 0 0 0 0 0 0 0 0 0 0 0 0 0 0 0 0 0 0 5 3 0 0 0 0
3 4 4 1 5 7 9 8 18 29 49 63 102 179 186 183 163 122 59 2 0 0 0 0 0 0 0 0 0 0 0 0 0 0 0 0 0 0 0 0 2 0 0
2 1 4 1 1 0 0 0 0 0 24 21 93 130 210 257 186 142 107 18 0 0 0 0 0 0 0 0 0 0 0 0 0 0 0 0 0 0 0 0 0 0 0
1 2 0 0 0 0 0 0 0 3 25 29 52 149 166 194 252 294 195 91 0 0 0 0 0 0 0 0 0 0 0 0 0 0 0 0 0 0 0 0 0 0 0
1 1 2 1 0 0 0 0 2 43 37 70 102 78 188 208 216 278 139 21 0 0 0 0 0 0 0 0 0 0 0 0 0 0 0 0 0 0 0 0 0 0 0
0 1 0 0 0 0 0 0 3 27 34 143 87 129 123 205 281 242 71 0 0 0 0 0 0 0 0 0 0 0 0 0 0 0 0 0 0 0 0 0 0 0 0
0 0 0 0 0 0 0 10 67 65 34 56 104 229 189 355 377 231 55 0 2 0 0 0 0 0 0 0 0 0 0 0 0 0 0 0 0 0 0 0 0 0 0
0 0 0 0 0 0 8 3 42 26 2 21 58 226 302 369 387 271 215 99 0 0 0 0 0 0 0 0 0 0 0 0 0 0 0 0 0 0 0 0 0 0 0
0 0 0 0 31 126 106 68 8 0 0 0 59 294 352 466 453 333 284 23 0 0 0 0 0 0 0 0 0 0 0 0 0 0 0 0 0 0 0 0 0 0 0
0 0 0 51 233 246 196 171 17 1 0 0 325 423 352 455 444 304 210 29 0 0 0 0 0 0 0 0 0 0 0 0 0 0 0 0 0 0 0 0 0 0 0
0 0 15 142 318 289 259 124 30 9 6 26 274 481 411 398 398 301 206 102 0 0 0 0 0 0 0 0 0 0 0 0 0 0 0 0 0 0 0 0 0 0 0
82 129 183 174 208 188 198 327 64 23 8 10 85 441 357 260 253 192 157 0 0 0 0 0 0 0 0 0 0 0 0 0 0 0 0 0 0 0 0 0 0 0 0
204 259 428 365 321 339 415 189 327 110 161 190 416 387 378 228 156 68 46 0 0 0 0 0 0 0 0 0 0 0 0 0 0 0 0 0 0 0 0 0 0 0 0

GFSSE_con_mlcape_075.txt.gz
CAPE
227 887 1349 1334 972 858 620 463 377 306 227 216 112 33 7 34 177 186 355 127 144 2 0 0 0 0 0 0 0 0 0 0 0 0 0 1 8 11 5 1 0 2 4
138 0 386 1289 1189 875 702 501 431 323 274 222 197 141 62 106 186 405 272 248 26 0 0 0 0 0 0 0 0 0 0 0 0 0 0 3 6 16 17 11 9 7 4
217 7 277 1113 1249 1087 833 677 508 356 256 223 146 121 86 153 354 264 259 127 0 0 0 0 0 0 0 0 0 0 12 5 0 0 0 0 2 4 6 6 7 5 6
86 16 389 780 1023 1076 894 789 516 372 255 184 109 92 162 308 418 354 175 14 0 0 0 0 0 0 0 0 0 0 0 0 0 0 0 0 0 2 2 1 5 9 14
0 3 9 708 879 936 925 742 464 274 203 99 26 136 276 502 490 426 91 0 0 0 0 0 0 0 0 0 0 0 0 0 0 0 0 0 0 1 1 1 3 6 13
0 132 106 821 823 912 972 748 360 263 135 23 114 298 462 481 478 463 169 30 0 0 0 0 0 0 0 0 0 0 0 0 0 0 0 0 0 0 0 2 2 5 6
421 406 349 270 817 960 992 570 285 161 21 24 170 394 547 451 400 583 150 33 0 0 0 0 0 0 0 0 0 0 0 0 0 0 0 0 0 0 0 0 1 3 4
269 251 140 103 433 624 681 345 156 66 12 124 367 551 637 559 485 591 103 11 0 0 0 0 0 0 0 0 0 0 0 0 0 0 0 0 0 0 0 0 1 4 6
47 6 13 21 0 219 315 146 85 98 167 242 379 503 530 557 606 431 131 26 20 0 0 0 0 0 0 0 0 0 0 0 0 0 0 0 0 0 0 0 1 5 5
6 0 1 44 53 2 34 91 94 126 138 82 196 339 404 433 367 256 132 36 25 13 0 0 0 0 0 0 0 0 0 0 0 0 0 0 0 0 0 0 1 3 4
9 0 0 4 0 21 35 90 92 89 38 32 88 163 123 127 133 138 56 33 27 8 0 0 0 0 0 0 0 0 0 0 0 0 0 0 0 0 0 0 0 1 3
28 2 1 1 0 0 0 30 91 59 4 2 0 12 15 49 77 72 50 39 17 0 0 0 0 0 0 0 0 0 0 0 0 0 0 0 0 0 0 0 0 0 0
1 1 2 1 2 1 1 4 41 35 1 0 0 0 10 22 36 24 18 15 0 0 0 0 0 0 0 0 0 0 0 0 0 0 0 0 0 1 1 0 0 0 0
2 3 3 1 0 0 0 0 0 1 1 24 0 8 27 8 3 10 0 0 0 0 0 0 0 0 0 0 0 0 0 0 0 0 0 0 0 3 3 1 0 0 0
2 3 3 2 1 0 0 0 0 0 1 15 35 48 61 19 10 2 0 0 0 0 0 0 0 0 0 0 0 0 0 0 0 0 0 0 0 0 4 3 0 0 0
2 1 2 2 0 4 0 0 0 0 4 30 80 114 139 91 24 37 11 0 0 0 0 0 0 0 0 0 0 0 0 0 0 0 0 0 0 0 0 0 0 0 0
2 1 0 1 2 0 0 0 0 0 1 23 84 136 161 180 73 76 27 12 0 0 0 0 0 0 0 0 0 0 0 0 0 0 0 0 0 0 0 0 0 0 0
0 0 0 1 0 0 0 0 0 0 0 0 50 108 152 167 124 146 49 38 4 0 0 0 0 0 0 0 0 0 0 0 0 0 0 0 0 0 0 0 0 0 0
0 1 1 0 0 0 0 0 0 0 0 7 3 18 63 76 116 142 125 13 0 0 0 0 0 0 0 0 0 0 0 0 0 0 0 0 0 0 0 0 0 0 0
1 1 0 0 0 0 0 0 0 0 0 0 0 0 0 1 108 145 69 0 0 0 0 0 0 0 0 0 0 0 0 0 0 0 0 0 0 0 0 0 0 0 0
0 2 0 0 0 0 0 0 0 0 0 0 0 0 18 69 123 140 32 0 0 0 0 0 0 0 0 0 0 0 0 0 0 0 0 0 0 0 0 0 0 0 0
0 0 0 0 0 0 0 0 0 0 0 0 0 25 69 128 161 183 139 60 0 0 0 0 0 0 0 0 0 0 0 0 0 0 0 0 0 0 0 0 0 0 0
0 0 0 0 0 0 0 0 0 0 0 0 0 61 105 141 188 253 169 83 10 0 0 0 0 0 0 0 0 0 0 0 0 0 0 0 0 0 0 0 0 0 0
0 0 0 0 0 0 0 0 0 0 0 0 0 0 83 193 240 245 235 167 4 0 0 0 0 0 0 0 0 0 0 0 0 0 0 0 0 0 0 0 0 0 0
0 0 0 0 0 1 4 1 5 0 0 0 6 66 143 190 249 324 270 150 35 0 0 0 0 0 0 0 0 0 0 0 0 0 0 0 0 0 0 0 0 0 0
0 0 0 0 0 34 46 41 54 1 0 0 18 115 188 219 259 288 185 135 59 0 0 0 0 0 0 0 0 0 0 0 0 0 0 0 0 0 0 0 0 0 0

GFSSE_con_mlcape_078.txt.gz
CAPE
1116 1249 1194 954 584 518 534 426 532 410 434 496 601 602 496 472 356 234 67 24 7 0 0 0 2 0 0 0 0 0 0 1 2 4 9 7 7 11 7 3 0 3 1
677 978 1179 1218 1253 1064 671 422 510 432 412 244 261 288 343 398 323 320 36 7 0 0 0 0 0 0 1 0 0 0 0 0 0 0 2 5 7 13 11 4 7 7 6
326 709 1082 1193 1185 1130 905 621 438 391 187 138 182 258 465 466 520 228 15 0 0 0 0 0 0 0 1 16 15 0 0 0 0 0 0 0 1 6 7 6 5 7 22
321 404 1009 723 592 997 929 616 529 382 207 166 171 314 597 636 521 99 2 0 0 0 0 0 0 0 0 0 0 0 0 0 0 0 0 0 0 4 9 9 9 27 31
390 202 895 399 76 455 1065 712 616 364 217 140 236 613 722 638 342 27 4 0 0 0 0 0 0 0 0 0 0 0 0 0 0 0 0 0 0 3 2 5 10 9 11
34 113 671 517 490 681 859 633 542 287 173 113 331 706 770 574 193 38 1 0 0 0 0 0 0 0 0 0 0 0 0 0 0 0 0 0 0 2 3 7 5 4 5
137 57 56 486 482 595 863 698 452 289 235 215 509 714 794 506 77 28 0 0 0 0 0 0 0 0 0 0 0 0 0 0 0 0 0 0 0 2 2 7 7 7 8
312 51 39 126 108 372 721 503 334 157 278 312 629 721 716 486 35 8 1 0 0 0 0 0 0 0 0 0 0 0 0 0 0 0 0 0 0 1 2 5 7 4 5
238 56 5 31 5 3 548 315 40 123 299 273 546 645 674 381 21 0 0 0 0 0 0 0 0 0 0 0 0 0 0 0 0 0 0 0 0 1 2 5 5 4 3
30 6 58 1 0 0 32 137 165 341 375 369 472 508 588 232 9 0 0 0 0 0 0 0 0 0 0 0 0 0 0 0 0 0 0 0 0 0 1 1 2 2 2
26 8 6 0 0 7 4 76 97 256 271 244 300 343 414 140 2 0 0 0 0 0 0 0 0 0 0 0 0 0 0 0 0 0 0 0 0 0 1 1 3 4 3
33 1 3 0 0 0 13 1 20 154 198 113 104 14 15 5 0 0 0 0 0 0 0 0 0 0 0 0 0 0 0 0 0 0 0 0 0 0 0 0 0 2 4
0 1 2 2 2 2 2 0 29 61 37 16 25 0 4 11 0 0 0 0 0 0 0 0 0 0 0 0 0 0 0 0 0 0 0 0 0 0 0 0 0 0 0
1 1 2 2 3 3 4 0 0 27 26 34 61 37 29 6 0 0 0 0 0 0 0 0 0 0 0 0 0 0 0 0 0 0 0 0 0 0 0 0 0 0 0
1 1 0 0 1 3 0 0 0 0 0 0 1 14 13 0 0 0 0 0 0 0 0 0 0 0 0 0 0 0 0 0 0 0 0 0 0 0 2 1 0 0 0
2 2 2 1 1 0 0 0 0 0 0 0 32 3 4 0 0 0 0 0 0 0 0 0 0 0 0 0 0 0 0 0 0 0 0 0 0 0 0 0 0 0 0
3 2 2 2 0 0 0 0 0 0 5 30 43 4 0 0 2 0 0 0 0 0 0 0 0 0 0 0 0 0 0 0 0 0 0 0 0 0 0 0 0 0 0
2 2 2 3 2 0 0 0 0 0 10 31 63 84 36 6 23 1 0 0 0 0 0 0 0 0 0 0 0 0 0 0 0 0 0 0 0 0 0 0 0 0 0
1 2 1 1 0 0 0 0 0 12 15 9 39 75 109 82 68 52 4 0 0 0 0 0 0 0 0 0 0 0 0 0 0 0 0 0 0 0 0 0 0 0 0
1 0 1 1 0 0 0 0 0 0 0 0 2 44 53 82 87 109 56 0 0 0 0 0 0 0 0 0 0 0 0 0 0 0 0 0 0 0 0 0 0 0 0
1 0 0 0 0 0 0 0 0 0 0 0 0 0 0 0 49 38 22 0 0 0 0 0 0 0 0 0 0 0 0 0 0 0 0 0 0 0 0 0 0 0 0
1 0 0 0 0 0 0 0 0 0 0 0 0 0 0 0 0 28 0 0 0 0 0 0 0 0 0 0 0 0 0 0 0 0 0 0 0 0 0 0 0 0 0
0 0 0 0 0 0 0 0 0 0 0 0 0 0 0 0 5 11 4 7 1 0 0 0 0 0 0 0 0 0 0 0 0 0 0 0 0 0 0 0 0 0 0
0 0 0 0 0 0 0 0 0 0 0 0 0 0 0 0 1 12 26 39 33 4 0 0 0 0 0 0 0 0 0 0 0 0 0 0 0 0 0 0 0 0 0
0 0 0 0 0 0 0 0 0 0 0 0 0 0 0 19 41 58 53 28 34 5 0 0 0 0 0 0 0 0 0 0 0 0 0 0 0 0 0 0 0 0 0
0 0 0 0 0 0 0 0 0 0 0 0 0 0 0 14 48 77 83 46 52 8 0 0 0 0 0 0 0 0 0 0 0 0 0 0 0 0 0 0 0 0 0

GFSSE_con_mlcape_081.txt.gz
CAPE
1223 1399 1321 1278 1271 1177 1122 718 223 631 559 656 568 472 532 530 486 373 215 23 0 0 0 0 0 1 0 1 3 2 0 1 8 9 8 6 9 10 5 4 2 1 9
1037 1528 1387 1354 1195 1086 1065 1150 629 95 83 325 413 554 578 499 359 271 58 0 0 0 2 3 4 2 0 0 0 0 0 0 0 5 12 16 7 3 2 5 9 4 8
1004 1283 1439 1251 1121 1034 983 990 1135 1038 403 327 476 609 531 382 254 92 0 3 3 3 8 10 10 7 2 2 0 0 0 0 0 0 0 0 9 13 14 34 42 36 24
874 1012 1555 1068 796 653 729 790 1099 1144 1094 915 777 647 566 347 230 69 7 7 33 4 10 11 10 2 0 0 0 0 0 0 0 0 0 0 7 8 21 25 24 29 34
592 796 1345 1220 762 495 389 731 888 955 849 874 793 785 576 367 199 54 3 5 43 6 7 0 0 0 0 0 0 0 0 0 0 0 0 0 0 8 11 3 5 13 12
461 441 1000 900 424 190 87 279 825 942 657 597 747 778 557 291 124 26 3 0 12 1 0 0 0 0 0 0 0 0 0 0 0 0 0 0 0 6 8 6 5 5 3
223 184 306 712 394 236 370 683 715 551 705 805 510 766 497 210 79 31 0 0 0 0 0 0 0 0 0 0 0 0 0 0 0 0 0 0 0 5 7 4 7 8 7
21 16 154 399 370 314 644 544 587 538 614 641 715 763 374 167 60 1 0 0 0 0 0 0 0 0 0 0 0 0 0 0 0 0 0 0 1 4 6 7 6 5 6
264 82 39 42 18 66 244 260 174 122 433 724 724 593 263 111 47 0 0 0 0 0 0 0 0 0 0 0 0 0 0 0 0 0 0 0 2 2 3 3 3 5 5
162 7 0 0 9 13 2 159 40 75 647 449 585 430 157 98 3 0 0 0 0 0 0 0 0 0 0 0 0 0 0 0 0 0 0 0 1 2 3 5 2 2 2
66 15 17 4 4 3 1 0 49 152 451 492 486 306 117 69 0 0 0 0 0 0 0 0 0 0 0 0 0 0 0 0 0 0 0 0 0 1 3 2 1 2 1
37 23 6 0 0 1 1 6 4 60 388 417 343 222 77 17 0 0 0 0 0 0 0 0 0 0 0 0 0 0 0 0 0 0 0 0 0 0 0 1 1 0 0
1 1 0 0 0 0 0 0 12 31 40 238 212 124 33 3 0 0 0 0 0 0 0 0 0 0 0 0 0 0 0 0 0 0 0 0 0 0 0 0 0 0 0
1 1 1 4 1 1 1 0 0 22 58 87 123 87 40 0 0 0 0 0 0 0 0 0 0 0 0 0 0 0 0 0 0 0 0 0 0 0 0 0 0 0 0
0 1 3 3 2 1 1 0 0 0 11 62 98 91 77 9 0 0 0 0 0 0 0 0 0 0 0 0 0 0 0 0 0 0 0 0 0 0 0 0 0 0 0
1 0 0 4 3 0 0 1 1 13 45 103 84 84 53 2 0 0 0 0 0 0 0 0 0 0 0 0 0 0 0 0 0 0 0 0 0 0 0 0 1 0 0
1 0 0 0 4 0 0 0 2 0 0 1 26 18 47 1 0 0 0 0 0 0 0 0 0 0 0 0 0 0 0 0 0 0 0 0 0 0 0 0 0 0 0
2 1 2 1 0 0 0 0 0 0 20 12 5 17 32 2 0 0 0 0 0 0 0 0 0 0 0 0 0 0 0 0 0 0 0 0 0 0 0 0 0 0 0
2 2 1 1 1 0 0 0 0 0 0 28 21 17 7 0 0 0 0 0 0 0 0 0 0 0 0 0 0 0 0 0 0 0 0 0 0 0 0 0 0 0 0
1 1 1 1 0 0 0 0 0 6 11 27 15 6 0 0 0 0 0 0 0 0 0 0 0 0 0 0 0 0 0 0 0 0 0 0 0 0 0 0 0 0 0
1 0 1 0 0 0 0 11 20 19 12 0 26 42 47 23 38 24 0 0 0 0 0 0 0 0 0 0 0 0 0 0 0 0 0 0 0 0 0 0 0 0 0
1 0 1 1 0 0 0 0 3 0 0 0 0 3 7 37 80 46 40 4 0 1 0 0 0 0 0 0 0 0 0 0 0 0 0 0 0 0 0 0 0 0 0
1 0 0 0 0 0 0 0 0 0 0 0 0 0 0 0 10 13 19 16 11 4 0 0 0 0 0 0 0 0 0 0 0 0 0 0 0 0 0 0 0 0 0
0 2 0 0 0 0 0 0 0 0 0 0 0 0 0 0 0 0 7 3 2 0 0 0 0 0 0 0 0 0 0 0 0 0 0 0 0 0 0 0 0 0 0
1 1 0 0 0 0 0 0 0 0 0 0 0 0 0 0 0 0 9 16 20 0 0 0 0 0 0 0 0 0 0 0 0 0 0 0 0 0 0 0 0 0 0
0 0 0 0 0 0 0 0 0 0 0 0 0 0 0 0 0 0 1 44 48 33 20 1 0 0 0 0 0 0 0 0 0 0 0 0 0 0 0 0 0 0 0

GFSSE_con_mlcape_084.txt.gz
CAPE
1063 1302 1181 1267 1144 1176 1342 1501 1383 1246 1105 999 625 763 771 744 643 564 393 207 94 7 1 4 2 2 3 8 11 9 3 4 4 6 5 6 8 9 1 2 1 9 16
1429 1429 1188 1296 1262 1054 1301 1416 1419 1318 1200 945 758 817 904 763 592 389 119 26 0 0 0 1 0 0 0 2 2 0 0 0 4 11 13 21 13 7 5 6 7 6 16
1457 1634 1235 1303 1359 1028 1261 1433 1389 1350 1132 960 823 774 825 674 412 117 106 75 34 1 2 2 0 0 0 0 1 0 0 0 0 0 2 1 18 47 46 43 32 36 23
1311 1592 1422 1244 1266 1182 911 1313 1342 1303 1198 906 767 706 634 559 189 212 177 88 50 27 8 7 10 6 0 0 0 1 1 0 0 0 0 0 13 33 26 28 20 19 21
1118 1237 1479 1417 1436 1313 880 1087 1276 1206 1079 923 613 392 456 321 166 263 177 91 63 49 50 14 8 1 0 0 0 0 0 0 0 0 0 0 3 1 3 8 11 9 7
655 443 1079 1275 1472 1473 1197 935 856 798 617 555 520 395 364 248 229 261 189 121 122 21 0 1 4 0 0 0 0 0 0 0 0 0 0 0 1 12 6 7 6 6 10
391 270 173 619 873 1280 1401 1292 1058 855 765 782 622 463 380 243 169 216 102 57 4 0 0 0 0 0 0 0 0 0 0 0 0 0 0 0 4 6 7 8 7 8 7
245 171 98 257 347 558 894 1159 1008 891 871 932 471 334 274 135 90 120 85 5 0 0 0 0 0 0 0 0 0 0 0 0 0 0 0 0 6 6 6 4 4 4 3
85 50 32 113 176 271 221 245 866 875 779 901 528 242 137 78 61 71 18 0 0 0 0 0 0 0 0 0 0 0 0 0 0 0 0 1 4 3 2 2 1 1 1
108 97 19 19 32 91 51 161 199 415 477 734 385 172 23 72 47 0 0 0 0 0 0 0 0 0 0 0 0 0 0 0 0 0 0 2 4 3 1 1 0 0 0
127 49 15 3 0 14 19 32 84 121 277 411 336 95 33 59 0 0 0 0 0 0 0 0 0 0 0 0 0 0 0 0 0 0 0 1 2 1 1 0 0 0 1
44 13 13 0 0 0 0 4 18 5 38 127 248 126 33 22 0 0 0 0 0 0 0 0 0 0 0 0 0 0 0 0 0 0 0 0 1 1 1 1 1 1 0
8 2 1 0 0 0 0 0 9 11 11 159 192 81 15 0 0 0 0 0 0 0 0 0 0 0 0 0 0 0 0 0 0 0 0 0 1 2 2 2 2 0 0
11 3 0 1 0 0 2 1 3 7 41 76 86 57 14 0 0 0 0 0 0 0 0 0 0 0 0 0 0 0 0 0 0 0 0 0 0 0 1 1 1 0 0
19 4 2 1 1 1 0 1 1 25 57 55 133 71 23 0 0 0 0 0 0 0 0 0 0 0 0 0 0 0 0 0 0 0 0 0 0 1 1 0 0 0 0
0 2 1 1 1 0 0 0 0 0 19 46 91 83 21 3 0 0 0 0 0 0 0 0 0 0 0 0 0 0 0 0 0 0 0 0 0 0 1 1 0 0 0
1 0 2 2 0 0 1 0 0 6 0 29 65 65 23 9 7 0 0 0 0 0 0 0 0 0 0 0 0 0 0 0 0 0 0 0 0 0 0 0 0 0 0
0 1 1 3 2 0 3 3 4 4 10 38 40 40 55 15 0 0 0 0 0 0 0 0 0 0 0 0 0 0 0 0 0 0 0 0 0 0 0 0 0 0 0
1 2 0 0 2 0 2 2 0 4 13 27 35 18 23 11 11 0 0 0 0 0 0 0 0 0 0 0 0 0 0 0 0 0 0 0 0 0 0 0 0 0 0
1 1 1 0 0 0 0 0 0 3 37 31 14 33 32 31 4 0 0 0 0 0 0 0 0 0 0 0 0 0 0 0 0 0 0 0 0 0 0 0 0 0 0
1 1 0 0 2 0 0 0 0 0 0 0 0 12 36 14 1 0 0 0 0 0 0 0 0 0 0 0 0 0 0 0 0 0 0 0 0 0 0 0 0 0 0
0 1 1 0 0 0 0 0 6 0 10 16 24 17 39 30 14 1 0 0 0 0 0 0 0 0 0 0 0 0 0 0 0 0 0 0 0 0 0 0 0 0 0
0 0 0 0 0 0 0 2 0 4 12 36 31 9 37 47 56 62 53 39 8 0 0 0 0 0 0 0 0 0 0 0 0 0 0 0 0 0 0 0 0 0 0
0 0 0 0 0 0 0 0 0 0 2 1 0 2 7 17 41 50 47 47 30 0 0 0 0 0 0 0 0 0 0 0 0 0 0 0 0 0 0 0 0 0 0
0 0 0 0 0 0 0 0 0 0 0 0 0 0 0 0 0 0 0 0 0 0 0 0 0 0 0 0 0 0 0 0 0 0 0 0 0 0 0 0 0 0 0
1 0 0 0 0 0 0 0 0 0 0 0 0 0 0 0 0 0 0 0 0 0 0 0 0 0 0 0 0 0 0 0 0 0 0 0 0 0 0 0 0 0 0

GFSSE_con_mlcape_087.txt.gz
CAPE
989 1245 919 1044 1125 1387 1721 1556 1139 1010 1028 971 892 577 431 600 638 743 669 543 358 148 47 8 10 10 8 9 7 5 6 8 7 5 8 10 4 4 2 1 7 19 21
1217 1523 928 1220 1135 1362 1692 1552 1330 1310 1205 1219 952 805 304 657 829 747 562 372 205 21 8 7 8 12 15 15 12 12 13 8 6 6 2 6 7 5 1 2 7 8 8
1444 1568 1411 1376 1310 1425 1714 1742 1528 1441 1378 1210 991 1061 697 793 741 504 309 164 20 4 5 6 10 14 20 16 13 8 4 2 3 3 8 16 25 19 17 12 8 1 0
1523 1646 1510 1211 1075 1525 1712 1798 1729 1662 1422 1246 1229 1124 857 593 419 253 183 96 4 3 3 6 7 4 5 4 1 0 0 0 0 1 15 28 25 29 19 16 14 8 11
1070 1574 1558 1291 1024 1301 1619 1842 1814 1706 1505 1339 1203 931 610 432 392 306 262 75 19 6 12 5 0 0 1 0 0 0 0 0 0 1 6 3 4 16 13 9 7 6 8
746 875 903 1047 903 1253 1646 1810 1780 1609 1433 1300 1176 829 521 410 413 281 198 62 9 3 74 6 0 0 0 0 0 0 0 0 0 1 2 2 3 11 4 3 6 6 4
664 720 670 566 527 700 1556 1710 1640 1488 1258 1064 978 658 506 482 347 226 102 138 97 51 26 2 0 0 0 0 0 0 0 0 0 0 0 2 8 9 8 8 9 7 7
464 340 185 391 296 359 488 1292 1407 1315 1086 838 737 538 504 429 246 196 161 61 0 29 24 0 0 0 0 0 0 0 0 0 0 0 1 3 10 9 9 6 7 4 3
139 262 189 176 118 4 225 366 668 1036 867 763 560 443 417 254 185 158 28 0 0 43 0 0 0 0 0 0 0 0 0 0 0 0 0 1 10 9 8 6 3 4 3
106 104 152 159 213 58 172 137 205 360 831 628 422 342 233 205 141 50 0 0 0 79 0 0 0 0 0 0 0 0 0 0 0 0 0 2 6 8 5 3 3 1 1
152 84 45 58 117 185 53 112 135 336 470 493 356 160 92 155 84 0 0 0 21 31 0 0 0 0 0 0 0 0 0 0 0 0 0 6 6 5 3 3 1 1 1
110 51 2 1 2 5 103 84 126 212 362 291 225 126 105 97 16 0 0 0 0 6 0 0 0 0 0 0 0 0 0 0 0 0 2 7 7 5 3 1 1 2 2
45 17 2 2 0 4 2 39 170 87 230 176 153 119 56 8 0 0 0 0 0 0 0 0 0 0 0 0 0 0 0 0 0 0 0 3 4 3 2 1 1 0 0
22 39 6 0 0 0 0 0 38 56 86 106 72 74 9 0 0 0 0 0 0 0 11 7 0 0 0 0 0 0 0 0 0 0 0 1 2 4 3 1 0 0 0
10 2 1 0 0 0 0 2 3 11 42 70 62 56 0 0 0 0 0 0 0 0 0 0 0 0 0 0 0 0 0 0 0 0 0 0 0 0 1 1 0 0 0
0 11 1 1 0 0 1 4 14 10 48 24 32 2 0 0 0 0 0 0 0 0 0 0 0 0 0 0 0 0 0 0 0 0 0 0 0 0 0 1 0 0 0
1 1 1 0 0 0 0 1 4 28 10 0 11 34 0 0 0 0 0 0 0 0 0 0 0 0 0 0 0 0 0 0 0 0 0 0 0 0 0 0 0 0 0
1 1 2 1 0 0 0 1 2 2 2 12 9 26 17 4 0 0 0 0 0 0 0 0 0 0 0 0 0 0 0 0 0 0 0 0 0 0 0 0 0 0 0
2 1 1 2 0 0 0 2 2 0 9 1 19 52 38 15 0 0 0 0 0 0 0 0 0 0 0 0 0 0 0 0 0 0 0 0 0 0 1 0 0 0 0
2 0 1 2 0 0 0 0 0 1 0 3 2 58 81 58 14 0 1 0 0 0 0 0 0 0 0 0 0 0 0 0 0 0 0 0 0 0 0 0 0 0 0
3 1 0 1 0 0 0 1 0 1 5 0 0 31 52 38 27 11 0 0 0 0 0 0 0 0 0 0 0 0 0 0 0 0 0 0 0 0 0 0 0 0 0
2 1 1 1 0 0 0 0 0 0 6 9 18 11 20 20 18 12 1 0 0 0 0 0 0 0 0 0 0 0 0 0 0 0 0 0 0 0 0 0 0 0 0
1 1 1 1 1 0 0 0 0 0 4 7 0 7 21 18 5 1 1 3 4 2 0 0 0 0 0 0 0 0 0 0 0 0 0 0 0 0 0 0 0 0 0
0 1 1 1 1 1 0 0 0 0 0 0 0 2 6 2 15 6 4 9 2 6 6 0 0 0 0 0 0 0 0 0 0 0 0 0 0 0 0 0 0 0 0
1 0 1 0 0 0 1 0 0 0 0 0 0 0 1 21 13 24 34 46 48 30 13 13 0 0 0 0 0 0 0 0 0 0 0 0 0 0 0 0 0 0 0
0 0 0 0 0 0 0 0 0 0 0 0 0 0 0 5 16 22 53 52 47 37 29 27 26 18 2 0 0 0 0 0 0 0 0 0 0 0 0 0 0 0 0

GFSSE_con_mlcape_090.txt.gz
CAPE
1494 1204 1035 1293 1373 1694 1663 1350 1224 1140 1077 1076 968 777 643 933 772 751 514 450 331 208 183 35 6 2 18 16 9 7 7 9 6 8 10 11 6 4 6 7 24 24 24
1487 1483 1091 1323 1385 1700 1886 1414 1311 1327 1256 1170 961 839 830 1108 994 718 731 602 403 178 49 16 11 6 13 7 3 3 3 0 4 1 2 3 0 9 5 7 11 10 5
1528 1617 1353 1368 1379 1722 1816 1606 1374 1397 1358 1240 962 992 1009 1240 1180 757 692 502 250 88 14 10 15 18 15 4 0 0 0 0 0 0 1 3 12 6 1 0 7 3 2
1211 1755 1572 1368 1222 999 1449 1733 1603 1576 1540 1269 1050 1007 1025 1155 1151 818 500 253 79 8 5 8 17 16 13 3 0 0 0 0 0 9 9 13 21 16 11 4 7 3 3
720 1817 1664 1370 1187 1043 425 1830 1484 1853 1571 1336 1196 1241 1241 1167 900 609 245 70 1 2 4 4 5 13 2 0 0 0 0 0 0 16 27 6 15 16 8 4 6 3 2
831 1277 1431 1242 1088 813 1368 1598 1164 1293 1469 1331 1298 1266 1148 975 756 351 154 41 0 0 6 5 7 6 0 0 0 0 0 0 0 3 6 5 7 6 6 0 6 0 3
763 1199 1052 610 677 317 457 698 1069 1401 1399 1337 1281 1149 1069 886 645 249 138 100 79 2 1 0 0 0 0 0 0 0 0 0 0 0 0 0 4 7 7 4 4 5 4
950 1097 909 530 762 162 8 0 437 1320 1332 1222 1132 1102 1038 834 538 223 144 148 159 0 0 0 0 0 0 0 0 0 0 0 0 0 0 0 5 9 6 6 4 4 4
716 757 662 718 781 122 0 0 0 1168 1232 1176 959 1019 929 718 340 297 263 167 119 0 0 0 0 0 0 0 0 0 0 0 0 0 0 0 10 4 6 4 4 3 2
435 551 555 487 302 214 54 32 54 696 695 915 760 843 691 492 387 208 113 83 18 0 0 0 0 0 0 0 0 0 0 0 0 0 0 0 4 5 6 5 5 4 2
339 230 143 221 153 64 79 190 71 160 349 470 580 614 438 393 222 122 71 75 5 0 0 0 0 0 0 0 0 0 0 0 0 0 0 3 5 5 5 4 4 4 2
494 187 96 105 207 83 91 149 81 39 150 368 541 491 363 283 146 80 55 79 3 0 0 0 0 0 0 0 0 0 0 0 0 0 0 5 9 8 6 3 4 2 1
226 160 82 7 20 20 103 68 90 55 127 223 342 281 297 227 82 13 27 62 3 0 0 0 0 0 0 0 0 0 0 0 0 0 0 3 8 9 5 3 1 1 1
93 121 18 15 8 1 0 37 65 45 68 39 61 93 170 114 25 6 1 18 2 0 0 0 0 0 0 0 0 0 0 0 0 0 1 5 4 5 2 2 1 0 0
16 12 4 4 4 3 0 1 7 75 74 46 51 73 92 71 3 0 5 6 11 0 1 0 0 1 0 0 0 0 0 0 0 0 0 3 3 4 4 2 1 0 0
15 1 1 1 1 1 0 0 0 33 49 63 51 46 52 23 0 0 0 0 2 23 24 5 0 0 0 0 0 0 0 0 0 0 0 0 0 3 3 2 1 0 0
4 1 1 1 1 0 0 1 2 0 62 40 20 20 15 39 2 0 0 0 0 0 0 0 0 0 0 0 0 0 0 0 0 0 0 0 0 0 0 0 0 0 0
2 2 2 1 1 1 0 0 6 54 4 7 5 11 18 21 2 0 0 0 0 0 0 0 0 0 0 0 0 0 0 0 0 0 0 0 0 0 0 0 0 0 0
2 1 2 0 2 1 0 2 1 2 2 9 15 0 38 27 3 0 2 0 0 0 0 0 0 0 0 0 0 0 0 0 0 0 0 0 0 0 2 0 0 0 0
2 2 3 3 0 0 1 2 4 4 6 6 12 17 53 13 2 0 0 0 0 0 0 0 0 0 0 0 0 0 0 0 0 0 0 0 0 0 0 8 1 3 0
1 2 3 4 3 0 0 2 2 3 3 10 13 44 52 33 20 9 4 1 0 2 0 0 0 0 0 0 0 0 0 0 0 0 0 0 0 0 0 0 1 0 0
2 1 3 5 2 3 0 0 1 1 3 8 13 59 77 48 46 66 38 23 42 2 1 0 0 0 0 0 0 0 0 0 0 0 0 0 0 0 0 0 0 0 0
4 3 3 4 4 2 10 0 0 0 0 0 4 19 62 37 73 63 51 40 39 32 23 23 26 67 62 3 0 12 50 29 38 0 0 0 0 0 0 0 0 0 0
8 5 5 3 4 4 0 0 0 0 0 0 0 2 31 69 64 55 50 40 46 26 19 59 89 97 73 70 2 0 1 19 39 35 0 0 0 0 0 0 0 0 0
3 9 8 4 4 3 5 0 0 0 11 2 2 0 1 11 10 14 33 40 43 50 52 89 88 97 73 92 78 42 1 3 0 5 9 17 0 0 0 0 0 0 0
0 2 12 7 4 3 3 1 0 0 0 1 0 2 2 0 2 3 19 48 61 67 64 108 129 134 116 107 127 97 76 27 9 6 0 1 33 7 0 0 0 0 0

GFSSE_con_mlcape_093.txt.gz
CAPE
1239 1553 1072 1138 1421 1698 1419 1305 1285 1241 1180 1135 799 832 1077 998 949 801 590 490 356 320 226 292 354 365 209 84 15 7 0 0 5 10 24 65 73 40 30 21 48 42 15
1321 1699 1247 1134 1363 1779 1610 1402 1446 1451 1393 1262 966 1013 1134 1099 966 736 540 698 644 407 145 34 72 55 7 0 0 0 0 0 1 1 1 6 16 12 4 0 6 8 9
972 1591 1528 1239 1351 1747 1792 1439 1539 1607 1607 1466 1182 1119 1162 1128 1005 1017 845 704 553 279 44 0 5 3 1 0 0 0 0 0 0 0 6 20 15 5 1 3 3 4 3
764 1621 1870 1375 1319 1564 1643 1549 1507 1623 1577 1457 1247 1248 1328 1094 1116 1113 863 583 293 126 45 10 10 14 2 0 0 0 0 0 0 10 6 10 16 12 6 4 3 4 4
761 1251 1949 1487 1180 1200 1290 1390 912 1277 1248 1387 1308 1351 1409 1326 1227 1000 649 354 144 82 84 41 23 15 0 0 0 0 0 0 1 17 6 12 8 8 4 3 1 1 0
619 875 1630 1394 1306 1160 1053 1079 1281 1140 799 1316 1260 1340 1457 1303 1103 739 327 130 121 48 25 26 14 2 0 0 0 0 0 0 4 12 15 7 6 20 6 0 0 2 2
975 800 1557 1330 1099 1052 977 482 313 797 671 1144 1190 1374 1345 1207 817 471 179 82 46 29 1 4 8 2 0 0 0 0 0 0 1 3 4 2 11 10 6 5 4 3 4
1158 1144 1267 1131 704 807 720 64 0 4 428 840 1213 1252 1173 947 627 279 136 131 72 0 0 0 0 0 0 0 0 0 0 0 1 2 1 1 8 6 6 5 3 2 1
989 1023 1076 1153 1135 668 457 26 0 15 2 240 915 1107 949 750 451 218 283 168 0 0 0 0 0 0 0 0 0 0 0 0 3 0 0 3 6 6 7 4 2 3 4
902 898 944 859 971 1002 561 64 19 0 54 265 550 896 761 552 398 460 306 87 0 0 0 0 0 0 0 0 0 0 0 0 0 0 0 1 6 5 3 3 2 2 3
672 672 614 550 778 539 339 68 2 0 5 55 451 708 547 469 382 377 275 51 0 0 0 0 0 0 0 0 0 0 0 4 2 0 0 2 5 5 3 2 2 3 4
812 431 164 315 479 443 108 72 42 0 0 2 479 509 493 471 362 274 181 6 0 0 0 0 0 0 0 0 0 0 1 8 2 0 0 2 4 5 2 2 3 2 2
341 358 141 113 203 245 115 103 41 2 1 44 399 353 336 457 253 231 109 0 0 0 0 0 0 0 0 0 0 0 0 7 3 0 0 2 4 5 3 3 4 4 2
82 173 123 33 63 132 139 138 54 41 0 136 294 229 269 250 105 117 113 10 0 0 0 0 0 0 0 0 0 0 0 3 4 0 0 2 3 4 5 3 3 3 3
4 10 37 28 56 61 44 11 97 35 5 84 76 162 194 94 80 74 76 43 0 2 0 0 0 0 0 0 0 0 0 1 1 0 0 0 1 2 5 5 3 1 0
2 12 7 5 8 1 44 2 3 74 34 21 3 19 53 86 24 84 99 75 23 2 3 0 1 0 0 0 0 0 0 0 1 0 0 0 0 3 6 7 4 1 1
7 6 2 1 1 0 0 1 8 31 50 8 0 10 33 36 47 90 169 123 73 46 42 19 1 0 0 0 0 0 0 0 0 2 0 0 0 1 2 1 0 1 0
12 7 3 3 1 2 3 3 3 0 19 49 3 26 31 12 51 65 98 112 151 104 32 5 0 0 0 0 0 0 0 0 0 0 2 2 0 0 0 0 0 0 0
12 4 3 1 3 5 4 0 2 11 26 26 7 5 5 9 45 62 39 34 31 17 0 1 0 0 0 0 0 0 0 0 0 0 0 0 0 0 0 0 0 0 0
3 3 2 2 4 3 2 2 2 11 4 2 0 0 1 7 30 38 8 0 1 0 0 0 0 0 0 0 0 0 0 0 0 0 0 0 0 0 1 2 0 0 0
3 5 4 2 2 2 3 1 1 1 2 2 0 0 2 15 24 35 16 1 0 0 0 0 0 0 0 0 0 0 0 0 0 0 0 0 0 0 0 0 10 0 0
2 3 3 5 1 3 4 2 1 2 2 3 1 3 10 24 45 45 30 9 4 14 2 8 14 9 1 0 0 7 10 0 0 0 0 0 0 0 0 0 0 2 5
1 3 4 4 3 3 2 4 3 1 3 1 2 1 5 27 41 44 9 32 47 14 65 68 53 24 21 0 0 54 61 35 30 0 0 0 0 0 0 0 0 0 0
4 4 1 5 1 6 9 5 2 0 0 7 9 16 37 67 67 45 66 72 56 109 120 55 63 54 111 92 53 3 46 73 80 47 18 0 0 0 0 0 0 0 0
0 3 6 2 1 7 1 2 1 1 0 1 14 21 41 16 10 16 43 74 68 87 122 65 120 165 156 134 73 74 43 42 46 59 7 35 17 0 0 0 0 0 0
1 1 11 7 4 3 6 3 4 0 0 1 0 4 12 7 0 27 115 67 136 131 116 133 152 147 140 120 140 93 84 46 30 31 15 19 53 34 7 0 0 0 0

GFSSE_con_mlcape_096.txt.gz
CAPE
1598 1299 1089 1341 1554 1224 1192 1251 1298 1178 1038 1048 836 832 965 818 728 565 401 292 314 269 289 450 528 534 452 352 241 174 145 131 169 124 144 158 120 89 34 35 6 15 12
1244 1684 1156 1150 1650 1474 1268 1214 1348 1335 1294 1150 1013 1100 1150 891 791 644 584 547 498 569 670 539 353 242 196 92 29 0 0 1 15 19 15 89 50 13 8 6 9 8 3
964 1651 1537 1212 1511 1772 1505 1314 1369 1403 1422 1178 1109 1136 1209 991 791 700 887 854 678 545 472 335 190 64 20 0 0 0 0 1 11 2 0 0 7 9 4 2 7 11 12
606 1469 2022 1398 1383 1819 1740 1474 1472 1490 1563 1243 1126 1092 1179 1043 783 909 963 728 563 359 251 181 110 12 0 0 0 0 0 0 20 8 0 1 13 10 2 7 9 4 9
630 1060 1992 1632 1385 1485 1798 1642 1452 1387 1424 1336 1132 1068 1123 1043 973 1009 841 592 379 231 98 73 43 0 0 0 0 0 0 0 0 0 1 4 6 10 8 4 4 3 2
609 917 1703 1594 1425 1252 1484 1532 1153 681 726 1068 1100 997 1161 1200 1128 866 648 502 485 328 95 60 20 0 0 0 0 0 0 1 0 0 1 10 8 19 10 2 5 4 6
1067 1118 1608 1556 1376 1159 1326 1321 998 407 269 425 763 580 865 944 821 644 489 403 386 241 117 71 1 0 0 0 0 0 0 0 4 0 1 0 10 3 6 8 10 10 7
1271 1282 1455 1406 1307 1135 1056 766 409 262 86 275 223 430 855 719 607 481 342 226 223 166 59 40 1 0 0 0 0 0 0 0 2 0 0 0 9 13 10 7 7 4 4
1095 1255 1474 1555 1202 863 841 563 352 127 0 25 3 13 757 652 442 361 215 139 97 47 23 4 0 0 0 0 0 0 0 0 0 0 0 2 11 12 9 5 3 3 3
985 1108 1080 1015 1109 1241 587 175 13 17 13 0 0 0 275 267 311 300 181 71 28 7 2 0 0 0 0 0 0 0 0 2 0 0 0 4 9 11 8 5 3 3 2
819 833 676 677 857 1042 771 150 13 25 0 0 0 0 175 263 271 278 50 9 2 1 1 0 0 0 0 0 0 0 0 0 0 0 0 4 7 6 5 3 3 3 4
1015 761 337 429 581 514 358 128 39 36 34 3 2 0 229 297 413 280 25 0 0 0 0 0 0 0 0 0 0 0 0 3 0 0 0 7 6 6 5 6 4 5 3
637 437 167 113 366 309 134 70 40 1 2 3 0 0 200 328 332 162 5 0 0 0 0 0 0 0 0 0 0 0 0 0 0 0 1 3 3 3 5 4 2 2 1
411 509 194 151 56 43 94 81 39 0 0 0 0 4 194 225 274 61 0 0 0 0 0 0 0 0 0 0 0 0 0 1 0 0 0 2 3 6 7 4 2 2 1
111 105 119 20 19 40 25 46 43 34 3 7 21 34 148 122 205 61 0 0 0 0 0 0 0 0 0 0 0 0 0 1 0 0 0 0 1 6 6 5 1 2 2
0 15 22 5 7 7 26 19 62 8 0 2 37 160 106 99 100 55 0 0 0 0 0 0 0 0 0 0 0 0 0 1 0 0 0 0 0 1 3 2 1 1 0
0 1 11 2 2 0 10 0 5 21 0 21 29 34 116 95 74 17 11 0 0 0 0 0 0 0 0 0 0 0 0 0 0 0 0 0 0 0 0 1 0 1 0
1 1 15 1 1 0 9 1 0 10 2 0 14 26 17 29 49 38 75 29 28 4 0 11 0 0 0 0 0 0 0 0 0 0 0 0 0 0 0 0 0 0 0
3 3 1 2 0 0 0 1 1 0 7 1 1 7 28 19 45 99 83 88 66 79 33 3 0 0 0 0 0 0 0 0 0 0 0 0 0 0 0 0 0 0 0
0 1 0 0 6 1 0 0 3 15 19 41 0 0 21 9 57 81 38 50 59 40 7 0 0 0 0 0 0 0 0 0 0 0 0 0 0 0 0 0 0 0 0
0 1 1 1 1 1 1 1 2 9 19 16 7 0 11 5 27 18 4 0 0 0 0 0 0 0 0 0 0 0 0 0 0 0 0 0 0 0 0 0 0 0 0
1 1 3 0 1 5 1 1 1 1 1 1 1 0 0 0 1 4 14 5 0 0 0 0 0 0 0 0 0 0 0 0 0 0 0 0 0 0 0 0 0 0 0
1 1 2 3 4 1 1 1 2 1 2 1 2 1 0 0 0 0 22 8 14 1 0 1 0 0 0 0 0 6 54 31 0 0 0 0 0 0 0 0 0 0 0
0 0 2 5 10 0 2 1 0 1 1 1 0 0 0 1 0 25 26 36 7 7 11 12 11 20 17 6 0 0 5 61 61 0 0 0 0 0 0 0 0 0 0
0 5 2 1 6 0 0 0 0 0 0 0 0 0 0 0 0 6 5 16 36 45 31 59 60 36 30 119 59 81 27 18 8 4 0 7 0 0 0 0 0 0 0
0 1 3 3 3 1 7 0 0 0 1 0 0 0 0 0 9 12 21 57 75 31 21 26 40 41 58 120 111 106 75 55 25 11 5 0 6 2 1 0 0 0 0

GFSSE_con_mlcape_099.txt.gz
CAPE
1150 1341 1368 1242 1215 1227 1127 1062 1122 961 854 839 809 839 824 780 720 647 527 421 404 579 660 855 722 664 698 639 438 388 347 344 314 259 200 157 170 139 111 78 86 62 62
1320 1344 1516 1391 1305 1250 1294 1205 1036 1125 1071 918 921 865 843 772 633 484 393 284 359 529 663 799 616 563 592 348 229 190 166 162 198 174 131 168 114 48 17 6 4 9 12
1533 1309 1458 1547 1436 1364 1353 1343 1258 1176 1074 1039 908 812 848 756 610 422 354 509 869 790 491 433 504 501 385 124 80 42 27 7 6 1 3 4 5 14 15 13 9 15 16
1469 1502 1395 1576 1566 1505 1435 1442 1452 1427 1180 1103 954 888 839 758 633 652 658 789 846 610 454 434 422 365 144 31 11 7 10 0 0 0 0 4 12 18 10 10 13 10 11
1206 1773 1664 1555 1647 1726 1627 1525 1518 1605 1464 1128 998 1168 1086 889 832 795 640 547 573 548 372 229 262 76 34 22 8 0 0 0 0 0 0 1 3 20 15 9 3 6 6
690 1367 1708 1622 1654 1760 1837 1665 1664 1594 1484 1248 1169 1078 1113 1005 1126 859 569 448 432 385 271 52 36 0 0 0 0 0 0 0 0 0 0 7 17 22 10 11 7 3 4
960 1318 1555 1525 1572 1714 1961 1841 1482 1217 1280 947 650 566 318 62 891 738 467 395 338 191 137 65 1 0 0 0 0 0 0 0 0 0 0 6 10 12 6 1 2 2 1
932 1330 1450 1478 1450 1397 1550 1910 1374 873 637 428 41 317 189 281 636 569 486 403 367 199 55 9 0 0 0 0 0 0 0 0 0 0 0 1 17 8 8 1 7 7 7
677 1050 1339 1340 1315 1274 1224 1253 873 515 434 387 348 148 51 75 283 499 436 432 338 141 25 1 0 0 0 0 0 0 0 0 0 0 0 1 4 12 9 9 4 4 9
741 907 828 1036 1010 1000 903 676 503 159 262 216 123 28 27 21 145 338 345 324 203 70 6 0 0 0 0 0 0 0 0 0 0 0 0 3 5 6 10 8 10 7 7
633 743 657 672 711 1018 572 183 86 107 53 28 27 2 0 0 109 218 216 166 95 28 2 0 0 0 0 0 0 0 0 0 0 0 0 3 8 6 8 7 7 4 4
732 593 319 338 459 934 518 153 15 0 0 0 0 0 0 0 20 193 141 59 16 9 7 0 0 0 0 0 0 0 0 0 0 0 0 2 5 4 6 7 6 4 4
671 527 156 176 386 456 194 49 1 5 12 0 0 0 0 9 169 64 16 2 0 0 0 0 0 0 0 0 0 0 0 0 0 0 0 2 4 5 6 5 4 2 2
500 254 76 43 162 81 35 9 1 0 12 4 1 0 0 22 83 14 1 1 0 0 0 0 0 0 0 0 0 0 0 0 0 0 0 0 1 4 5 3 1 2 1
341 236 55 38 0 0 17 32 10 0 1 6 1 0 0 50 25 1 0 0 0 0 0 0 0 0 0 0 0 0 0 0 0 0 0 0 0 4 4 2 1 0 0
107 76 28 1 5 5 15 32 27 1 6 7 9 0 3 91 6 0 0 0 0 0 0 0 0 0 0 0 0 0 0 0 0 0 0 0 0 0 2 1 1 0 1
1 1 0 1 4 2 10 22 22 0 0 13 1 0 74 71 4 0 0 0 0 0 0 0 0 0 0 0 0 0 0 0 0 0 0 0 0 0 0 0 0 0 1
0 0 0 0 0 2 1 0 8 0 2 1 21 0 9 69 7 0 0 0 0 0 0 0 0 0 0 0 0 0 0 0 0 0 0 0 0 0 0 0 0 0 0
0 0 0 0 0 0 6 0 0 2 1 6 3 7 22 13 0 0 0 0 0 0 0 0 0 0 0 0 0 0 0 0 0 0 0 0 0 0 0 0 0 0 0
0 0 0 0 0 1 0 0 1 5 0 0 5 13 6 7 4 1 0 0 0 0 0 0 0 0 0 0 0 0 0 0 0 0 0 0 0 0 0 0 0 0 0
0 0 0 0 1 0 0 1 0 3 5 0 0 0 7 9 19 17 0 0 0 0 0 0 0 0 0 0 0 0 0 0 0 0 0 0 0 0 0 0 0 0 0
0 0 0 0 0 3 0 0 2 7 6 1 1 0 5 0 2 8 0 0 0 0 0 0 0 0 0 0 0 0 0 0 0 0 0 0 0 0 0 0 0 0 0
0 0 0 0 0 3 0 0 0 0 2 1 2 1 0 0 0 0 1 0 0 0 0 0 0 0 0 0 0 0 0 0 0 0 0 0 0 0 0 0 0 0 0
0 0 0 0 0 0 1 1 0 1 1 1 1 1 1 0 0 0 0 9 3 0 0 0 0 1 0 0 0 0 16 37 35 21 0 0 0 0 0 0 0 0 0
0 0 0 0 1 0 0 1 0 2 1 2 1 1 2 0 0 0 0 0 0 0 10 2 1 4 1 0 0 0 0 0 1 12 0 0 0 0 0 0 0 0 0
0 0 1 1 1 1 0 0 0 0 0 1 2 1 1 1 0 0 0 0 0 0 6 20 21 31 21 37 3 5 1 2 5 11 1 0 0 0 0 0 0 0 0

GFSSE_con_mlcape_102.txt.gz
CAPE
1031 1229 1145 1184 1184 1043 893 907 951 971 1017 893 859 904 998 976 994 1037 1034 990 1047 1071 873 676 783 772 848 822 659 535 469 371 361 305 221 246 289 254 194 159 73 103 142
1033 1370 1209 1233 1302 1154 1076 879 776 742 955 1058 945 1021 907 907 886 879 870 890 1074 1077 936 654 682 783 718 664 519 453 433 366 282 248 266 254 180 175 130 35 33 34 20
1093 1411 1333 1285 1318 1299 1227 1111 1104 1046 455 1016 903 958 921 862 802 669 653 845 1033 982 822 784 822 776 745 516 390 326 276 209 139 75 62 16 47 110 52 8 13 21 17
1201 1455 1465 1290 1321 1424 1448 1299 1409 1190 1095 1175 906 980 910 823 726 579 688 846 861 788 447 580 759 749 553 360 271 174 76 5 2 1 1 8 39 96 56 21 13 14 12
1243 1371 1541 1410 1375 1468 1488 1422 1396 1294 1378 1219 1027 1010 1061 880 781 831 917 819 526 308 280 635 667 533 334 225 81 34 7 1 0 0 0 0 21 38 23 12 6 8 5
1288 1382 1502 1557 1492 1551 1606 1582 1647 1692 1557 1447 1128 974 1117 1053 932 844 834 688 497 560 633 586 590 268 118 78 7 0 0 0 0 0 0 7 13 23 9 3 5 9 5
1308 1479 1458 1601 1649 1706 1724 1748 1748 1768 1642 1472 1049 608 476 453 594 733 700 622 491 359 278 393 218 47 10 1 0 0 0 0 0 0 0 3 14 19 14 3 3 4 7
798 1245 1397 1458 1647 1859 1959 1885 1800 1614 1418 1198 747 219 12 16 29 251 581 501 321 187 129 192 25 1 0 0 0 0 0 0 0 0 0 9 21 23 13 8 3 3 6
729 862 1137 1295 1383 1509 1769 1983 1762 1514 1223 904 582 148 7 27 13 192 299 354 254 165 107 64 0 0 0 0 0 0 0 0 0 0 1 10 26 19 9 3 4 2 10
419 612 848 1067 1156 1116 1128 1357 1436 1068 852 402 286 81 26 0 0 132 208 384 257 103 74 9 0 0 0 0 0 0 0 0 0 0 0 4 3 8 8 7 10 9 7
409 440 660 757 757 699 725 805 680 709 492 338 153 14 0 0 1 71 134 313 233 64 5 0 0 0 0 0 0 0 0 0 0 0 0 6 5 11 12 8 7 9 7
507 502 435 317 377 618 529 335 223 199 287 192 62 42 3 1 0 17 96 225 182 43 0 0 0 0 0 0 0 0 0 0 0 0 0 6 11 9 9 7 5 5 3
440 475 276 203 369 574 442 72 18 47 54 24 8 2 1 0 7 0 60 112 79 23 0 0 0 0 0 0 0 0 0 0 0 0 0 4 5 5 6 5 4 3 2
539 440 125 100 220 381 134 27 0 0 0 0 0 0 0 0 0 33 61 4 11 0 0 0 0 0 0 0 0 0 0 0 0 0 0 1 2 4 3 2 1 1 1
524 355 25 40 134 105 26 3 0 0 0 2 0 2 0 16 1 74 1 1 0 0 0 0 0 0 0 0 0 0 0 0 0 0 0 0 0 1 1 0 0 1 0
298 104 11 1 10 0 6 20 1 0 0 4 3 0 1 29 63 14 1 1 0 0 0 0 0 0 0 0 0 0 0 0 0 0 0 0 0 1 0 0 1 1 1
113 26 0 0 0 0 13 12 3 0 0 2 2 2 3 11 1 1 1 0 0 0 0 0 0 0 0 0 0 0 0 0 0 0 0 0 0 0 0 0 1 2 1
15 0 0 0 0 3 0 0 4 1 0 0 8 8 4 41 0 0 0 0 0 0 0 0 0 0 0 0 0 0 0 0 0 0 0 0 0 0 0 0 0 0 1
0 0 0 0 0 0 2 0 10 0 7 10 6 1 11 3 0 0 0 0 0 0 0 0 0 0 0 0 0 0 0 0 0 0 0 0 0 0 0 0 0 0 0
0 0 0 0 0 0 7 0 4 3 1 1 2 1 25 0 0 0 0 0 0 0 0 0 0 0 0 0 0 0 0 0 0 0 0 0 0 0 0 0 0 0 0
0 0 0 0 0 0 0 0 0 5 0 2 2 7 15 1 0 0 0 0 0 0 0 0 0 0 0 0 0 0 0 0 0 0 0 0 0 0 0 0 0 0 0
0 0 0 0 0 0 1 0 0 0 2 4 1 0 2 0 0 0 0 0 0 0 0 0 0 0 0 0 0 0 0 0 0 0 0 0 0 0 0 0 0 0 0
0 0 0 0 0 1 0 0 3 3 3 1 1 1 1 1 2 0 0 0 0 0 0 0 0 0 0 0 0 0 0 0 0 0 0 0 0 0 0 0 0 0 0
0 0 0 0 0 0 0 0 0 1 13 1 0 1 1 0 0 1 0 0 0 0 2 0 0 0 0 0 0 0 0 2 0 0 0 0 0 0 0 0 0 0 0
0 0 0 0 0 0 0 0 0 1 1 0 1 0 0 0 0 5 18 17 16 11 9 2 0 0 0 0 0 0 0 3 5 30 14 0 0 0 0 0 0 0 0
0 0 0 0 0 0 1 0 1 0 1 0 1 2 3 0 0 0 0 1 10 4 0 0 3 0 0 0 0 0 0 0 4 26 18 16 9 0 0 0 0 0 0

GFSSE_con_mlcape_105.txt.gz
CAPE
725 949 1129 1184 1107 1118 1131 1043 814 973 1240 1409 1380 1280 1198 1191 1147 1104 1043 1100 1008 1011 991 890 783 781 927 936 790 647 566 497 488 439 392 432 432 396 325 257 228 117 129
669 1087 1120 1196 1089 1033 1125 1149 1050 909 1283 1496 1600 1566 1378 1197 1219 1166 1210 1259 1107 1020 1029 997 893 816 942 896 688 590 451 327 266 315 297 417 342 262 229 170 93 96 79
795 1076 1128 1230 1145 982 1046 1125 1223 968 938 1140 1346 1437 1506 1419 1288 1245 1376 1343 1207 1093 1016 985 942 980 849 776 685 534 443 359 270 215 191 135 134 238 127 30 26 31 62
833 1042 1109 1243 1257 1092 1004 1132 1304 1493 1339 1262 1361 1215 1300 1310 1266 1273 1334 1262 1020 827 1086 1100 977 775 782 675 544 438 348 235 190 126 117 102 136 128 73 10 11 29 67
908 1043 1181 1230 1352 1351 1211 1228 1306 1480 1443 1309 1324 1276 1212 1188 1186 1245 1165 1157 967 676 611 974 915 738 574 438 343 202 66 32 17 1 28 27 25 63 14 15 10 13 11
976 1168 1374 1258 1334 1511 1567 1494 1372 1521 1518 1579 1556 1334 1179 1032 945 1069 1097 966 751 526 594 792 655 509 359 246 104 10 0 0 0 0 6 9 0 10 10 5 6 10 10
834 1067 1373 1317 1340 1516 1640 1623 1651 1641 1489 1385 1043 617 476 561 506 638 729 559 393 383 497 509 438 294 142 53 13 4 0 0 0 0 0 6 5 10 6 11 9 9 8
840 1162 1248 1446 1437 1528 1668 1703 1654 1692 1523 1253 652 338 238 111 95 305 400 469 450 325 293 313 242 123 21 0 2 0 0 0 0 0 0 0 5 8 13 9 7 7 8
1035 1175 1198 1361 1578 1685 1722 1671 1650 1635 1401 878 313 178 127 28 111 110 156 241 303 256 338 260 162 39 0 0 0 0 0 0 0 0 0 0 8 16 12 8 5 3 3
645 779 990 1088 1171 1412 1620 1772 1653 1576 1204 641 248 52 45 16 19 0 0 98 172 187 222 122 88 0 0 0 0 0 0 0 0 0 0 3 10 16 5 7 4 6 4
325 436 592 762 857 917 1024 1206 1515 1295 817 577 277 48 75 64 64 0 0 34 130 178 132 32 6 0 0 0 0 0 0 0 0 0 0 5 3 3 5 6 5 3 4
67 209 394 585 525 570 533 628 637 819 511 373 180 58 26 50 97 37 0 32 95 107 87 0 0 0 0 0 0 0 0 0 0 0 0 4 10 7 10 6 7 9 6
92 222 293 313 224 247 316 314 338 373 377 142 116 37 6 28 38 0 0 17 101 71 22 0 0 0 0 0 0 0 0 0 0 0 1 8 10 6 8 6 8 5 5
143 269 279 129 184 225 143 106 60 103 33 29 44 2 1 0 0 0 22 113 58 0 0 0 0 0 0 0 0 0 0 0 0 0 2 8 7 11 10 8 6 6 4
199 244 191 29 93 109 114 7 0 8 1 1 1 1 0 0 4 14 93 85 25 0 0 0 0 0 0 0 0 0 0 0 0 0 0 5 6 9 9 8 6 4 2
270 266 66 24 21 44 21 0 1 2 2 1 1 0 0 1 11 32 59 58 34 5 0 0 0 0 0 0 0 0 0 0 0 0 0 0 1 3 5 8 6 4 2
211 225 36 0 0 0 0 0 0 1 1 2 0 1 1 10 11 62 62 31 23 0 0 0 0 0 0 0 0 0 0 0 0 0 0 0 0 0 0 3 4 3 1
234 208 0 0 0 0 0 1 2 1 0 1 1 2 2 16 24 33 13 1 0 0 0 0 0 0 0 0 0 0 0 0 0 0 0 0 0 0 0 1 1 2 1
197 68 0 0 0 0 0 0 8 2 0 0 1 1 2 4 60 15 1 0 0 0 0 0 0 0 0 0 0 0 0 0 0 0 0 0 0 0 0 0 0 0 0
97 15 0 0 0 0 0 0 6 5 2 1 3 5 1 14 2 0 0 0 0 0 0 0 0 0 0 0 0 0 0 0 0 0 0 0 0 0 0 0 0 0 0
9 0 0 0 0 0 0 1 1 5 0 0 9 2 3 1 0 0 0 0 0 0 0 0 0 0 0 0 0 0 0 0 0 0 0 0 0 0 0 0 0 0 0
0 0 0 0 0 0 0 0 0 0 3 0 1 2 1 0 0 0 0 0 0 0 0 0 0 0 0 0 0 0 0 0 0 0 0 0 0 0 0 0 0 0 0
0 0 0 0 0 0 0 0 0 0 7 2 4 6 3 1 0 0 0 0 0 0 0 0 0 0 0 0 0 0 0 0 0 0 0 0 0 0 0 0 0 0 0
0 0 0 0 0 0 0 0 0 1 6 3 0 1 3 1 0 0 0 0 0 0 0 0 0 0 0 0 0 0 0 0 0 0 0 0 0 0 0 0 0 0 0
0 0 0 0 0 0 0 0 0 4 3 6 0 1 1 3 1 0 0 0 0 0 0 0 0 0 0 0 0 0 0 1 0 1 0 0 0 0 0 0 0 0 0
0 0 0 0 0 0 0 0 0 1 0 11 1 1 1 1 3 0 0 0 2 3 3 0 2 0 1 0 0 0 1 15 21 21 16 2 0 0 0 0 0 0 0

GFSSE_con_mlcape_108.txt.gz
CAPE
400 788 895 1031 1121 1036 912 876 1061 1284 1459 1350 1293 1280 1254 1246 1282 1266 1148 1085 1184 1199 1020 1105 971 1016 1097 1149 877 725 636 698 662 601 592 534 537 494 416 322 256 222 262
231 725 852 1015 1173 1178 947 854 1098 1517 1752 1635 1497 1351 1393 1390 1381 1321 1335 1378 1438 1374 1273 1140 1092 1134 1104 1035 736 607 576 541 543 452 455 534 462 401 337 183 173 175 199
121 510 957 1186 1240 1214 996 828 1056 1432 1746 1714 1621 1536 1558 1597 1488 1519 1462 1454 1408 1310 1287 1214 1075 1213 1089 770 585 481 486 450 368 329 341 274 308 312 181 146 127 175 181
402 551 869 1179 1256 1263 1151 928 1062 1456 1770 1924 1501 1607 1587 1372 1541 1514 1394 1378 1310 1245 1180 1191 1237 1137 975 725 575 508 430 373 314 204 183 218 275 207 101 90 103 157 105
638 657 802 1148 1315 1245 1331 1241 1055 1637 1935 1922 1882 1805 1820 1666 1554 1456 1276 1153 1052 1219 1174 1221 1053 1005 782 607 487 380 272 154 173 94 112 157 226 210 111 49 18 6 22
604 611 805 1094 1333 1285 1372 1463 1426 1378 1632 1761 1505 1600 1620 1594 1380 1053 1086 931 788 777 1082 961 1013 751 584 407 301 212 106 47 37 46 87 56 31 78 5 0 2 2 0
658 849 944 1083 1291 1418 1401 1463 1560 1588 1443 1519 1220 955 750 732 720 862 912 776 700 553 692 762 696 592 369 198 163 57 27 8 5 10 0 4 13 16 7 5 3 4 6
726 966 1105 1217 1247 1438 1567 1507 1387 1592 1386 1044 837 579 382 348 260 339 511 554 298 460 461 622 493 368 192 97 53 16 6 14 0 0 0 4 13 4 6 4 1 3 5
891 863 1071 1315 1273 1373 1513 1598 1352 1257 1028 882 623 450 270 94 58 98 219 292 262 336 343 399 281 197 124 63 12 3 0 0 0 0 0 4 0 0 6 8 2 11 4
809 978 991 1213 1344 1343 1431 1571 1474 1271 828 644 359 174 49 56 40 17 13 89 183 202 239 281 98 65 44 4 0 0 0 0 0 0 0 0 0 8 7 9 9 6 2
571 847 921 1049 1178 1191 1261 1483 1544 1069 791 458 252 166 57 62 79 35 26 109 175 218 226 181 12 4 0 0 0 0 0 0 0 0 0 3 11 12 4 7 3 6 2
187 344 591 735 770 823 968 1117 1259 1059 656 337 64 43 62 55 17 10 14 55 150 180 146 103 0 0 0 0 0 0 0 0 0 0 0 4 5 5 8 5 4 4 6
97 144 246 435 487 494 537 578 574 764 532 246 28 27 20 36 43 24 50 141 133 164 88 7 0 0 0 0 0 0 0 0 0 0 0 3 7 6 7 9 5 7 1
58 55 173 329 386 314 154 141 181 386 322 231 41 1 2 40 35 8 7 97 126 91 43 0 0 0 0 0 0 0 0 0 0 0 0 7 4 8 8 2 2 1 5
77 65 106 160 193 79 73 60 57 24 70 44 41 2 2 3 17 0 18 111 85 29 35 0 0 0 0 0 0 0 0 0 0 0 0 4 1 3 7 3 1 1 0
78 83 138 137 79 56 59 5 1 10 25 39 12 2 0 1 7 1 16 66 32 21 0 0 0 0 0 0 0 0 0 0 0 0 0 0 2 3 7 5 6 2 8
20 40 116 156 15 22 1 1 0 0 1 1 2 5 2 1 0 10 20 41 20 0 0 0 0 0 0 0 0 0 0 0 0 0 0 0 0 3 5 6 4 4 6
2 21 58 111 4 0 0 3 1 0 1 1 0 2 2 2 4 25 60 46 13 0 0 0 0 0 0 0 0 0 0 0 0 0 0 0 0 0 5 3 1 4 6
0 9 58 66 2 0 0 1 4 7 0 2 2 1 1 1 3 28 30 23 3 0 0 0 0 0 0 0 0 0 0 0 0 0 0 0 0 0 0 0 0 0 0
0 13 55 12 0 0 0 1 12 6 3 1 1 1 3 2 8 7 10 0 0 0 0 0 0 0 0 0 0 0 0 0 0 0 0 0 0 0 0 0 0 0 0
9 44 79 0 0 0 0 1 3 7 5 3 3 1 2 2 4 23 1 1 0 0 0 0 0 0 0 0 0 0 0 0 0 0 0 0 0 0 0 0 0 0 0
16 34 15 0 0 0 0 0 1 1 6 0 4 1 1 3 3 1 1 0 0 0 0 0 0 0 0 0 0 0 0 0 0 0 0 0 0 0 0 0 0 0 0
34 47 0 0 0 0 0 0 0 3 6 2 3 2 3 0 1 0 1 0 0 0 0 0 0 0 0 0 0 0 0 0 0 0 0 0 0 0 0 0 0 0 0
2 1 0 0 0 0 0 0 0 1 2 1 3 4 1 1 0 0 0 0 0 0 0 0 0 0 0 0 0 0 0 0 0 0 0 0 0 0 0 0 0 0 0
0 0 0 0 0 0 0 0 0 1 0 7 2 2 1 2 0 0 0 0 0 0 0 0 0 0 0 0 0 0 0 0 0 0 0 0 0 0 0 0 0 0 0
0 0 0 0 0 0 0 0 0 0 3 2 1 0 2 2 3 0 0 0 0 0 0 0 0 0 0 0 0 0 0 1 0 2 4 0 0 0 0 0 0 0 0

GFSSE_con_mlcape_111.txt.gz
CAPE
466 610 783 874 994 979 897 853 956 1288 1435 1399 1314 1315 1290 1442 1543 1593 1537 1448 1482 1444 1388 1226 1198 1189 1188 1104 989 993 892 773 706 643 596 723 745 636 556 431 424 391 392
63 766 782 942 1038 980 969 951 1087 1469 1586 1605 1538 1504 1472 1575 1567 1558 1501 1364 1381 1388 1318 1338 1366 1362 1277 1053 979 803 761 670 615 580 454 549 591 624 444 363 377 426 397
50 670 887 943 1050 1075 1069 1077 1290 1597 1662 1697 1701 1648 1668 1640 1549 1503 1416 1357 1413 1433 1405 1401 1339 1470 1303 965 844 745 708 594 477 464 570 547 513 471 422 341 287 316 308
122 631 857 746 1064 1176 1182 1126 1393 1770 1861 1878 1868 1648 1503 1533 1474 1391 1391 1447 1421 1416 1395 1504 1495 1411 1097 845 728 735 624 517 425 381 371 402 344 421 365 294 314 309 281
201 520 836 969 1136 1189 1225 1229 1573 2087 2133 1797 1525 1694 1723 1672 1634 1459 1418 1358 1315 1360 1452 1416 1369 1204 861 750 711 557 483 377 300 343 469 406 370 396 361 344 201 119 88
461 712 790 1057 1188 1191 1209 1268 1662 1770 1885 1708 1663 1671 1278 1335 1291 1174 1347 1352 1076 1392 1385 1409 1280 946 727 624 498 394 305 205 302 410 512 376 328 213 72 27 13 28 17
671 768 925 1032 1225 1192 1188 1242 1463 1666 1681 1372 1183 1238 928 603 640 754 897 772 770 1105 1140 1077 1011 762 596 501 369 270 162 103 323 415 336 294 190 34 0 0 0 0 0
733 906 1050 1103 1266 1325 1176 1157 1209 1294 1331 1250 1253 1203 681 238 647 734 685 685 667 682 806 897 802 596 461 335 192 86 39 70 267 291 265 192 37 2 0 0 2 0 2
883 969 1134 1312 1334 1400 1323 1121 1232 1170 856 973 963 738 637 684 670 692 560 410 481 423 571 764 567 429 336 227 112 28 8 36 157 154 83 64 17 0 0 0 4 4 4
946 1166 1166 1320 1420 1542 1617 1354 1139 1198 909 732 630 377 244 193 178 174 66 140 258 426 368 478 385 311 165 117 37 15 7 5 88 38 27 24 13 2 1 3 7 4 6
965 1079 1088 1308 1424 1467 1400 1551 1321 1107 824 664 426 170 111 140 99 40 33 140 181 282 279 301 268 155 106 37 4 0 0 7 14 20 14 2 2 4 2 10 2 8 8
647 834 1125 1288 1369 1290 1120 1254 1557 1241 859 650 442 171 111 131 99 121 137 121 98 207 239 220 151 57 59 40 0 0 0 0 0 9 8 6 6 3 8 5 6 4 3
454 699 905 1115 1354 1245 1036 914 976 940 828 562 313 114 95 94 76 77 70 81 157 265 224 127 28 7 28 1 0 0 0 0 0 5 4 6 10 11 8 4 4 3 7
169 477 660 879 990 946 827 708 581 598 583 348 163 98 72 63 76 91 38 37 110 191 172 50 0 0 0 0 0 0 0 0 0 0 1 8 10 8 10 7 2 10 5
108 282 464 566 782 631 517 375 373 123 393 254 42 54 60 85 83 87 57 48 157 98 86 1 0 0 1 0 0 0 0 0 0 0 0 11 9 9 8 4 1 3 4
66 163 349 406 581 434 318 153 110 57 163 247 66 43 33 60 59 69 66 118 82 69 16 2 0 0 0 0 0 0 0 0 0 0 11 15 10 10 14 6 7 4 1
0 69 215 300 464 407 179 51 32 21 1 14 41 20 13 13 25 41 48 68 54 62 19 0 0 0 0 0 0 0 0 0 0 0 10 12 5 11 4 4 5 3 6
0 9 133 175 311 268 160 115 1 1 0 1 1 2 3 6 4 15 18 33 37 27 13 2 0 0 0 0 0 0 0 0 0 0 10 14 19 8 6 0 3 4 3
0 3 43 212 368 219 87 49 1 1 1 2 2 2 2 5 4 13 46 27 29 12 2 0 0 0 0 0 0 0 0 0 0 2 9 7 9 6 6 4 5 1 0
0 0 29 172 362 116 47 13 2 5 1 8 5 4 2 2 3 5 60 37 2 1 0 0 0 0 0 0 0 0 0 0 0 0 1 3 9 8 7 4 2 1 0
0 0 22 145 180 48 29 3 1 0 0 3 4 3 2 2 3 11 6 1 1 1 0 0 0 0 0 0 0 2 1 0 3 1 6 7 5 3 3 4 5 3 0
0 0 29 79 62 14 1 1 3 8 3 2 2 3 4 1 2 13 3 2 1 1 0 0 0 0 0 0 0 0 0 0 3 4 6 6 3 1 0 0 0 0 0
0 0 20 46 40 4 1 1 0 6 7 9 13 2 2 1 2 3 12 2 2 0 0 0 0 0 0 0 0 0 1 3 0 1 3 1 0 0 0 0 0 0 0
0 0 1 28 8 1 0 0 0 1 5 4 6 4 1 1 2 1 1 1 1 0 0 0 0 0 0 0 0 0 0 0 0 0 0 0 0 0 0 0 0 0 0
0 0 1 14 0 0 0 0 0 6 7 1 3 7 5 1 0 1 0 1 0 0 0 0 0 0 0 0 0 0 0 0 0 0 0 0 0 0 0 0 0 0 0
0 1 3 6 1 0 1 1 2 1 0 1 2 6 1 1 2 2 2 1 0 0 0 0 0 0 0 0 0 0 0 0 0 0 0 0 0 0 0 0 0 9 1

GFSSE_con_mlcape_114.txt.gz
CAPE
374 701 611 629 823 949 941 889 895 1071 1423 1278 1168 1238 1297 1390 1466 1533 1594 1591 1524 1420 1488 1427 1302 1304 1265 1208 1052 1125 1088 981 916 848 857 862 762 702 506 478 521 538 527
146 866 624 773 920 1032 1027 974 1013 1344 1586 1487 1378 1449 1357 1481 1497 1482 1431 1536 1626 1611 1501 1360 1235 1314 1377 1291 1115 1010 923 843 813 811 787 778 733 653 559 518 584 556 522
409 917 810 919 918 1017 1098 1096 1271 1548 1762 1755 1596 1566 1472 1568 1531 1414 1390 1421 1498 1633 1520 1425 1434 1411 1335 1010 961 922 843 784 635 646 707 643 721 707 578 476 488 541 530
441 883 1243 916 897 984 1116 1195 1438 1728 1857 1884 1728 1710 1379 1590 1514 1329 1309 1326 1402 1417 1588 1582 1527 1453 1241 1004 963 863 744 620 665 657 707 550 547 611 515 494 530 535 502
450 683 1332 856 894 1073 1170 1212 1528 1993 1972 1950 1841 1607 1256 1223 1067 685 711 1295 1450 1497 1591 1475 1497 1355 1057 968 904 767 620 581 525 628 470 492 491 583 572 459 269 300 369
532 673 1124 731 892 1152 1210 1213 1594 1862 1967 1867 1648 1499 1367 1176 836 616 732 1245 1383 1425 1195 1301 1524 1133 942 855 731 587 495 411 410 493 464 466 481 478 427 267 201 156 176
772 959 1231 829 983 1204 1198 1244 1593 1886 1921 1781 1402 1343 998 405 5 230 250 413 1141 1151 1292 1249 1113 948 748 664 542 447 354 390 608 575 571 548 441 274 138 57 27 46 31
1336 1473 1610 1098 1091 1160 1205 1206 1546 1570 1661 1477 1162 1258 779 79 4 46 299 642 1005 1136 1184 1070 897 791 584 502 419 331 279 350 441 554 439 433 78 24 0 0 0 0 0
1691 1635 1677 1657 1449 1152 1114 1132 1329 1489 1403 1386 1184 1177 710 222 288 450 508 560 906 947 1025 901 716 565 460 321 288 199 186 260 436 388 307 276 41 4 0 0 0 0 0
1717 1722 1741 1825 1801 1721 1435 1087 1166 1100 1223 1328 1167 961 569 159 138 683 629 599 518 623 818 643 535 356 284 213 153 108 133 264 304 316 220 128 20 0 0 0 0 1 3
1524 1658 1783 1848 1854 1853 1887 1544 1122 1252 1042 972 985 777 347 615 890 661 484 475 436 510 629 451 352 253 140 105 65 108 124 316 274 207 125 6 2 3 0 0 5 8 5
1471 1610 1646 1828 1886 1903 1599 1829 1774 1776 1611 1278 1082 758 778 726 545 282 132 246 436 364 318 188 191 164 162 239 131 104 264 216 216 141 37 0 3 8 5 3 11 8 4
1201 1525 1600 1794 1921 1735 1541 1526 1875 1999 1773 1437 1249 910 580 484 196 81 161 251 487 308 379 234 148 284 316 278 239 257 95 66 23 24 12 10 20 8 5 13 6 6 3
698 1448 1630 1691 1893 1650 1451 1453 1635 1417 1420 1174 1096 761 493 452 220 185 226 213 266 260 403 377 296 257 234 183 173 93 11 20 22 12 10 11 9 19 10 11 13 7 10
366 897 1462 1647 1756 1788 1388 1277 1279 1166 1074 924 804 689 504 459 241 178 173 135 216 175 135 214 235 192 149 113 91 9 6 12 16 12 17 6 14 17 14 15 11 4 8
121 573 1110 1464 1605 1525 1332 1130 947 1016 900 706 474 688 606 432 177 183 163 165 103 148 155 85 60 120 102 87 19 20 15 7 3 9 17 8 11 18 11 17 17 12 6
7 264 816 1321 1430 1346 1097 960 900 901 860 489 307 301 338 239 90 150 236 179 112 250 172 30 3 51 81 88 32 29 23 6 4 6 11 10 7 13 13 16 16 10 7
0 12 482 922 1304 1083 883 918 725 655 565 448 206 122 71 91 53 71 148 198 251 106 62 7 15 67 96 93 33 43 20 4 7 7 10 1 2 20 8 9 5 7 8
0 0 308 865 1171 1038 1036 774 498 475 298 141 41 80 80 35 34 83 53 196 173 107 73 20 43 67 68 77 35 27 24 12 11 5 8 14 14 12 8 1 3 1 1
0 0 192 690 1000 925 785 456 494 425 157 38 27 7 20 20 24 29 26 79 110 76 70 44 46 66 64 51 20 32 19 11 20 3 7 11 19 26 18 3 1 1 0
1 0 200 534 881 475 409 394 378 268 49 82 47 3 1 5 5 16 16 72 48 32 76 42 79 57 29 67 36 20 19 16 14 5 5 5 11 16 15 12 3 3 0
52 122 195 445 855 346 334 536 333 58 14 3 9 11 7 2 2 3 8 48 22 24 68 14 58 43 30 37 24 15 15 26 18 16 3 4 8 4 4 8 10 8 6
56 231 277 447 761 545 725 365 389 257 45 51 30 14 8 3 2 3 4 2 2 6 3 0 20 30 16 34 50 5 4 6 11 10 6 4 1 0 0 4 5 2 0
72 237 225 441 537 629 705 380 306 130 12 18 31 44 7 20 15 3 5 2 2 4 1 0 0 26 29 20 24 6 0 0 1 10 6 2 0 0 1 0 0 0 0
81 151 50 269 394 586 637 425 164 9 7 3 45 69 59 17 10 3 2 2 2 1 1 0 0 16 21 45 26 8 8 7 1 0 0 0 0 0 0 0 1 14 9
148 16 5 212 161 100 219 170 40 0 1 6 24 30 22 8 5 2 1 1 2 2 2 0 0 0 14 46 36 0 0 0 3 0 0 0 0 0 13 31 39 77 71

GFSSE_con_mlcape_117.txt.gz
CAPE
36 144 254 434 775 886 913 945 1007 1319 1330 1201 1214 1175 1192 1164 1310 1424 1561 1571 1422 1434 1523 1491 1354 1283 1139 1015 904 956 888 898 925 941 976 937 810 660 574 492 506 578 615
2 541 277 399 718 867 895 911 968 1130 1519 1381 1286 1245 1255 1223 1284 1505 1594 1542 1545 1544 1516 1429 1355 1358 1300 1241 1064 1024 966 881 898 916 889 814 716 660 641 601 648 637 594
68 837 674 509 652 758 863 949 1037 1268 1556 1577 1386 1298 1208 994 1064 1474 1477 1485 1463 1513 1540 1391 1455 1482 1304 1114 1032 991 927 878 850 715 717 649 861 783 663 462 561 607 557
131 923 1244 721 637 822 895 975 1122 1478 1738 1687 1540 1388 1121 961 1061 1016 1186 1330 1308 1468 1505 1472 1485 1477 1182 1034 998 928 859 712 688 675 589 633 739 789 646 658 612 584 509
97 591 1533 687 641 824 949 1096 1378 1744 1823 1786 1769 1432 940 844 739 216 374 541 990 1669 1482 1578 1488 1367 1093 988 902 814 699 613 643 546 557 555 578 668 729 556 320 296 415
101 341 1211 721 775 897 938 1136 1412 1715 1810 1761 1759 1419 881 533 205 86 44 326 390 984 1322 1532 1526 1163 1001 913 802 684 634 556 546 538 511 505 498 621 598 469 463 283 274
151 873 1324 626 834 944 1066 1112 1346 1693 1655 1755 1768 1550 700 273 102 122 123 211 159 425 1124 1403 1270 1028 931 790 677 574 456 508 606 530 633 605 648 576 511 331 252 215 176
667 1314 1470 810 874 976 1125 1070 1358 1642 1721 1752 1672 1348 470 19 0 4 241 210 136 413 1068 1233 988 849 766 681 577 482 345 334 598 404 473 495 339 336 221 123 54 24 18
1403 1619 1690 1337 1159 1022 1097 1023 1256 1476 1596 1716 1598 1267 604 114 32 0 26 106 156 708 1077 946 791 694 627 494 445 337 285 358 537 446 408 224 56 9 0 0 0 0 0
1679 1668 1772 1669 1639 1646 1493 1075 1085 1374 1326 1459 1297 1073 528 199 20 1 171 373 457 870 972 782 598 511 453 370 329 222 223 267 467 388 378 173 11 2 0 0 0 0 0
1639 1694 1633 1743 1877 1917 1784 1456 1026 1074 1212 1228 1242 978 450 419 6 311 600 538 668 854 744 474 393 317 260 246 228 161 158 402 305 255 254 6 0 5 1 0 0 0 0
1411 1687 1664 1769 1929 2051 1682 1756 1384 1430 1379 1219 1418 1182 1030 735 633 716 664 543 526 437 265 246 176 101 177 348 209 122 232 309 198 203 95 2 2 3 6 2 3 0 6
1073 1472 1676 1866 1976 2019 1914 1935 1533 1526 1409 1620 1304 1282 998 757 720 708 555 483 491 312 196 171 63 148 240 339 335 267 246 309 254 73 4 0 3 2 5 12 6 1 7
367 1427 1711 1746 1967 2187 1831 1692 1609 1703 1480 1517 1563 1455 865 828 642 485 147 62 350 417 417 240 252 254 340 339 340 284 147 165 28 62 0 0 7 14 18 15 9 6 8
0 536 1604 1778 1995 2222 1881 1504 1451 1782 1725 1628 1516 1479 926 702 579 361 182 167 341 453 435 290 218 306 300 267 251 144 37 22 15 49 2 0 12 11 10 18 10 6 10
0 202 1053 1808 1929 2246 1701 1573 1658 1523 1494 1718 1627 1499 1143 783 589 492 361 232 126 330 275 119 194 278 191 170 152 43 33 21 2 26 3 9 10 1 8 23 16 4 4
0 7 668 1458 1931 2117 1738 1533 1499 1297 1329 1508 1290 1474 1130 843 684 504 357 192 227 363 111 33 54 118 131 103 41 49 42 26 3 4 1 9 15 12 18 15 16 11 7
0 0 121 739 1713 2016 2008 1670 1350 1135 1167 1267 992 1121 1063 741 687 561 441 342 248 206 52 18 56 47 50 77 77 27 23 21 7 3 9 6 9 12 10 8 10 7 5
0 0 0 660 1261 1930 1876 1491 1342 1264 1174 1108 1007 745 816 600 508 414 361 462 237 220 118 38 35 15 4 52 48 67 34 23 10 2 19 3 1 8 6 1 6 5 1
0 0 0 226 1161 1764 1758 1471 1351 1203 806 778 790 687 588 579 396 203 311 320 370 171 74 7 18 25 32 54 46 50 20 25 18 2 6 13 2 8 0 0 0 1 0
0 0 0 147 1066 1617 1484 1505 1018 885 476 478 508 429 437 357 165 270 104 142 85 99 52 22 27 19 36 108 63 42 37 12 24 3 4 5 13 9 21 1 0 0 0
0 72 103 336 910 1437 1243 935 912 929 813 803 472 270 168 90 169 106 77 31 9 43 45 12 28 3 24 137 32 28 32 23 17 5 2 3 12 5 14 18 3 1 2
0 103 250 393 692 1261 712 738 945 876 581 321 148 192 172 31 10 2 7 17 16 29 6 15 26 3 13 40 50 1 13 16 18 15 2 4 8 8 5 8 5 5 10
0 100 356 415 622 1203 655 865 1083 737 409 383 281 196 121 89 25 3 2 5 3 6 22 13 33 23 28 41 45 32 21 1 0 15 8 4 9 5 5 6 2 1 1
0 119 546 586 701 1065 1025 951 990 1024 641 376 208 236 192 77 40 6 3 2 4 4 5 12 0 41 31 51 49 35 43 37 0 0 3 2 1 2 2 2 2 0 0
156 547 683 611 855 1000 1044 1110 993 965 624 387 257 206 193 106 141 51 5 3 1 1 2 1 2 31 37 29 59 86 52 47 8 27 6 4 0 0 0 0 0 4 8

GFSSE_con_mlcape_120.txt.gz
CAPE
0 0 41 354 635 724 791 889 1103 1121 1103 1099 1113 1031 1008 1092 1150 1241 1359 1318 1290 1445 1558 1456 1210 1074 1103 1027 798 772 802 910 886 848 706 590 505 523 524 565 523 576 598
0 0 39 259 524 630 702 807 904 1138 1215 1196 1209 1163 1217 1120 1227 1300 1445 1388 1551 1603 1671 1432 1029 844 1156 1059 882 843 832 833 826 705 656 687 693 645 640 595 587 624 592
0 0 105 223 383 593 751 785 831 958 1325 1400 1344 1234 1178 1013 947 986 1468 1534 1367 1536 1704 1458 1254 1374 1147 973 921 902 868 725 628 481 633 663 699 768 608 537 685 624 614
287 51 158 191 333 546 701 825 943 1194 1464 1540 1501 1298 1195 850 641 557 611 891 1057 1487 1638 1554 1589 1419 1111 1001 946 865 767 645 670 678 716 691 745 682 646 642 630 639 586
684 880 348 143 233 485 640 835 1066 1377 1691 1754 1666 1401 1150 462 115 221 21 204 173 506 1492 1472 1568 1277 1031 925 896 815 625 612 604 626 580 669 649 800 746 553 405 535 470
374 1274 617 93 212 448 629 905 1212 1511 1559 1512 1528 1505 943 247 78 37 0 16 52 0 593 1189 1407 1040 908 840 747 507 590 500 526 469 519 592 531 699 615 519 513 376 367
717 1160 768 113 170 423 660 953 1234 1460 1457 1458 1575 1470 778 257 89 0 0 0 8 12 251 555 979 952 823 719 609 465 561 518 521 470 504 562 530 707 672 476 352 328 262
1185 1462 833 270 273 464 636 835 1184 1468 1298 1451 1689 1152 623 235 4 0 0 16 0 0 199 537 958 868 768 625 540 437 370 245 477 573 407 449 448 554 535 305 174 83 21
1775 1793 940 469 618 570 647 734 1073 1352 1424 1590 1589 1124 473 292 106 66 87 37 0 0 516 1033 897 825 713 553 466 343 202 340 384 452 401 312 312 412 296 34 2 0 0
1542 2011 1221 1152 864 809 728 718 947 1215 1385 1477 1421 963 488 0 0 0 303 272 81 280 758 789 545 693 628 445 345 220 218 329 342 332 202 40 58 24 4 0 0 0 0
1736 1931 1914 1626 1433 1407 1304 813 878 1119 1126 1252 1156 948 318 50 179 0 13 37 215 366 667 464 269 252 385 295 223 164 172 255 270 307 101 4 6 4 4 1 0 0 0
1841 1904 2017 1891 1833 1959 1769 1434 995 1102 1171 1225 1319 817 783 669 357 178 450 367 248 270 577 245 179 132 202 208 155 103 152 160 190 170 5 3 0 4 6 3 1 2 3
1604 2013 1901 1993 2156 2185 1559 1780 1311 1527 1283 1247 1474 1313 1238 1010 546 310 546 509 217 246 257 140 128 71 141 197 175 140 214 146 195 99 0 0 0 12 8 10 3 4 7
1042 1763 1885 2067 2365 2310 1778 1698 1637 1317 1525 1573 1218 1473 1293 1034 760 532 454 349 97 239 132 167 73 59 47 86 183 232 175 193 97 5 0 0 0 3 6 9 8 5 9
573 1517 1767 2014 2254 2411 2023 1696 1843 1438 1712 1584 1517 1362 1308 996 859 717 341 290 161 407 343 160 46 28 61 116 236 176 196 163 38 11 0 0 0 2 10 13 8 5 5
0 1380 1850 1817 2216 2546 2134 1903 1616 2070 1534 1725 1709 1637 1401 1006 792 570 238 92 358 302 453 149 55 81 55 158 149 106 97 42 40 10 0 0 0 5 8 19 7 3 6
0 0 1725 1985 2090 2598 2248 1895 1733 1991 1754 1703 1637 1699 1344 1049 730 421 302 182 178 312 299 135 64 61 101 127 124 108 26 10 11 1 0 0 0 2 10 10 2 6 2
0 0 880 1996 1986 2332 2404 1724 1589 1685 1589 1531 1207 1525 1353 1137 822 586 398 236 136 205 144 24 26 9 36 50 46 47 18 8 11 0 0 0 0 3 17 3 0 2 6
0 0 67 1000 1791 2163 2349 1888 1573 1504 1575 1490 1219 1135 1522 1186 924 587 468 237 176 215 60 8 2 5 27 22 25 7 17 14 0 10 0 0 0 0 1 0 0 1 3
0 0 71 611 1440 2129 2463 2140 1832 1686 1335 1436 1366 1040 1200 1174 853 602 443 225 181 209 34 0 2 9 17 7 25 2 33 23 1 1 4 0 0 0 0 0 0 0 0
0 0 0 708 1226 1923 2183 2115 1735 1527 1241 1168 1049 848 660 869 697 562 344 214 178 155 32 2 6 13 2 1 16 5 49 30 9 0 4 0 0 0 0 0 0 0 0
0 0 0 1 1111 1722 2110 2060 1650 1512 914 627 507 484 442 604 616 419 380 188 111 160 39 1 1 5 1 3 13 20 37 28 26 6 6 13 1 0 0 0 0 0 0
0 0 19 120 317 1480 1998 1806 1330 967 772 490 563 459 330 260 424 188 334 91 62 46 6 1 0 12 6 4 3 0 15 6 7 26 2 0 14 1 13 6 0 0 0
0 0 99 167 325 1166 1716 1326 1110 855 904 749 532 311 292 139 83 179 148 38 19 3 3 2 1 0 1 0 10 8 26 7 0 4 5 5 17 1 2 4 0 0 10
0 0 19 283 421 1103 1345 1012 899 953 839 511 474 238 188 202 89 0 6 17 18 5 5 6 2 2 0 0 2 4 32 51 0 0 0 4 15 2 0 1 0 0 0
130 147 382 573 555 1156 1150 1024 942 1098 957 644 634 519 290 97 167 64 1 3 4 4 4 1 14 1 2 0 13 9 18 41 8 0 0 0 0 0 0 0 2 0 0